<?xml version='1.0' encoding='UTF-8'?><gpx version="1.1" creator="JPX - https://github.com/jenetics/jpx" xmlns="http://www.topografix.com/GPX/1/1"><trk><trkseg><trkpt lat="41.2407867" lon="14.88567"><ele>434.0</ele><time>2026-03-15T10:21:02.718Z</time></trkpt><trkpt lat="41.2408233" lon="14.8857383"><ele>434.0</ele><time>2026-03-15T10:21:05.718Z</time></trkpt><trkpt lat="41.2409383" lon="14.8857733"><ele>434.0</ele><time>2026-03-15T10:21:10.718Z</time></trkpt><trkpt lat="41.24103" lon="14.8857883"><ele>434.0</ele><time>2026-03-15T10:21:12.718Z</time></trkpt><trkpt lat="41.2410567" lon="14.885665"><ele>434.0</ele><time>2026-03-15T10:21:15.718Z</time></trkpt><trkpt lat="41.2410317" lon="14.8855633"><ele>433.99999999999994</ele><time>2026-03-15T10:21:16.718Z</time></trkpt><trkpt lat="41.241" lon="14.8854517"><ele>434.0</ele><time>2026-03-15T10:21:17.718Z</time></trkpt><trkpt lat="41.2409667" lon="14.885355"><ele>434.0</ele><time>2026-03-15T10:21:18.718Z</time></trkpt><trkpt lat="41.240945" lon="14.8852617"><ele>434.0</ele><time>2026-03-15T10:21:19.718Z</time></trkpt><trkpt lat="41.2409333" lon="14.88516"><ele>433.99999999999994</ele><time>2026-03-15T10:21:20.718Z</time></trkpt><trkpt lat="41.2409267" lon="14.885055"><ele>434.0</ele><time>2026-03-15T10:21:21.718Z</time></trkpt><trkpt lat="41.24092" lon="14.88496"><ele>433.99999999999994</ele><time>2026-03-15T10:21:22.718Z</time></trkpt><trkpt lat="41.2409" lon="14.884815"><ele>434.0</ele><time>2026-03-15T10:21:24.717Z</time></trkpt><trkpt lat="41.2408883" lon="14.8847267"><ele>434.0</ele><time>2026-03-15T10:21:26.718Z</time></trkpt><trkpt lat="41.240805" lon="14.884835"><ele>434.0</ele><time>2026-03-15T10:21:30.718Z</time></trkpt><trkpt lat="41.2407783" lon="14.8849167"><ele>433.99999999999994</ele><time>2026-03-15T10:21:31.718Z</time></trkpt><trkpt lat="41.2407683" lon="14.8850217"><ele>434.0</ele><time>2026-03-15T10:21:32.718Z</time></trkpt><trkpt lat="41.2407717" lon="14.885135"><ele>433.99999999999994</ele><time>2026-03-15T10:21:33.718Z</time></trkpt><trkpt lat="41.2407833" lon="14.88526"><ele>434.0</ele><time>2026-03-15T10:21:34.718Z</time></trkpt><trkpt lat="41.2407967" lon="14.885395"><ele>434.0</ele><time>2026-03-15T10:21:35.718Z</time></trkpt><trkpt lat="41.2408017" lon="14.885515"><ele>434.0</ele><time>2026-03-15T10:21:36.718Z</time></trkpt><trkpt lat="41.2408033" lon="14.885605"><ele>433.99999999999994</ele><time>2026-03-15T10:21:37.718Z</time></trkpt><trkpt lat="41.24082" lon="14.8857167"><ele>434.0</ele><time>2026-03-15T10:21:39.718Z</time></trkpt><trkpt lat="41.2408917" lon="14.8857483"><ele>434.0</ele><time>2026-03-15T10:23:25.718Z</time></trkpt><trkpt lat="41.24097" lon="14.885785"><ele>434.0</ele><time>2026-03-15T10:23:27.717Z</time></trkpt><trkpt lat="41.2410367" lon="14.8857467"><ele>434.0</ele><time>2026-03-15T10:23:29.718Z</time></trkpt><trkpt lat="41.24106" lon="14.8856117"><ele>434.0</ele><time>2026-03-15T10:23:31.718Z</time></trkpt><trkpt lat="41.241025" lon="14.885495"><ele>434.0</ele><time>2026-03-15T10:23:32.718Z</time></trkpt><trkpt lat="41.2409717" lon="14.8853633"><ele>433.99999999999994</ele><time>2026-03-15T10:23:33.718Z</time></trkpt><trkpt lat="41.2409383" lon="14.8852517"><ele>434.0</ele><time>2026-03-15T10:23:34.717Z</time></trkpt><trkpt lat="41.2409083" lon="14.885125"><ele>434.0</ele><time>2026-03-15T10:23:35.717Z</time></trkpt><trkpt lat="41.240885" lon="14.88502"><ele>434.0</ele><time>2026-03-15T10:23:36.718Z</time></trkpt><trkpt lat="41.2408767" lon="14.8849233"><ele>433.99999999999994</ele><time>2026-03-15T10:23:37.717Z</time></trkpt><trkpt lat="41.2408667" lon="14.8848383"><ele>434.0</ele><time>2026-03-15T10:23:38.718Z</time></trkpt><trkpt lat="41.2408617" lon="14.8847133"><ele>436.0</ele><time>2026-03-15T10:23:40.717Z</time></trkpt><trkpt lat="41.2409167" lon="14.8845733"><ele>438.0</ele><time>2026-03-15T10:23:42.718Z</time></trkpt><trkpt lat="41.240995" lon="14.8844817"><ele>440.0</ele><time>2026-03-15T10:23:44.718Z</time></trkpt><trkpt lat="41.2411217" lon="14.8844"><ele>442.0</ele><time>2026-03-15T10:23:46.718Z</time></trkpt><trkpt lat="41.2412217" lon="14.884345"><ele>442.0</ele><time>2026-03-15T10:23:47.717Z</time></trkpt><trkpt lat="41.2413317" lon="14.88427"><ele>442.0</ele><time>2026-03-15T10:23:48.718Z</time></trkpt><trkpt lat="41.2414483" lon="14.884195"><ele>442.0</ele><time>2026-03-15T10:23:49.718Z</time></trkpt><trkpt lat="41.2415767" lon="14.884115"><ele>442.0</ele><time>2026-03-15T10:23:50.717Z</time></trkpt><trkpt lat="41.241705" lon="14.88403"><ele>446.33333333333337</ele><time>2026-03-15T10:23:51.717Z</time></trkpt><trkpt lat="41.24183" lon="14.8839433"><ele>450.66666666666663</ele><time>2026-03-15T10:23:52.718Z</time></trkpt><trkpt lat="41.2419717" lon="14.8838467"><ele>455.0</ele><time>2026-03-15T10:23:53.717Z</time></trkpt><trkpt lat="41.2421167" lon="14.8837267"><ele>455.0</ele><time>2026-03-15T10:23:54.718Z</time></trkpt><trkpt lat="41.24225" lon="14.8836167"><ele>455.0</ele><time>2026-03-15T10:23:55.718Z</time></trkpt><trkpt lat="41.242375" lon="14.8834917"><ele>455.0</ele><time>2026-03-15T10:23:56.718Z</time></trkpt><trkpt lat="41.2424867" lon="14.88333"><ele>457.66666666666663</ele><time>2026-03-15T10:23:57.718Z</time></trkpt><trkpt lat="41.2426117" lon="14.8831617"><ele>460.33333333333337</ele><time>2026-03-15T10:23:58.718Z</time></trkpt><trkpt lat="41.24271" lon="14.8829883"><ele>463.0</ele><time>2026-03-15T10:23:59.718Z</time></trkpt><trkpt lat="41.2428133" lon="14.8828217"><ele>463.0</ele><time>2026-03-15T10:24:00.718Z</time></trkpt><trkpt lat="41.2429283" lon="14.8826733"><ele>463.0</ele><time>2026-03-15T10:24:01.718Z</time></trkpt><trkpt lat="41.2430517" lon="14.882535"><ele>463.0</ele><time>2026-03-15T10:24:02.717Z</time></trkpt><trkpt lat="41.243185" lon="14.8824083"><ele>465.75</ele><time>2026-03-15T10:24:03.718Z</time></trkpt><trkpt lat="41.243325" lon="14.8822933"><ele>468.5</ele><time>2026-03-15T10:24:04.718Z</time></trkpt><trkpt lat="41.24344" lon="14.88219"><ele>471.25</ele><time>2026-03-15T10:24:05.718Z</time></trkpt><trkpt lat="41.2435167" lon="14.8820467"><ele>474.0</ele><time>2026-03-15T10:24:06.718Z</time></trkpt><trkpt lat="41.2435817" lon="14.8818783"><ele>476.0</ele><time>2026-03-15T10:24:07.717Z</time></trkpt><trkpt lat="41.2436567" lon="14.8817283"><ele>478.0</ele><time>2026-03-15T10:24:08.718Z</time></trkpt><trkpt lat="41.2437217" lon="14.8815533"><ele>480.0</ele><time>2026-03-15T10:24:09.718Z</time></trkpt><trkpt lat="41.24379" lon="14.88139"><ele>482.0</ele><time>2026-03-15T10:24:10.718Z</time></trkpt><trkpt lat="41.243855" lon="14.881205"><ele>482.0</ele><time>2026-03-15T10:24:11.718Z</time></trkpt><trkpt lat="41.2439033" lon="14.8810017"><ele>482.0</ele><time>2026-03-15T10:24:12.718Z</time></trkpt><trkpt lat="41.243945" lon="14.8808"><ele>482.0</ele><time>2026-03-15T10:24:13.718Z</time></trkpt><trkpt lat="41.2439667" lon="14.8806067"><ele>483.40000000000003</ele><time>2026-03-15T10:24:14.717Z</time></trkpt><trkpt lat="41.243975" lon="14.8804367"><ele>484.80000000000007</ele><time>2026-03-15T10:24:15.718Z</time></trkpt><trkpt lat="41.2439817" lon="14.8802983"><ele>486.2</ele><time>2026-03-15T10:24:16.718Z</time></trkpt><trkpt lat="41.243985" lon="14.880195"><ele>487.6</ele><time>2026-03-15T10:24:17.718Z</time></trkpt><trkpt lat="41.2439983" lon="14.8800617"><ele>489.0</ele><time>2026-03-15T10:24:19.717Z</time></trkpt><trkpt lat="41.2440883" lon="14.88011"><ele>489.0</ele><time>2026-03-15T10:24:22.718Z</time></trkpt><trkpt lat="41.2441483" lon="14.88021"><ele>489.0</ele><time>2026-03-15T10:24:23.717Z</time></trkpt><trkpt lat="41.24424" lon="14.8803683"><ele>489.0</ele><time>2026-03-15T10:24:24.718Z</time></trkpt><trkpt lat="41.2443483" lon="14.88056"><ele>489.0</ele><time>2026-03-15T10:24:25.717Z</time></trkpt><trkpt lat="41.2444767" lon="14.8807717"><ele>487.0</ele><time>2026-03-15T10:24:26.718Z</time></trkpt><trkpt lat="41.2446183" lon="14.8809783"><ele>485.0</ele><time>2026-03-15T10:24:27.718Z</time></trkpt><trkpt lat="41.2447583" lon="14.8811517"><ele>483.0</ele><time>2026-03-15T10:24:28.718Z</time></trkpt><trkpt lat="41.24487" lon="14.8813067"><ele>482.0</ele><time>2026-03-15T10:24:29.718Z</time></trkpt><trkpt lat="41.24497" lon="14.8814483"><ele>481.0</ele><time>2026-03-15T10:24:30.718Z</time></trkpt><trkpt lat="41.245065" lon="14.8815883"><ele>480.0</ele><time>2026-03-15T10:24:31.717Z</time></trkpt><trkpt lat="41.24518" lon="14.8817383"><ele>479.0</ele><time>2026-03-15T10:24:32.718Z</time></trkpt><trkpt lat="41.2453017" lon="14.8819083"><ele>477.0</ele><time>2026-03-15T10:24:33.718Z</time></trkpt><trkpt lat="41.245425" lon="14.8820783"><ele>475.0</ele><time>2026-03-15T10:24:34.718Z</time></trkpt><trkpt lat="41.2455483" lon="14.882235"><ele>473.0</ele><time>2026-03-15T10:24:35.718Z</time></trkpt><trkpt lat="41.24567" lon="14.8823833"><ele>472.75</ele><time>2026-03-15T10:24:36.718Z</time></trkpt><trkpt lat="41.24577" lon="14.8825333"><ele>472.5</ele><time>2026-03-15T10:24:37.718Z</time></trkpt><trkpt lat="41.2458617" lon="14.8826633"><ele>472.25</ele><time>2026-03-15T10:24:38.718Z</time></trkpt><trkpt lat="41.24594" lon="14.8827883"><ele>472.0</ele><time>2026-03-15T10:24:39.718Z</time></trkpt><trkpt lat="41.24603" lon="14.8829367"><ele>470.25</ele><time>2026-03-15T10:24:40.717Z</time></trkpt><trkpt lat="41.2461183" lon="14.8830783"><ele>468.5</ele><time>2026-03-15T10:24:41.718Z</time></trkpt><trkpt lat="41.246215" lon="14.883225"><ele>466.75</ele><time>2026-03-15T10:24:42.718Z</time></trkpt><trkpt lat="41.2462983" lon="14.8833517"><ele>465.0</ele><time>2026-03-15T10:24:43.718Z</time></trkpt><trkpt lat="41.2463833" lon="14.8834867"><ele>462.25</ele><time>2026-03-15T10:24:44.718Z</time></trkpt><trkpt lat="41.246475" lon="14.8836233"><ele>459.5</ele><time>2026-03-15T10:24:45.718Z</time></trkpt><trkpt lat="41.24657" lon="14.8837533"><ele>456.75</ele><time>2026-03-15T10:24:46.718Z</time></trkpt><trkpt lat="41.2466467" lon="14.88388"><ele>454.0</ele><time>2026-03-15T10:24:47.718Z</time></trkpt><trkpt lat="41.2467317" lon="14.88402"><ele>454.0</ele><time>2026-03-15T10:24:48.718Z</time></trkpt><trkpt lat="41.2468217" lon="14.884175"><ele>454.0</ele><time>2026-03-15T10:24:49.718Z</time></trkpt><trkpt lat="41.2469133" lon="14.8843233"><ele>454.0</ele><time>2026-03-15T10:24:50.718Z</time></trkpt><trkpt lat="41.2470117" lon="14.8844633"><ele>454.0</ele><time>2026-03-15T10:24:51.718Z</time></trkpt><trkpt lat="41.247125" lon="14.8846183"><ele>452.25</ele><time>2026-03-15T10:24:52.717Z</time></trkpt><trkpt lat="41.2472283" lon="14.884735"><ele>450.5</ele><time>2026-03-15T10:24:53.718Z</time></trkpt><trkpt lat="41.247325" lon="14.884855"><ele>448.75</ele><time>2026-03-15T10:24:54.717Z</time></trkpt><trkpt lat="41.247425" lon="14.884985"><ele>447.0</ele><time>2026-03-15T10:24:55.717Z</time></trkpt><trkpt lat="41.24751" lon="14.8851033"><ele>444.5</ele><time>2026-03-15T10:24:56.718Z</time></trkpt><trkpt lat="41.2476017" lon="14.8852267"><ele>442.0</ele><time>2026-03-15T10:24:57.718Z</time></trkpt><trkpt lat="41.2476933" lon="14.8853383"><ele>439.5</ele><time>2026-03-15T10:24:58.718Z</time></trkpt><trkpt lat="41.2477733" lon="14.88545"><ele>437.0</ele><time>2026-03-15T10:24:59.718Z</time></trkpt><trkpt lat="41.2478683" lon="14.88556"><ele>437.0</ele><time>2026-03-15T10:25:00.718Z</time></trkpt><trkpt lat="41.2479467" lon="14.8856583"><ele>437.00000000000006</ele><time>2026-03-15T10:25:01.717Z</time></trkpt><trkpt lat="41.24802" lon="14.885745"><ele>437.00000000000006</ele><time>2026-03-15T10:25:02.718Z</time></trkpt><trkpt lat="41.24808" lon="14.8858317"><ele>437.0</ele><time>2026-03-15T10:25:03.718Z</time></trkpt><trkpt lat="41.2481217" lon="14.8859183"><ele>437.0</ele><time>2026-03-15T10:25:04.718Z</time></trkpt><trkpt lat="41.2481383" lon="14.8860233"><ele>435.40000000000003</ele><time>2026-03-15T10:25:05.718Z</time></trkpt><trkpt lat="41.248135" lon="14.8861283"><ele>433.80000000000007</ele><time>2026-03-15T10:25:06.718Z</time></trkpt><trkpt lat="41.248105" lon="14.886255"><ele>432.2</ele><time>2026-03-15T10:25:07.718Z</time></trkpt><trkpt lat="41.248045" lon="14.8863883"><ele>430.6</ele><time>2026-03-15T10:25:08.718Z</time></trkpt><trkpt lat="41.2479833" lon="14.8865267"><ele>429.0</ele><time>2026-03-15T10:25:09.718Z</time></trkpt><trkpt lat="41.247925" lon="14.886675"><ele>427.4</ele><time>2026-03-15T10:25:10.718Z</time></trkpt><trkpt lat="41.24787" lon="14.88682"><ele>425.79999999999995</ele><time>2026-03-15T10:25:11.718Z</time></trkpt><trkpt lat="41.2478083" lon="14.8869583"><ele>424.20000000000005</ele><time>2026-03-15T10:25:12.718Z</time></trkpt><trkpt lat="41.2477567" lon="14.8870833"><ele>422.6</ele><time>2026-03-15T10:25:13.718Z</time></trkpt><trkpt lat="41.24771" lon="14.8871917"><ele>421.0</ele><time>2026-03-15T10:25:14.718Z</time></trkpt><trkpt lat="41.2476633" lon="14.8872883"><ele>421.00000000000006</ele><time>2026-03-15T10:25:15.718Z</time></trkpt><trkpt lat="41.2476183" lon="14.8873683"><ele>421.0</ele><time>2026-03-15T10:25:16.718Z</time></trkpt><trkpt lat="41.24757" lon="14.8874533"><ele>421.0</ele><time>2026-03-15T10:25:17.718Z</time></trkpt><trkpt lat="41.24752" lon="14.887525"><ele>421.0</ele><time>2026-03-15T10:25:18.717Z</time></trkpt><trkpt lat="41.2474633" lon="14.8875817"><ele>421.00000000000006</ele><time>2026-03-15T10:25:19.717Z</time></trkpt><trkpt lat="41.247395" lon="14.8876117"><ele>421.0</ele><time>2026-03-15T10:25:20.717Z</time></trkpt><trkpt lat="41.2472967" lon="14.8876383"><ele>417.75</ele><time>2026-03-15T10:25:21.717Z</time></trkpt><trkpt lat="41.247175" lon="14.887655"><ele>414.5</ele><time>2026-03-15T10:25:22.718Z</time></trkpt><trkpt lat="41.24705" lon="14.8876767"><ele>411.25</ele><time>2026-03-15T10:25:23.718Z</time></trkpt><trkpt lat="41.2469333" lon="14.887715"><ele>408.0</ele><time>2026-03-15T10:25:24.718Z</time></trkpt><trkpt lat="41.2468283" lon="14.8877567"><ele>408.0</ele><time>2026-03-15T10:25:25.718Z</time></trkpt><trkpt lat="41.246735" lon="14.88779"><ele>408.0</ele><time>2026-03-15T10:25:26.717Z</time></trkpt><trkpt lat="41.2466633" lon="14.8878233"><ele>408.0</ele><time>2026-03-15T10:25:27.718Z</time></trkpt><trkpt lat="41.2465767" lon="14.8878733"><ele>408.0</ele><time>2026-03-15T10:25:29.718Z</time></trkpt><trkpt lat="41.2464733" lon="14.8878867"><ele>408.0</ele><time>2026-03-15T10:25:32.718Z</time></trkpt><trkpt lat="41.24637" lon="14.8878933"><ele>408.0</ele><time>2026-03-15T10:25:34.717Z</time></trkpt><trkpt lat="41.2462833" lon="14.8878933"><ele>408.0</ele><time>2026-03-15T10:25:36.718Z</time></trkpt><trkpt lat="41.24622" lon="14.8878817"><ele>408.0</ele><time>2026-03-15T10:25:38.718Z</time></trkpt><trkpt lat="41.2463233" lon="14.8879133"><ele>408.0</ele><time>2026-03-15T10:30:29.718Z</time></trkpt><trkpt lat="41.2463867" lon="14.8879283"><ele>408.0</ele><time>2026-03-15T10:30:30.717Z</time></trkpt><trkpt lat="41.2465" lon="14.887915"><ele>408.0</ele><time>2026-03-15T10:30:32.717Z</time></trkpt><trkpt lat="41.2465683" lon="14.8878817"><ele>408.0</ele><time>2026-03-15T10:30:34.717Z</time></trkpt><trkpt lat="41.24669" lon="14.88782"><ele>408.0</ele><time>2026-03-15T10:30:37.718Z</time></trkpt><trkpt lat="41.2467733" lon="14.8877733"><ele>408.0</ele><time>2026-03-15T10:30:38.718Z</time></trkpt><trkpt lat="41.2468783" lon="14.8877283"><ele>408.0</ele><time>2026-03-15T10:30:39.717Z</time></trkpt><trkpt lat="41.2470217" lon="14.8876833"><ele>408.0</ele><time>2026-03-15T10:30:40.717Z</time></trkpt><trkpt lat="41.24717" lon="14.88764"><ele>408.0</ele><time>2026-03-15T10:30:41.718Z</time></trkpt><trkpt lat="41.247305" lon="14.8876133"><ele>408.0</ele><time>2026-03-15T10:30:42.718Z</time></trkpt><trkpt lat="41.247405" lon="14.8876083"><ele>408.0</ele><time>2026-03-15T10:30:43.718Z</time></trkpt><trkpt lat="41.2475033" lon="14.8875867"><ele>411.25</ele><time>2026-03-15T10:30:45.718Z</time></trkpt><trkpt lat="41.2475983" lon="14.8874767"><ele>414.5</ele><time>2026-03-15T10:30:47.717Z</time></trkpt><trkpt lat="41.24766" lon="14.8873733"><ele>417.75</ele><time>2026-03-15T10:30:48.718Z</time></trkpt><trkpt lat="41.2477333" lon="14.8872267"><ele>421.0</ele><time>2026-03-15T10:30:49.717Z</time></trkpt><trkpt lat="41.2478083" lon="14.8870183"><ele>421.0</ele><time>2026-03-15T10:30:50.718Z</time></trkpt><trkpt lat="41.247885" lon="14.8868117"><ele>421.0</ele><time>2026-03-15T10:30:51.718Z</time></trkpt><trkpt lat="41.2479383" lon="14.8866267"><ele>421.0</ele><time>2026-03-15T10:30:52.718Z</time></trkpt><trkpt lat="41.2479917" lon="14.886465"><ele>421.4</ele><time>2026-03-15T10:30:53.718Z</time></trkpt><trkpt lat="41.2480367" lon="14.8863283"><ele>421.8</ele><time>2026-03-15T10:30:54.718Z</time></trkpt><trkpt lat="41.2480867" lon="14.8861883"><ele>422.2</ele><time>2026-03-15T10:30:55.718Z</time></trkpt><trkpt lat="41.2481283" lon="14.8860717"><ele>422.59999999999997</ele><time>2026-03-15T10:30:56.718Z</time></trkpt><trkpt lat="41.2481667" lon="14.8859767"><ele>423.0</ele><time>2026-03-15T10:30:57.718Z</time></trkpt><trkpt lat="41.248215" lon="14.8858983"><ele>424.5</ele><time>2026-03-15T10:30:58.717Z</time></trkpt><trkpt lat="41.2482833" lon="14.8858267"><ele>426.0</ele><time>2026-03-15T10:30:59.718Z</time></trkpt><trkpt lat="41.248355" lon="14.88574"><ele>427.5</ele><time>2026-03-15T10:31:00.718Z</time></trkpt><trkpt lat="41.2484683" lon="14.885615"><ele>429.0</ele><time>2026-03-15T10:31:01.717Z</time></trkpt><trkpt lat="41.2485833" lon="14.8854633"><ele>429.0</ele><time>2026-03-15T10:31:02.718Z</time></trkpt><trkpt lat="41.2486683" lon="14.8853067"><ele>429.0</ele><time>2026-03-15T10:31:03.718Z</time></trkpt><trkpt lat="41.248735" lon="14.8851283"><ele>429.0</ele><time>2026-03-15T10:31:04.717Z</time></trkpt><trkpt lat="41.2487733" lon="14.8849367"><ele>429.0</ele><time>2026-03-15T10:31:05.718Z</time></trkpt><trkpt lat="41.2488017" lon="14.8847367"><ele>430.5</ele><time>2026-03-15T10:31:06.718Z</time></trkpt><trkpt lat="41.2488183" lon="14.8845667"><ele>432.0</ele><time>2026-03-15T10:31:07.718Z</time></trkpt><trkpt lat="41.24885" lon="14.8844233"><ele>433.5</ele><time>2026-03-15T10:31:08.717Z</time></trkpt><trkpt lat="41.2489" lon="14.88428"><ele>435.0</ele><time>2026-03-15T10:31:09.718Z</time></trkpt><trkpt lat="41.2489433" lon="14.8841467"><ele>434.0</ele><time>2026-03-15T10:31:10.718Z</time></trkpt><trkpt lat="41.2489917" lon="14.8840117"><ele>433.0</ele><time>2026-03-15T10:31:11.718Z</time></trkpt><trkpt lat="41.24903" lon="14.883865"><ele>432.0</ele><time>2026-03-15T10:31:12.718Z</time></trkpt><trkpt lat="41.2490567" lon="14.8837033"><ele>431.0</ele><time>2026-03-15T10:31:13.718Z</time></trkpt><trkpt lat="41.2490767" lon="14.8835517"><ele>431.0</ele><time>2026-03-15T10:31:14.718Z</time></trkpt><trkpt lat="41.249095" lon="14.8834117"><ele>431.0</ele><time>2026-03-15T10:31:15.718Z</time></trkpt><trkpt lat="41.2491117" lon="14.883295"><ele>431.0</ele><time>2026-03-15T10:31:16.718Z</time></trkpt><trkpt lat="41.249145" lon="14.88318"><ele>431.0</ele><time>2026-03-15T10:31:17.718Z</time></trkpt><trkpt lat="41.2491917" lon="14.8830683"><ele>431.0</ele><time>2026-03-15T10:31:18.718Z</time></trkpt><trkpt lat="41.2492767" lon="14.8829517"><ele>431.0</ele><time>2026-03-15T10:31:19.718Z</time></trkpt><trkpt lat="41.24938" lon="14.882825"><ele>431.0</ele><time>2026-03-15T10:31:20.717Z</time></trkpt><trkpt lat="41.249475" lon="14.8827"><ele>431.0</ele><time>2026-03-15T10:31:21.718Z</time></trkpt><trkpt lat="41.24956" lon="14.882575"><ele>431.0</ele><time>2026-03-15T10:31:22.718Z</time></trkpt><trkpt lat="41.2496383" lon="14.8824633"><ele>430.25</ele><time>2026-03-15T10:31:23.717Z</time></trkpt><trkpt lat="41.2497083" lon="14.8823517"><ele>429.5</ele><time>2026-03-15T10:31:24.718Z</time></trkpt><trkpt lat="41.2497767" lon="14.88223"><ele>428.75</ele><time>2026-03-15T10:31:25.718Z</time></trkpt><trkpt lat="41.2498533" lon="14.8820967"><ele>428.0</ele><time>2026-03-15T10:31:26.718Z</time></trkpt><trkpt lat="41.24992" lon="14.8819783"><ele>427.66666666666663</ele><time>2026-03-15T10:31:27.718Z</time></trkpt><trkpt lat="41.2499817" lon="14.8818683"><ele>427.3333333333333</ele><time>2026-03-15T10:31:28.718Z</time></trkpt><trkpt lat="41.2500267" lon="14.88177"><ele>427.0</ele><time>2026-03-15T10:31:29.718Z</time></trkpt><trkpt lat="41.2500633" lon="14.8816833"><ele>426.66666666666663</ele><time>2026-03-15T10:31:30.718Z</time></trkpt><trkpt lat="41.2501033" lon="14.8815633"><ele>426.3333333333333</ele><time>2026-03-15T10:31:32.718Z</time></trkpt><trkpt lat="41.2501733" lon="14.88155"><ele>426.0</ele><time>2026-03-15T10:31:35.718Z</time></trkpt><trkpt lat="41.2502283" lon="14.8816383"><ele>426.0</ele><time>2026-03-15T10:31:36.718Z</time></trkpt><trkpt lat="41.2503033" lon="14.88175"><ele>426.0</ele><time>2026-03-15T10:31:37.717Z</time></trkpt><trkpt lat="41.2503983" lon="14.881885"><ele>426.0</ele><time>2026-03-15T10:31:38.718Z</time></trkpt><trkpt lat="41.2505233" lon="14.882035"><ele>426.0</ele><time>2026-03-15T10:31:39.718Z</time></trkpt><trkpt lat="41.25065" lon="14.88217"><ele>422.5</ele><time>2026-03-15T10:31:40.718Z</time></trkpt><trkpt lat="41.25078" lon="14.8822767"><ele>419.0</ele><time>2026-03-15T10:31:41.717Z</time></trkpt><trkpt lat="41.25089" lon="14.882375"><ele>415.5</ele><time>2026-03-15T10:31:42.718Z</time></trkpt><trkpt lat="41.2510033" lon="14.8824733"><ele>412.0</ele><time>2026-03-15T10:31:43.718Z</time></trkpt><trkpt lat="41.2511217" lon="14.8825617"><ele>411.6</ele><time>2026-03-15T10:31:44.717Z</time></trkpt><trkpt lat="41.251235" lon="14.88266"><ele>411.20000000000005</ele><time>2026-03-15T10:31:45.717Z</time></trkpt><trkpt lat="41.251345" lon="14.8827233"><ele>410.8</ele><time>2026-03-15T10:31:46.718Z</time></trkpt><trkpt lat="41.2514367" lon="14.8827683"><ele>410.4</ele><time>2026-03-15T10:31:47.718Z</time></trkpt><trkpt lat="41.25151" lon="14.8828017"><ele>410.0</ele><time>2026-03-15T10:31:48.718Z</time></trkpt><trkpt lat="41.25157" lon="14.8828283"><ele>408.99999999999994</ele><time>2026-03-15T10:31:49.718Z</time></trkpt><trkpt lat="41.2516367" lon="14.882865"><ele>408.0</ele><time>2026-03-15T10:31:51.717Z</time></trkpt><trkpt lat="41.2516617" lon="14.8829517"><ele>407.0</ele><time>2026-03-15T10:31:54.718Z</time></trkpt><trkpt lat="41.25175" lon="14.88301"><ele>406.0</ele><time>2026-03-15T10:31:56.718Z</time></trkpt><trkpt lat="41.25181" lon="14.8830383"><ele>404.99999999999994</ele><time>2026-03-15T10:31:57.718Z</time></trkpt><trkpt lat="41.25189" lon="14.8830617"><ele>404.0</ele><time>2026-03-15T10:31:58.717Z</time></trkpt><trkpt lat="41.2519833" lon="14.8830983"><ele>403.99999999999994</ele><time>2026-03-15T10:31:59.718Z</time></trkpt><trkpt lat="41.252075" lon="14.8831267"><ele>404.0</ele><time>2026-03-15T10:32:00.718Z</time></trkpt><trkpt lat="41.2521533" lon="14.8831533"><ele>404.0</ele><time>2026-03-15T10:32:01.718Z</time></trkpt><trkpt lat="41.252215" lon="14.8831867"><ele>404.0</ele><time>2026-03-15T10:32:02.718Z</time></trkpt><trkpt lat="41.252315" lon="14.8832333"><ele>403.99999999999994</ele><time>2026-03-15T10:32:04.718Z</time></trkpt><trkpt lat="41.2523917" lon="14.88325"><ele>404.0</ele><time>2026-03-15T10:32:06.718Z</time></trkpt><trkpt lat="41.2525033" lon="14.883215"><ele>402.0</ele><time>2026-03-15T10:32:32.718Z</time></trkpt><trkpt lat="41.2525883" lon="14.8831833"><ele>400.0</ele><time>2026-03-15T10:32:34.718Z</time></trkpt><trkpt lat="41.2526567" lon="14.883175"><ele>398.0</ele><time>2026-03-15T10:32:35.718Z</time></trkpt><trkpt lat="41.2527517" lon="14.88318"><ele>396.0</ele><time>2026-03-15T10:32:36.718Z</time></trkpt><trkpt lat="41.252875" lon="14.8832167"><ele>394.0</ele><time>2026-03-15T10:32:37.718Z</time></trkpt><trkpt lat="41.2530467" lon="14.8832983"><ele>390.33333333333337</ele><time>2026-03-15T10:32:38.718Z</time></trkpt><trkpt lat="41.2532167" lon="14.883375"><ele>386.6666666666667</ele><time>2026-03-15T10:32:39.718Z</time></trkpt><trkpt lat="41.2533533" lon="14.8834417"><ele>383.0</ele><time>2026-03-15T10:32:40.718Z</time></trkpt><trkpt lat="41.2534817" lon="14.8834817"><ele>382.5</ele><time>2026-03-15T10:32:41.718Z</time></trkpt><trkpt lat="41.2535783" lon="14.883505"><ele>382.0</ele><time>2026-03-15T10:32:42.718Z</time></trkpt><trkpt lat="41.2536567" lon="14.883525"><ele>381.5</ele><time>2026-03-15T10:32:43.718Z</time></trkpt><trkpt lat="41.2537233" lon="14.88355"><ele>381.0</ele><time>2026-03-15T10:32:44.718Z</time></trkpt><trkpt lat="41.2537933" lon="14.8835983"><ele>380.5</ele><time>2026-03-15T10:32:45.718Z</time></trkpt><trkpt lat="41.2538683" lon="14.8836883"><ele>380.0</ele><time>2026-03-15T10:32:46.718Z</time></trkpt><trkpt lat="41.253965" lon="14.8838"><ele>378.0</ele><time>2026-03-15T10:32:47.718Z</time></trkpt><trkpt lat="41.2540633" lon="14.88394"><ele>376.0</ele><time>2026-03-15T10:32:48.718Z</time></trkpt><trkpt lat="41.2541383" lon="14.8841117"><ele>374.0</ele><time>2026-03-15T10:32:49.718Z</time></trkpt><trkpt lat="41.2542183" lon="14.884255"><ele>372.0</ele><time>2026-03-15T10:32:50.718Z</time></trkpt><trkpt lat="41.2542967" lon="14.8843917"><ele>371.0</ele><time>2026-03-15T10:32:51.718Z</time></trkpt><trkpt lat="41.2543717" lon="14.8845083"><ele>370.0</ele><time>2026-03-15T10:32:52.717Z</time></trkpt><trkpt lat="41.2544633" lon="14.8846067"><ele>369.0</ele><time>2026-03-15T10:32:53.717Z</time></trkpt><trkpt lat="41.2545533" lon="14.8847017"><ele>368.0</ele><time>2026-03-15T10:32:54.718Z</time></trkpt><trkpt lat="41.2546333" lon="14.8847917"><ele>368.0</ele><time>2026-03-15T10:32:55.717Z</time></trkpt><trkpt lat="41.2547067" lon="14.8848767"><ele>368.0</ele><time>2026-03-15T10:32:56.718Z</time></trkpt><trkpt lat="41.2547617" lon="14.88496"><ele>368.0</ele><time>2026-03-15T10:32:57.717Z</time></trkpt><trkpt lat="41.25482" lon="14.88502"><ele>368.0</ele><time>2026-03-15T10:32:58.718Z</time></trkpt><trkpt lat="41.2548783" lon="14.8850617"><ele>368.0</ele><time>2026-03-15T10:32:59.717Z</time></trkpt><trkpt lat="41.2549867" lon="14.88514"><ele>368.0</ele><time>2026-03-15T10:33:01.718Z</time></trkpt><trkpt lat="41.255045" lon="14.88519"><ele>365.0</ele><time>2026-03-15T10:33:02.718Z</time></trkpt><trkpt lat="41.255105" lon="14.8852567"><ele>362.0</ele><time>2026-03-15T10:33:03.718Z</time></trkpt><trkpt lat="41.255165" lon="14.8853283"><ele>359.0</ele><time>2026-03-15T10:33:04.718Z</time></trkpt><trkpt lat="41.2552133" lon="14.8854417"><ele>356.0</ele><time>2026-03-15T10:33:06.717Z</time></trkpt><trkpt lat="41.2551733" lon="14.8855467"><ele>353.0</ele><time>2026-03-15T10:33:09.718Z</time></trkpt><trkpt lat="41.2551033" lon="14.8856367"><ele>350.0</ele><time>2026-03-15T10:33:11.718Z</time></trkpt><trkpt lat="41.2550683" lon="14.8857167"><ele>350.0</ele><time>2026-03-15T10:33:12.718Z</time></trkpt><trkpt lat="41.2550483" lon="14.8857983"><ele>350.0</ele><time>2026-03-15T10:33:13.718Z</time></trkpt><trkpt lat="41.255045" lon="14.8858933"><ele>350.0</ele><time>2026-03-15T10:33:14.718Z</time></trkpt><trkpt lat="41.2550633" lon="14.8860083"><ele>350.0</ele><time>2026-03-15T10:33:15.718Z</time></trkpt><trkpt lat="41.2550933" lon="14.8861317"><ele>350.0</ele><time>2026-03-15T10:33:16.718Z</time></trkpt><trkpt lat="41.2551333" lon="14.8862633"><ele>350.0</ele><time>2026-03-15T10:33:17.718Z</time></trkpt><trkpt lat="41.25517" lon="14.8863883"><ele>349.4</ele><time>2026-03-15T10:33:18.718Z</time></trkpt><trkpt lat="41.2551967" lon="14.8865133"><ele>348.8</ele><time>2026-03-15T10:33:19.717Z</time></trkpt><trkpt lat="41.2552233" lon="14.8866117"><ele>348.20000000000005</ele><time>2026-03-15T10:33:20.718Z</time></trkpt><trkpt lat="41.2552583" lon="14.8867583"><ele>347.6</ele><time>2026-03-15T10:33:21.718Z</time></trkpt><trkpt lat="41.255295" lon="14.8869183"><ele>347.0</ele><time>2026-03-15T10:33:22.717Z</time></trkpt><trkpt lat="41.2553133" lon="14.887055"><ele>345.8</ele><time>2026-03-15T10:33:23.718Z</time></trkpt><trkpt lat="41.2553217" lon="14.8871817"><ele>344.6</ele><time>2026-03-15T10:33:24.718Z</time></trkpt><trkpt lat="41.25532" lon="14.8873"><ele>343.40000000000003</ele><time>2026-03-15T10:33:25.718Z</time></trkpt><trkpt lat="41.2553117" lon="14.8874367"><ele>342.20000000000005</ele><time>2026-03-15T10:33:26.718Z</time></trkpt><trkpt lat="41.255295" lon="14.88755"><ele>341.0</ele><time>2026-03-15T10:33:27.718Z</time></trkpt><trkpt lat="41.2552767" lon="14.8876667"><ele>339.8</ele><time>2026-03-15T10:33:28.718Z</time></trkpt><trkpt lat="41.255255" lon="14.8878017"><ele>338.6</ele><time>2026-03-15T10:33:29.718Z</time></trkpt><trkpt lat="41.255235" lon="14.8879417"><ele>337.4</ele><time>2026-03-15T10:33:30.717Z</time></trkpt><trkpt lat="41.2552117" lon="14.8880683"><ele>336.2</ele><time>2026-03-15T10:33:31.718Z</time></trkpt><trkpt lat="41.2551867" lon="14.888195"><ele>335.0</ele><time>2026-03-15T10:33:32.718Z</time></trkpt><trkpt lat="41.25517" lon="14.8883383"><ele>334.6</ele><time>2026-03-15T10:33:33.717Z</time></trkpt><trkpt lat="41.2551417" lon="14.8884783"><ele>334.2</ele><time>2026-03-15T10:33:34.718Z</time></trkpt><trkpt lat="41.255115" lon="14.8886083"><ele>333.79999999999995</ele><time>2026-03-15T10:33:35.718Z</time></trkpt><trkpt lat="41.2551033" lon="14.8887367"><ele>333.4</ele><time>2026-03-15T10:33:36.717Z</time></trkpt><trkpt lat="41.2550917" lon="14.888875"><ele>333.0</ele><time>2026-03-15T10:33:37.718Z</time></trkpt><trkpt lat="41.2550867" lon="14.8890083"><ele>333.0</ele><time>2026-03-15T10:33:38.718Z</time></trkpt><trkpt lat="41.2550917" lon="14.889165"><ele>333.0</ele><time>2026-03-15T10:33:39.718Z</time></trkpt><trkpt lat="41.2550933" lon="14.8893017"><ele>333.0</ele><time>2026-03-15T10:33:40.718Z</time></trkpt><trkpt lat="41.2551033" lon="14.8894383"><ele>333.0</ele><time>2026-03-15T10:33:41.718Z</time></trkpt><trkpt lat="41.2551167" lon="14.8895467"><ele>333.0</ele><time>2026-03-15T10:33:42.718Z</time></trkpt><trkpt lat="41.2551383" lon="14.8896517"><ele>332.5</ele><time>2026-03-15T10:33:43.717Z</time></trkpt><trkpt lat="41.25516" lon="14.8897533"><ele>332.0</ele><time>2026-03-15T10:33:44.718Z</time></trkpt><trkpt lat="41.2551817" lon="14.8898883"><ele>331.5</ele><time>2026-03-15T10:33:46.718Z</time></trkpt><trkpt lat="41.2551933" lon="14.8900117"><ele>331.0</ele><time>2026-03-15T10:33:49.718Z</time></trkpt><trkpt lat="41.255195" lon="14.8901083"><ele>330.5</ele><time>2026-03-15T10:33:51.718Z</time></trkpt><trkpt lat="41.2551867" lon="14.8902383"><ele>330.0</ele><time>2026-03-15T10:33:53.718Z</time></trkpt><trkpt lat="41.2551717" lon="14.8903367"><ele>328.6</ele><time>2026-03-15T10:33:54.718Z</time></trkpt><trkpt lat="41.255145" lon="14.8904767"><ele>327.2</ele><time>2026-03-15T10:33:56.718Z</time></trkpt><trkpt lat="41.255095" lon="14.8906"><ele>325.79999999999995</ele><time>2026-03-15T10:33:58.718Z</time></trkpt><trkpt lat="41.2550567" lon="14.89069"><ele>324.4</ele><time>2026-03-15T10:34:00.718Z</time></trkpt><trkpt lat="41.2550783" lon="14.8907767"><ele>323.0</ele><time>2026-03-15T10:34:08.718Z</time></trkpt><trkpt lat="41.2551167" lon="14.8908983"><ele>322.2</ele><time>2026-03-15T10:34:10.718Z</time></trkpt><trkpt lat="41.2551517" lon="14.891025"><ele>321.4</ele><time>2026-03-15T10:34:12.718Z</time></trkpt><trkpt lat="41.2552083" lon="14.8911383"><ele>320.59999999999997</ele><time>2026-03-15T10:34:27.718Z</time></trkpt><trkpt lat="41.2552917" lon="14.8912583"><ele>319.79999999999995</ele><time>2026-03-15T10:34:29.718Z</time></trkpt><trkpt lat="41.2553667" lon="14.8913567"><ele>319.0</ele><time>2026-03-15T10:34:30.718Z</time></trkpt><trkpt lat="41.2554667" lon="14.8914583"><ele>319.0</ele><time>2026-03-15T10:34:31.718Z</time></trkpt><trkpt lat="41.2555967" lon="14.8915483"><ele>319.0</ele><time>2026-03-15T10:34:32.718Z</time></trkpt><trkpt lat="41.255765" lon="14.89163"><ele>319.0</ele><time>2026-03-15T10:34:33.718Z</time></trkpt><trkpt lat="41.25593" lon="14.8917167"><ele>314.66666666666663</ele><time>2026-03-15T10:34:34.718Z</time></trkpt><trkpt lat="41.25608" lon="14.891805"><ele>310.3333333333333</ele><time>2026-03-15T10:34:35.718Z</time></trkpt><trkpt lat="41.256225" lon="14.8918883"><ele>306.0</ele><time>2026-03-15T10:34:36.718Z</time></trkpt><trkpt lat="41.2563567" lon="14.8919433"><ele>303.25</ele><time>2026-03-15T10:34:37.718Z</time></trkpt><trkpt lat="41.256485" lon="14.8920167"><ele>300.5</ele><time>2026-03-15T10:34:38.718Z</time></trkpt><trkpt lat="41.2566083" lon="14.8921083"><ele>297.75</ele><time>2026-03-15T10:34:39.718Z</time></trkpt><trkpt lat="41.2567367" lon="14.892195"><ele>295.0</ele><time>2026-03-15T10:34:40.718Z</time></trkpt><trkpt lat="41.2568567" lon="14.8922667"><ele>295.0</ele><time>2026-03-15T10:34:41.717Z</time></trkpt><trkpt lat="41.2569733" lon="14.8923417"><ele>295.0</ele><time>2026-03-15T10:34:42.718Z</time></trkpt><trkpt lat="41.2570833" lon="14.8924233"><ele>295.0</ele><time>2026-03-15T10:34:43.717Z</time></trkpt><trkpt lat="41.257185" lon="14.89251"><ele>295.0</ele><time>2026-03-15T10:34:44.718Z</time></trkpt><trkpt lat="41.25728" lon="14.8926067"><ele>291.0</ele><time>2026-03-15T10:34:45.718Z</time></trkpt><trkpt lat="41.2573567" lon="14.89271"><ele>287.0</ele><time>2026-03-15T10:34:46.718Z</time></trkpt><trkpt lat="41.2574167" lon="14.8928267"><ele>283.0</ele><time>2026-03-15T10:34:47.718Z</time></trkpt><trkpt lat="41.257465" lon="14.8929683"><ele>279.0</ele><time>2026-03-15T10:34:48.718Z</time></trkpt><trkpt lat="41.2575" lon="14.8931483"><ele>279.0</ele><time>2026-03-15T10:34:49.717Z</time></trkpt><trkpt lat="41.2575367" lon="14.89334"><ele>279.0</ele><time>2026-03-15T10:34:50.717Z</time></trkpt><trkpt lat="41.257575" lon="14.893525"><ele>279.0</ele><time>2026-03-15T10:34:51.718Z</time></trkpt><trkpt lat="41.257605" lon="14.8936967"><ele>279.0</ele><time>2026-03-15T10:34:52.718Z</time></trkpt><trkpt lat="41.2576383" lon="14.8938533"><ele>278.59999999999997</ele><time>2026-03-15T10:34:53.718Z</time></trkpt><trkpt lat="41.25767" lon="14.8939833"><ele>278.2</ele><time>2026-03-15T10:34:54.718Z</time></trkpt><trkpt lat="41.2577183" lon="14.8941017"><ele>277.79999999999995</ele><time>2026-03-15T10:34:55.718Z</time></trkpt><trkpt lat="41.2577883" lon="14.8942033"><ele>277.4</ele><time>2026-03-15T10:34:56.718Z</time></trkpt><trkpt lat="41.2578733" lon="14.894305"><ele>277.0</ele><time>2026-03-15T10:34:57.717Z</time></trkpt><trkpt lat="41.257955" lon="14.8943933"><ele>276.66666666666663</ele><time>2026-03-15T10:34:58.718Z</time></trkpt><trkpt lat="41.2580267" lon="14.8944883"><ele>276.3333333333333</ele><time>2026-03-15T10:34:59.718Z</time></trkpt><trkpt lat="41.2580867" lon="14.89457"><ele>276.0</ele><time>2026-03-15T10:35:00.718Z</time></trkpt><trkpt lat="41.2581417" lon="14.894635"><ele>275.6666666666667</ele><time>2026-03-15T10:35:01.718Z</time></trkpt><trkpt lat="41.25819" lon="14.894695"><ele>275.33333333333337</ele><time>2026-03-15T10:35:02.717Z</time></trkpt><trkpt lat="41.258255" lon="14.8947983"><ele>275.0</ele><time>2026-03-15T10:35:04.718Z</time></trkpt><trkpt lat="41.2583417" lon="14.8948883"><ele>272.6</ele><time>2026-03-15T10:35:14.718Z</time></trkpt><trkpt lat="41.2584333" lon="14.894935"><ele>270.2</ele><time>2026-03-15T10:35:16.718Z</time></trkpt><trkpt lat="41.25852" lon="14.8950083"><ele>267.8</ele><time>2026-03-15T10:35:18.718Z</time></trkpt><trkpt lat="41.25859" lon="14.8951117"><ele>265.4</ele><time>2026-03-15T10:35:20.717Z</time></trkpt><trkpt lat="41.25858" lon="14.8952183"><ele>263.0</ele><time>2026-03-15T10:35:21.718Z</time></trkpt><trkpt lat="41.25854" lon="14.8953433"><ele>262.0</ele><time>2026-03-15T10:35:22.718Z</time></trkpt><trkpt lat="41.2585117" lon="14.895505"><ele>261.0</ele><time>2026-03-15T10:35:23.718Z</time></trkpt><trkpt lat="41.258475" lon="14.8956967"><ele>260.0</ele><time>2026-03-15T10:35:24.718Z</time></trkpt><trkpt lat="41.2584117" lon="14.8958767"><ele>259.0</ele><time>2026-03-15T10:35:25.718Z</time></trkpt><trkpt lat="41.2583667" lon="14.8960733"><ele>257.66666666666663</ele><time>2026-03-15T10:35:26.717Z</time></trkpt><trkpt lat="41.2583517" lon="14.8962533"><ele>256.3333333333333</ele><time>2026-03-15T10:35:27.718Z</time></trkpt><trkpt lat="41.258325" lon="14.8964833"><ele>255.0</ele><time>2026-03-15T10:35:28.718Z</time></trkpt><trkpt lat="41.258305" lon="14.89671"><ele>255.0</ele><time>2026-03-15T10:35:29.718Z</time></trkpt><trkpt lat="41.258305" lon="14.896915"><ele>255.0</ele><time>2026-03-15T10:35:30.718Z</time></trkpt><trkpt lat="41.258325" lon="14.8971"><ele>255.0</ele><time>2026-03-15T10:35:31.718Z</time></trkpt><trkpt lat="41.2583683" lon="14.8972733"><ele>255.0</ele><time>2026-03-15T10:35:32.718Z</time></trkpt><trkpt lat="41.25843" lon="14.8974233"><ele>255.0</ele><time>2026-03-15T10:35:33.717Z</time></trkpt><trkpt lat="41.2585233" lon="14.89754"><ele>255.0</ele><time>2026-03-15T10:35:34.718Z</time></trkpt><trkpt lat="41.2586317" lon="14.89762"><ele>255.0</ele><time>2026-03-15T10:35:35.718Z</time></trkpt><trkpt lat="41.2587717" lon="14.8976933"><ele>255.0</ele><time>2026-03-15T10:35:36.718Z</time></trkpt><trkpt lat="41.2589283" lon="14.8977233"><ele>255.0</ele><time>2026-03-15T10:35:37.717Z</time></trkpt><trkpt lat="41.25909" lon="14.897735"><ele>255.0</ele><time>2026-03-15T10:35:38.718Z</time></trkpt><trkpt lat="41.2592567" lon="14.8977117"><ele>255.0</ele><time>2026-03-15T10:35:39.718Z</time></trkpt><trkpt lat="41.2594217" lon="14.8976817"><ele>255.0</ele><time>2026-03-15T10:35:40.718Z</time></trkpt><trkpt lat="41.2596017" lon="14.8976517"><ele>255.0</ele><time>2026-03-15T10:35:41.718Z</time></trkpt><trkpt lat="41.2597683" lon="14.8976267"><ele>255.0</ele><time>2026-03-15T10:35:42.718Z</time></trkpt><trkpt lat="41.2599267" lon="14.897605"><ele>254.25</ele><time>2026-03-15T10:35:43.718Z</time></trkpt><trkpt lat="41.2600833" lon="14.89757"><ele>253.5</ele><time>2026-03-15T10:35:44.718Z</time></trkpt><trkpt lat="41.2602217" lon="14.8975483"><ele>252.75</ele><time>2026-03-15T10:35:45.718Z</time></trkpt><trkpt lat="41.260345" lon="14.897515"><ele>252.0</ele><time>2026-03-15T10:35:46.718Z</time></trkpt><trkpt lat="41.26046" lon="14.8974917"><ele>252.0</ele><time>2026-03-15T10:35:47.718Z</time></trkpt><trkpt lat="41.260565" lon="14.89747"><ele>252.0</ele><time>2026-03-15T10:35:48.718Z</time></trkpt><trkpt lat="41.2606533" lon="14.8974633"><ele>252.0</ele><time>2026-03-15T10:35:49.718Z</time></trkpt><trkpt lat="41.2607267" lon="14.8974483"><ele>252.0</ele><time>2026-03-15T10:35:50.718Z</time></trkpt><trkpt lat="41.2608333" lon="14.8973933"><ele>252.0</ele><time>2026-03-15T10:35:52.718Z</time></trkpt><trkpt lat="41.260865" lon="14.8972733"><ele>252.0</ele><time>2026-03-15T10:35:54.718Z</time></trkpt><trkpt lat="41.2608367" lon="14.8971867"><ele>252.0</ele><time>2026-03-15T10:35:55.718Z</time></trkpt><trkpt lat="41.2607783" lon="14.8971083"><ele>252.0</ele><time>2026-03-15T10:35:56.718Z</time></trkpt><trkpt lat="41.260715" lon="14.8970733"><ele>252.0</ele><time>2026-03-15T10:35:57.718Z</time></trkpt><trkpt lat="41.260615" lon="14.8970833"><ele>252.0</ele><time>2026-03-15T10:35:58.718Z</time></trkpt><trkpt lat="41.2604867" lon="14.8971333"><ele>252.0</ele><time>2026-03-15T10:35:59.718Z</time></trkpt><trkpt lat="41.2603783" lon="14.897205"><ele>252.0</ele><time>2026-03-15T10:36:00.718Z</time></trkpt><trkpt lat="41.260295" lon="14.897245"><ele>252.0</ele><time>2026-03-15T10:36:01.718Z</time></trkpt><trkpt lat="41.2602367" lon="14.89728"><ele>252.0</ele><time>2026-03-15T10:36:02.717Z</time></trkpt><trkpt lat="41.2601717" lon="14.8972983"><ele>252.0</ele><time>2026-03-15T10:36:27.718Z</time></trkpt><trkpt lat="41.2601" lon="14.897325"><ele>252.0</ele><time>2026-03-15T10:36:29.718Z</time></trkpt><trkpt lat="41.2600517" lon="14.8973967"><ele>252.0</ele><time>2026-03-15T10:36:31.717Z</time></trkpt><trkpt lat="41.2600417" lon="14.8974833"><ele>252.0</ele><time>2026-03-15T10:36:32.718Z</time></trkpt><trkpt lat="41.2600517" lon="14.8976267"><ele>252.0</ele><time>2026-03-15T10:36:33.718Z</time></trkpt><trkpt lat="41.2600783" lon="14.89781"><ele>252.0</ele><time>2026-03-15T10:36:34.717Z</time></trkpt><trkpt lat="41.260145" lon="14.8979833"><ele>252.0</ele><time>2026-03-15T10:36:35.718Z</time></trkpt><trkpt lat="41.26022" lon="14.898165"><ele>252.0</ele><time>2026-03-15T10:36:36.718Z</time></trkpt><trkpt lat="41.2602767" lon="14.8983433"><ele>252.0</ele><time>2026-03-15T10:36:37.718Z</time></trkpt><trkpt lat="41.2603217" lon="14.8984933"><ele>252.0</ele><time>2026-03-15T10:36:38.718Z</time></trkpt><trkpt lat="41.260345" lon="14.89866"><ele>252.0</ele><time>2026-03-15T10:36:39.718Z</time></trkpt><trkpt lat="41.2603517" lon="14.89885"><ele>252.0</ele><time>2026-03-15T10:36:40.718Z</time></trkpt><trkpt lat="41.2603183" lon="14.899055"><ele>252.0</ele><time>2026-03-15T10:36:41.717Z</time></trkpt><trkpt lat="41.26027" lon="14.8992733"><ele>252.0</ele><time>2026-03-15T10:36:42.718Z</time></trkpt><trkpt lat="41.2602117" lon="14.8994933"><ele>252.0</ele><time>2026-03-15T10:36:43.718Z</time></trkpt><trkpt lat="41.2601583" lon="14.89972"><ele>252.0</ele><time>2026-03-15T10:36:44.718Z</time></trkpt><trkpt lat="41.260105" lon="14.899935"><ele>255.5</ele><time>2026-03-15T10:36:45.718Z</time></trkpt><trkpt lat="41.260055" lon="14.9001267"><ele>259.0</ele><time>2026-03-15T10:36:46.717Z</time></trkpt><trkpt lat="41.2600067" lon="14.9002967"><ele>262.5</ele><time>2026-03-15T10:36:47.718Z</time></trkpt><trkpt lat="41.2599683" lon="14.9004183"><ele>266.0</ele><time>2026-03-15T10:36:48.718Z</time></trkpt><trkpt lat="41.259915" lon="14.90055"><ele>266.0</ele><time>2026-03-15T10:36:50.718Z</time></trkpt><trkpt lat="41.2598483" lon="14.9006383"><ele>266.0</ele><time>2026-03-15T10:36:52.717Z</time></trkpt><trkpt lat="41.25991" lon="14.9005867"><ele>266.0</ele><time>2026-03-15T10:36:57.718Z</time></trkpt><trkpt lat="41.2599617" lon="14.9005017"><ele>266.0</ele><time>2026-03-15T10:36:58.718Z</time></trkpt><trkpt lat="41.26" lon="14.9004217"><ele>266.0</ele><time>2026-03-15T10:36:59.718Z</time></trkpt><trkpt lat="41.2599883" lon="14.9003283"><ele>266.0</ele><time>2026-03-15T10:37:01.717Z</time></trkpt><trkpt lat="41.2600433" lon="14.9002083"><ele>262.5</ele><time>2026-03-15T10:38:20.718Z</time></trkpt><trkpt lat="41.2600733" lon="14.9000517"><ele>259.0</ele><time>2026-03-15T10:38:22.717Z</time></trkpt><trkpt lat="41.26011" lon="14.8998583"><ele>255.5</ele><time>2026-03-15T10:38:24.717Z</time></trkpt><trkpt lat="41.2601383" lon="14.8997217"><ele>252.0</ele><time>2026-03-15T10:38:25.718Z</time></trkpt><trkpt lat="41.260195" lon="14.899565"><ele>252.0</ele><time>2026-03-15T10:38:26.718Z</time></trkpt><trkpt lat="41.26024" lon="14.8994"><ele>252.0</ele><time>2026-03-15T10:38:27.718Z</time></trkpt><trkpt lat="41.2602617" lon="14.89917"><ele>252.0</ele><time>2026-03-15T10:38:28.718Z</time></trkpt><trkpt lat="41.2603067" lon="14.8989783"><ele>252.0</ele><time>2026-03-15T10:38:29.718Z</time></trkpt><trkpt lat="41.2603367" lon="14.8988017"><ele>252.0</ele><time>2026-03-15T10:38:30.718Z</time></trkpt><trkpt lat="41.2603483" lon="14.8986433"><ele>252.0</ele><time>2026-03-15T10:38:31.718Z</time></trkpt><trkpt lat="41.2603467" lon="14.89847"><ele>252.0</ele><time>2026-03-15T10:38:32.718Z</time></trkpt><trkpt lat="41.2603183" lon="14.898325"><ele>252.2</ele><time>2026-03-15T10:38:33.718Z</time></trkpt><trkpt lat="41.2602883" lon="14.8981867"><ele>252.39999999999998</ele><time>2026-03-15T10:38:34.718Z</time></trkpt><trkpt lat="41.2602383" lon="14.89807"><ele>252.60000000000002</ele><time>2026-03-15T10:38:35.718Z</time></trkpt><trkpt lat="41.2601833" lon="14.897955"><ele>252.8</ele><time>2026-03-15T10:38:36.718Z</time></trkpt><trkpt lat="41.2601333" lon="14.89785"><ele>253.0</ele><time>2026-03-15T10:38:37.718Z</time></trkpt><trkpt lat="41.2600933" lon="14.8977167"><ele>252.8</ele><time>2026-03-15T10:38:38.718Z</time></trkpt><trkpt lat="41.26007" lon="14.8975367"><ele>252.60000000000002</ele><time>2026-03-15T10:38:39.718Z</time></trkpt><trkpt lat="41.2600433" lon="14.897405"><ele>252.39999999999998</ele><time>2026-03-15T10:38:40.718Z</time></trkpt><trkpt lat="41.260045" lon="14.8972867"><ele>252.2</ele><time>2026-03-15T10:38:41.717Z</time></trkpt><trkpt lat="41.2600967" lon="14.8971633"><ele>252.0</ele><time>2026-03-15T10:38:43.718Z</time></trkpt><trkpt lat="41.2601583" lon="14.8971083"><ele>252.0</ele><time>2026-03-15T10:38:45.718Z</time></trkpt><trkpt lat="41.26018" lon="14.8969867"><ele>252.0</ele><time>2026-03-15T10:38:47.718Z</time></trkpt><trkpt lat="41.2601867" lon="14.8968767"><ele>252.0</ele><time>2026-03-15T10:38:48.718Z</time></trkpt><trkpt lat="41.260215" lon="14.896735"><ele>252.0</ele><time>2026-03-15T10:38:49.717Z</time></trkpt><trkpt lat="41.2602667" lon="14.89657"><ele>252.0</ele><time>2026-03-15T10:38:50.718Z</time></trkpt><trkpt lat="41.2603367" lon="14.896365"><ele>252.0</ele><time>2026-03-15T10:38:51.718Z</time></trkpt><trkpt lat="41.2603917" lon="14.89613"><ele>252.0</ele><time>2026-03-15T10:38:52.718Z</time></trkpt><trkpt lat="41.26042" lon="14.895895"><ele>252.0</ele><time>2026-03-15T10:38:53.718Z</time></trkpt><trkpt lat="41.2604517" lon="14.89567"><ele>251.75</ele><time>2026-03-15T10:38:54.718Z</time></trkpt><trkpt lat="41.2604783" lon="14.8954667"><ele>251.5</ele><time>2026-03-15T10:38:55.718Z</time></trkpt><trkpt lat="41.2605017" lon="14.89528"><ele>251.25</ele><time>2026-03-15T10:38:56.718Z</time></trkpt><trkpt lat="41.26052" lon="14.8951317"><ele>251.0</ele><time>2026-03-15T10:38:57.718Z</time></trkpt><trkpt lat="41.2605183" lon="14.8949983"><ele>251.0</ele><time>2026-03-15T10:38:58.718Z</time></trkpt><trkpt lat="41.2604833" lon="14.89487"><ele>251.0</ele><time>2026-03-15T10:38:59.717Z</time></trkpt><trkpt lat="41.260445" lon="14.8946983"><ele>251.0</ele><time>2026-03-15T10:39:00.717Z</time></trkpt><trkpt lat="41.260425" lon="14.8945067"><ele>251.0</ele><time>2026-03-15T10:39:01.718Z</time></trkpt><trkpt lat="41.26043" lon="14.8943483"><ele>251.5</ele><time>2026-03-15T10:39:02.718Z</time></trkpt><trkpt lat="41.260455" lon="14.8941883"><ele>252.0</ele><time>2026-03-15T10:39:03.717Z</time></trkpt><trkpt lat="41.26051" lon="14.894045"><ele>252.5</ele><time>2026-03-15T10:39:04.718Z</time></trkpt><trkpt lat="41.26057" lon="14.893885"><ele>253.0</ele><time>2026-03-15T10:39:05.718Z</time></trkpt><trkpt lat="41.2606433" lon="14.8937267"><ele>253.25</ele><time>2026-03-15T10:39:06.718Z</time></trkpt><trkpt lat="41.26071" lon="14.8935633"><ele>253.5</ele><time>2026-03-15T10:39:07.718Z</time></trkpt><trkpt lat="41.26076" lon="14.8933983"><ele>253.75</ele><time>2026-03-15T10:39:08.718Z</time></trkpt><trkpt lat="41.2608117" lon="14.8932533"><ele>254.0</ele><time>2026-03-15T10:39:09.718Z</time></trkpt><trkpt lat="41.2608667" lon="14.8931033"><ele>254.25</ele><time>2026-03-15T10:39:10.718Z</time></trkpt><trkpt lat="41.2609133" lon="14.892975"><ele>254.5</ele><time>2026-03-15T10:39:11.718Z</time></trkpt><trkpt lat="41.26095" lon="14.8928367"><ele>254.75</ele><time>2026-03-15T10:39:12.717Z</time></trkpt><trkpt lat="41.2609717" lon="14.8926683"><ele>255.0</ele><time>2026-03-15T10:39:13.718Z</time></trkpt><trkpt lat="41.2609933" lon="14.892475"><ele>255.0</ele><time>2026-03-15T10:39:14.718Z</time></trkpt><trkpt lat="41.261025" lon="14.8922667"><ele>255.0</ele><time>2026-03-15T10:39:15.718Z</time></trkpt><trkpt lat="41.2610417" lon="14.8920633"><ele>255.0</ele><time>2026-03-15T10:39:16.718Z</time></trkpt><trkpt lat="41.2610517" lon="14.89186"><ele>255.25</ele><time>2026-03-15T10:39:17.718Z</time></trkpt><trkpt lat="41.26106" lon="14.8916783"><ele>255.5</ele><time>2026-03-15T10:39:18.718Z</time></trkpt><trkpt lat="41.26107" lon="14.8914867"><ele>255.75</ele><time>2026-03-15T10:39:19.718Z</time></trkpt><trkpt lat="41.2610783" lon="14.8912733"><ele>256.0</ele><time>2026-03-15T10:39:20.718Z</time></trkpt><trkpt lat="41.2611033" lon="14.8910917"><ele>256.25</ele><time>2026-03-15T10:39:21.718Z</time></trkpt><trkpt lat="41.2611317" lon="14.89092"><ele>256.5</ele><time>2026-03-15T10:39:22.718Z</time></trkpt><trkpt lat="41.2611917" lon="14.890765"><ele>256.75</ele><time>2026-03-15T10:39:23.717Z</time></trkpt><trkpt lat="41.26124" lon="14.8905817"><ele>257.0</ele><time>2026-03-15T10:39:24.718Z</time></trkpt><trkpt lat="41.2612783" lon="14.89039"><ele>257.0</ele><time>2026-03-15T10:39:25.718Z</time></trkpt><trkpt lat="41.2613183" lon="14.8901933"><ele>257.0</ele><time>2026-03-15T10:39:26.718Z</time></trkpt><trkpt lat="41.2613533" lon="14.890015"><ele>257.0</ele><time>2026-03-15T10:39:27.718Z</time></trkpt><trkpt lat="41.2614" lon="14.8898717"><ele>257.0</ele><time>2026-03-15T10:39:28.718Z</time></trkpt><trkpt lat="41.2614617" lon="14.8897683"><ele>257.0</ele><time>2026-03-15T10:39:29.717Z</time></trkpt><trkpt lat="41.26154" lon="14.88969"><ele>257.0</ele><time>2026-03-15T10:39:30.718Z</time></trkpt><trkpt lat="41.261645" lon="14.8896167"><ele>257.0</ele><time>2026-03-15T10:39:31.718Z</time></trkpt><trkpt lat="41.2617717" lon="14.889545"><ele>257.0</ele><time>2026-03-15T10:39:32.718Z</time></trkpt><trkpt lat="41.2619117" lon="14.8894517"><ele>257.0</ele><time>2026-03-15T10:39:33.718Z</time></trkpt><trkpt lat="41.262065" lon="14.8893567"><ele>257.0</ele><time>2026-03-15T10:39:34.718Z</time></trkpt><trkpt lat="41.2622233" lon="14.88927"><ele>257.0</ele><time>2026-03-15T10:39:35.718Z</time></trkpt><trkpt lat="41.2623767" lon="14.8891917"><ele>256.75</ele><time>2026-03-15T10:39:36.718Z</time></trkpt><trkpt lat="41.2625067" lon="14.8891333"><ele>256.5</ele><time>2026-03-15T10:39:37.718Z</time></trkpt><trkpt lat="41.26265" lon="14.8891033"><ele>256.25</ele><time>2026-03-15T10:39:38.717Z</time></trkpt><trkpt lat="41.26278" lon="14.8890817"><ele>256.0</ele><time>2026-03-15T10:39:39.718Z</time></trkpt><trkpt lat="41.2629217" lon="14.8890367"><ele>256.0</ele><time>2026-03-15T10:39:40.718Z</time></trkpt><trkpt lat="41.26304" lon="14.889015"><ele>256.0</ele><time>2026-03-15T10:39:41.718Z</time></trkpt><trkpt lat="41.263165" lon="14.8890067"><ele>256.0</ele><time>2026-03-15T10:39:42.718Z</time></trkpt><trkpt lat="41.263275" lon="14.8890217"><ele>256.0</ele><time>2026-03-15T10:39:43.718Z</time></trkpt><trkpt lat="41.2633883" lon="14.8890483"><ele>256.16666666666663</ele><time>2026-03-15T10:39:44.718Z</time></trkpt><trkpt lat="41.2634917" lon="14.8890717"><ele>256.3333333333333</ele><time>2026-03-15T10:39:45.718Z</time></trkpt><trkpt lat="41.2635783" lon="14.8891333"><ele>256.5</ele><time>2026-03-15T10:39:46.718Z</time></trkpt><trkpt lat="41.263645" lon="14.8891833"><ele>256.6666666666667</ele><time>2026-03-15T10:39:47.718Z</time></trkpt><trkpt lat="41.2636967" lon="14.8892433"><ele>256.83333333333337</ele><time>2026-03-15T10:39:48.718Z</time></trkpt><trkpt lat="41.2637817" lon="14.8892867"><ele>257.0</ele><time>2026-03-15T10:39:50.717Z</time></trkpt><trkpt lat="41.263795" lon="14.8891617"><ele>257.25</ele><time>2026-03-15T10:39:53.718Z</time></trkpt><trkpt lat="41.2638483" lon="14.8890383"><ele>257.5</ele><time>2026-03-15T10:39:55.718Z</time></trkpt><trkpt lat="41.2639733" lon="14.888925"><ele>257.75</ele><time>2026-03-15T10:39:57.718Z</time></trkpt><trkpt lat="41.264075" lon="14.8888883"><ele>258.0</ele><time>2026-03-15T10:39:58.718Z</time></trkpt><trkpt lat="41.2641917" lon="14.8888617"><ele>259.0</ele><time>2026-03-15T10:39:59.718Z</time></trkpt><trkpt lat="41.26433" lon="14.8888633"><ele>260.0</ele><time>2026-03-15T10:40:00.718Z</time></trkpt><trkpt lat="41.2644967" lon="14.88888"><ele>261.0</ele><time>2026-03-15T10:40:01.718Z</time></trkpt><trkpt lat="41.26468" lon="14.888885"><ele>261.0</ele><time>2026-03-15T10:40:02.718Z</time></trkpt><trkpt lat="41.264855" lon="14.8888917"><ele>261.0</ele><time>2026-03-15T10:40:03.717Z</time></trkpt><trkpt lat="41.2650167" lon="14.8889083"><ele>261.0</ele><time>2026-03-15T10:40:04.718Z</time></trkpt><trkpt lat="41.2651667" lon="14.8889417"><ele>261.0</ele><time>2026-03-15T10:40:05.718Z</time></trkpt><trkpt lat="41.2653333" lon="14.8889867"><ele>261.0</ele><time>2026-03-15T10:40:06.718Z</time></trkpt><trkpt lat="41.2655133" lon="14.889055"><ele>261.0</ele><time>2026-03-15T10:40:07.718Z</time></trkpt><trkpt lat="41.2657017" lon="14.8891267"><ele>260.6666666666667</ele><time>2026-03-15T10:40:08.718Z</time></trkpt><trkpt lat="41.2658633" lon="14.889185"><ele>260.33333333333337</ele><time>2026-03-15T10:40:09.718Z</time></trkpt><trkpt lat="41.2660317" lon="14.8892567"><ele>260.0</ele><time>2026-03-15T10:40:10.718Z</time></trkpt><trkpt lat="41.2661983" lon="14.88931"><ele>260.6666666666667</ele><time>2026-03-15T10:40:11.718Z</time></trkpt><trkpt lat="41.266365" lon="14.88933"><ele>261.3333333333333</ele><time>2026-03-15T10:40:12.718Z</time></trkpt><trkpt lat="41.26652" lon="14.8893533"><ele>262.0</ele><time>2026-03-15T10:40:13.718Z</time></trkpt><trkpt lat="41.266675" lon="14.8893567"><ele>262.3333333333333</ele><time>2026-03-15T10:40:14.718Z</time></trkpt><trkpt lat="41.2668317" lon="14.8893483"><ele>262.6666666666667</ele><time>2026-03-15T10:40:15.718Z</time></trkpt><trkpt lat="41.2669833" lon="14.88933"><ele>263.0</ele><time>2026-03-15T10:40:16.718Z</time></trkpt><trkpt lat="41.267145" lon="14.88931"><ele>263.33333333333337</ele><time>2026-03-15T10:40:17.717Z</time></trkpt><trkpt lat="41.26732" lon="14.8893"><ele>263.6666666666667</ele><time>2026-03-15T10:40:18.718Z</time></trkpt><trkpt lat="41.2674783" lon="14.8893"><ele>264.0</ele><time>2026-03-15T10:40:19.718Z</time></trkpt><trkpt lat="41.2676417" lon="14.8893183"><ele>264.0</ele><time>2026-03-15T10:40:20.718Z</time></trkpt><trkpt lat="41.2678017" lon="14.88935"><ele>264.0</ele><time>2026-03-15T10:40:21.717Z</time></trkpt><trkpt lat="41.267975" lon="14.8894133"><ele>264.0</ele><time>2026-03-15T10:40:22.718Z</time></trkpt><trkpt lat="41.2681317" lon="14.8894933"><ele>265.0</ele><time>2026-03-15T10:40:23.718Z</time></trkpt><trkpt lat="41.2682717" lon="14.8895767"><ele>266.0</ele><time>2026-03-15T10:40:24.717Z</time></trkpt><trkpt lat="41.2684067" lon="14.889655"><ele>267.0</ele><time>2026-03-15T10:40:25.718Z</time></trkpt><trkpt lat="41.2685433" lon="14.889755"><ele>267.0</ele><time>2026-03-15T10:40:26.718Z</time></trkpt><trkpt lat="41.2686567" lon="14.8898433"><ele>267.0</ele><time>2026-03-15T10:40:27.717Z</time></trkpt><trkpt lat="41.2687783" lon="14.889935"><ele>267.0</ele><time>2026-03-15T10:40:28.717Z</time></trkpt><trkpt lat="41.26887" lon="14.8900267"><ele>267.0</ele><time>2026-03-15T10:40:29.717Z</time></trkpt><trkpt lat="41.2689683" lon="14.89013"><ele>267.5</ele><time>2026-03-15T10:40:30.718Z</time></trkpt><trkpt lat="41.26907" lon="14.890235"><ele>268.0</ele><time>2026-03-15T10:40:31.718Z</time></trkpt><trkpt lat="41.2691583" lon="14.8903367"><ele>268.5</ele><time>2026-03-15T10:40:32.718Z</time></trkpt><trkpt lat="41.2692317" lon="14.89044"><ele>269.0</ele><time>2026-03-15T10:40:33.717Z</time></trkpt><trkpt lat="41.2692833" lon="14.890585"><ele>269.0</ele><time>2026-03-15T10:40:34.717Z</time></trkpt><trkpt lat="41.2693467" lon="14.8907367"><ele>269.0</ele><time>2026-03-15T10:40:35.717Z</time></trkpt><trkpt lat="41.269415" lon="14.8909117"><ele>269.0</ele><time>2026-03-15T10:40:36.718Z</time></trkpt><trkpt lat="41.269485" lon="14.8911167"><ele>269.0</ele><time>2026-03-15T10:40:37.717Z</time></trkpt><trkpt lat="41.2695417" lon="14.8913433"><ele>269.0</ele><time>2026-03-15T10:40:38.718Z</time></trkpt><trkpt lat="41.26958" lon="14.89158"><ele>269.0</ele><time>2026-03-15T10:40:39.718Z</time></trkpt><trkpt lat="41.2696133" lon="14.891795"><ele>269.0</ele><time>2026-03-15T10:40:40.718Z</time></trkpt><trkpt lat="41.2696417" lon="14.8919917"><ele>269.75</ele><time>2026-03-15T10:40:41.718Z</time></trkpt><trkpt lat="41.2696733" lon="14.8921967"><ele>270.5</ele><time>2026-03-15T10:40:42.717Z</time></trkpt><trkpt lat="41.2697033" lon="14.89237"><ele>271.25</ele><time>2026-03-15T10:40:43.718Z</time></trkpt><trkpt lat="41.2697417" lon="14.89251"><ele>272.0</ele><time>2026-03-15T10:40:44.718Z</time></trkpt><trkpt lat="41.2697833" lon="14.8926167"><ele>272.6666666666667</ele><time>2026-03-15T10:40:45.718Z</time></trkpt><trkpt lat="41.2698283" lon="14.8927017"><ele>273.33333333333337</ele><time>2026-03-15T10:40:46.718Z</time></trkpt><trkpt lat="41.269885" lon="14.8927583"><ele>274.0</ele><time>2026-03-15T10:40:47.718Z</time></trkpt><trkpt lat="41.2699583" lon="14.8928"><ele>274.6666666666667</ele><time>2026-03-15T10:40:48.718Z</time></trkpt><trkpt lat="41.2700283" lon="14.8928783"><ele>275.3333333333333</ele><time>2026-03-15T10:40:49.718Z</time></trkpt><trkpt lat="41.2700933" lon="14.8930133"><ele>276.0</ele><time>2026-03-15T10:40:50.718Z</time></trkpt><trkpt lat="41.2701483" lon="14.8931767"><ele>276.0</ele><time>2026-03-15T10:40:51.718Z</time></trkpt><trkpt lat="41.2701833" lon="14.893375"><ele>276.0</ele><time>2026-03-15T10:40:52.718Z</time></trkpt><trkpt lat="41.2702167" lon="14.8935917"><ele>276.0</ele><time>2026-03-15T10:40:53.718Z</time></trkpt><trkpt lat="41.2702533" lon="14.8938017"><ele>276.25</ele><time>2026-03-15T10:40:54.717Z</time></trkpt><trkpt lat="41.270295" lon="14.8939833"><ele>276.5</ele><time>2026-03-15T10:40:55.718Z</time></trkpt><trkpt lat="41.270355" lon="14.8941667"><ele>276.75</ele><time>2026-03-15T10:40:56.718Z</time></trkpt><trkpt lat="41.2704283" lon="14.89434"><ele>277.0</ele><time>2026-03-15T10:40:57.718Z</time></trkpt><trkpt lat="41.2705067" lon="14.8944983"><ele>277.25</ele><time>2026-03-15T10:40:58.718Z</time></trkpt><trkpt lat="41.270595" lon="14.89464"><ele>277.5</ele><time>2026-03-15T10:40:59.718Z</time></trkpt><trkpt lat="41.270705" lon="14.8947733"><ele>277.75</ele><time>2026-03-15T10:41:00.718Z</time></trkpt><trkpt lat="41.2707767" lon="14.8948633"><ele>278.0</ele><time>2026-03-15T10:41:01.718Z</time></trkpt><trkpt lat="41.27084" lon="14.894915"><ele>278.1666666666667</ele><time>2026-03-15T10:41:02.718Z</time></trkpt><trkpt lat="41.2709067" lon="14.894945"><ele>278.33333333333337</ele><time>2026-03-15T10:41:03.718Z</time></trkpt><trkpt lat="41.270995" lon="14.8949083"><ele>278.5</ele><time>2026-03-15T10:41:05.718Z</time></trkpt><trkpt lat="41.27105" lon="14.89486"><ele>278.6666666666667</ele><time>2026-03-15T10:41:06.718Z</time></trkpt><trkpt lat="41.271115" lon="14.8948067"><ele>278.8333333333333</ele><time>2026-03-15T10:41:07.717Z</time></trkpt><trkpt lat="41.2712083" lon="14.8947467"><ele>279.0</ele><time>2026-03-15T10:41:08.718Z</time></trkpt><trkpt lat="41.2713117" lon="14.8947"><ele>279.5</ele><time>2026-03-15T10:41:09.718Z</time></trkpt><trkpt lat="41.2714817" lon="14.8946433"><ele>280.0</ele><time>2026-03-15T10:41:10.718Z</time></trkpt><trkpt lat="41.2716117" lon="14.8946117"><ele>280.5</ele><time>2026-03-15T10:41:11.718Z</time></trkpt><trkpt lat="41.27174" lon="14.8945833"><ele>281.0</ele><time>2026-03-15T10:41:12.717Z</time></trkpt><trkpt lat="41.2718583" lon="14.8945567"><ele>281.0</ele><time>2026-03-15T10:41:13.718Z</time></trkpt><trkpt lat="41.271945" lon="14.89453"><ele>281.0</ele><time>2026-03-15T10:41:14.717Z</time></trkpt><trkpt lat="41.272025" lon="14.894515"><ele>281.0</ele><time>2026-03-15T10:41:15.718Z</time></trkpt><trkpt lat="41.2721233" lon="14.8945133"><ele>281.0</ele><time>2026-03-15T10:41:17.718Z</time></trkpt><trkpt lat="41.2721683" lon="14.8943967"><ele>281.0</ele><time>2026-03-15T10:41:20.718Z</time></trkpt><trkpt lat="41.27215" lon="14.8942917"><ele>281.0</ele><time>2026-03-15T10:41:21.718Z</time></trkpt><trkpt lat="41.27212" lon="14.8941083"><ele>280.0</ele><time>2026-03-15T10:41:23.718Z</time></trkpt><trkpt lat="41.2720917" lon="14.89399"><ele>279.0</ele><time>2026-03-15T10:41:24.718Z</time></trkpt><trkpt lat="41.2719567" lon="14.8937033"><ele>278.0</ele><time>2026-03-15T10:41:25.717Z</time></trkpt><trkpt lat="41.2718767" lon="14.8934467"><ele>277.6666666666667</ele><time>2026-03-15T10:41:26.718Z</time></trkpt><trkpt lat="41.271805" lon="14.8932067"><ele>277.3333333333333</ele><time>2026-03-15T10:41:27.718Z</time></trkpt><trkpt lat="41.2717417" lon="14.893"><ele>277.0</ele><time>2026-03-15T10:41:28.718Z</time></trkpt><trkpt lat="41.2717067" lon="14.8928333"><ele>277.0</ele><time>2026-03-15T10:41:29.718Z</time></trkpt><trkpt lat="41.271675" lon="14.8926717"><ele>277.0</ele><time>2026-03-15T10:41:30.718Z</time></trkpt><trkpt lat="41.271665" lon="14.892515"><ele>277.0</ele><time>2026-03-15T10:41:31.717Z</time></trkpt><trkpt lat="41.27167" lon="14.89236"><ele>277.0</ele><time>2026-03-15T10:41:32.717Z</time></trkpt><trkpt lat="41.271675" lon="14.8922483"><ele>277.0</ele><time>2026-03-15T10:41:33.717Z</time></trkpt><trkpt lat="41.2716817" lon="14.892155"><ele>276.6</ele><time>2026-03-15T10:41:34.718Z</time></trkpt><trkpt lat="41.2717167" lon="14.892015"><ele>276.2</ele><time>2026-03-15T10:41:36.718Z</time></trkpt><trkpt lat="41.27185" lon="14.8920367"><ele>275.8</ele><time>2026-03-15T10:41:38.718Z</time></trkpt><trkpt lat="41.2719267" lon="14.8921033"><ele>275.4</ele><time>2026-03-15T10:41:39.718Z</time></trkpt><trkpt lat="41.2719883" lon="14.8921717"><ele>275.0</ele><time>2026-03-15T10:41:40.717Z</time></trkpt><trkpt lat="41.272055" lon="14.892245"><ele>275.0</ele><time>2026-03-15T10:41:41.718Z</time></trkpt><trkpt lat="41.2721383" lon="14.8923133"><ele>275.0</ele><time>2026-03-15T10:41:42.718Z</time></trkpt><trkpt lat="41.27223" lon="14.89233"><ele>275.0</ele><time>2026-03-15T10:41:43.717Z</time></trkpt><trkpt lat="41.2723217" lon="14.892315"><ele>275.0</ele><time>2026-03-15T10:41:44.718Z</time></trkpt><trkpt lat="41.272405" lon="14.8922567"><ele>275.0</ele><time>2026-03-15T10:41:45.717Z</time></trkpt><trkpt lat="41.272475" lon="14.8921817"><ele>275.2</ele><time>2026-03-15T10:41:46.718Z</time></trkpt><trkpt lat="41.2725633" lon="14.892125"><ele>275.4</ele><time>2026-03-15T10:41:47.718Z</time></trkpt><trkpt lat="41.2726633" lon="14.8920917"><ele>275.6</ele><time>2026-03-15T10:41:48.717Z</time></trkpt><trkpt lat="41.2727733" lon="14.8920933"><ele>275.8</ele><time>2026-03-15T10:41:49.718Z</time></trkpt><trkpt lat="41.2728833" lon="14.8920717"><ele>276.0</ele><time>2026-03-15T10:41:50.718Z</time></trkpt><trkpt lat="41.2730117" lon="14.8920333"><ele>276.6666666666667</ele><time>2026-03-15T10:41:51.718Z</time></trkpt><trkpt lat="41.2731633" lon="14.89201"><ele>277.33333333333337</ele><time>2026-03-15T10:41:52.718Z</time></trkpt><trkpt lat="41.2733133" lon="14.8920067"><ele>278.0</ele><time>2026-03-15T10:41:53.718Z</time></trkpt><trkpt lat="41.273475" lon="14.8920317"><ele>278.0</ele><time>2026-03-15T10:41:54.718Z</time></trkpt><trkpt lat="41.2736317" lon="14.8920467"><ele>278.0</ele><time>2026-03-15T10:41:55.718Z</time></trkpt><trkpt lat="41.273775" lon="14.8920633"><ele>278.0</ele><time>2026-03-15T10:41:56.718Z</time></trkpt><trkpt lat="41.2738983" lon="14.8920933"><ele>278.0</ele><time>2026-03-15T10:41:57.718Z</time></trkpt><trkpt lat="41.274015" lon="14.8921417"><ele>278.25</ele><time>2026-03-15T10:41:58.718Z</time></trkpt><trkpt lat="41.2741283" lon="14.8922067"><ele>278.5</ele><time>2026-03-15T10:41:59.718Z</time></trkpt><trkpt lat="41.2742367" lon="14.8922433"><ele>278.75</ele><time>2026-03-15T10:42:00.718Z</time></trkpt><trkpt lat="41.2743383" lon="14.8922767"><ele>279.0</ele><time>2026-03-15T10:42:01.718Z</time></trkpt><trkpt lat="41.2744467" lon="14.89231"><ele>279.0</ele><time>2026-03-15T10:42:02.718Z</time></trkpt><trkpt lat="41.2745683" lon="14.8923683"><ele>279.0</ele><time>2026-03-15T10:42:03.718Z</time></trkpt><trkpt lat="41.274695" lon="14.892445"><ele>279.0</ele><time>2026-03-15T10:42:04.717Z</time></trkpt><trkpt lat="41.2748067" lon="14.8924917"><ele>279.0</ele><time>2026-03-15T10:42:05.718Z</time></trkpt><trkpt lat="41.27492" lon="14.8925283"><ele>279.8</ele><time>2026-03-15T10:42:06.717Z</time></trkpt><trkpt lat="41.2750317" lon="14.8925417"><ele>280.59999999999997</ele><time>2026-03-15T10:42:07.717Z</time></trkpt><trkpt lat="41.2751617" lon="14.8925383"><ele>281.4</ele><time>2026-03-15T10:42:08.718Z</time></trkpt><trkpt lat="41.2752667" lon="14.8925317"><ele>282.2</ele><time>2026-03-15T10:42:09.717Z</time></trkpt><trkpt lat="41.2753533" lon="14.8925133"><ele>283.0</ele><time>2026-03-15T10:42:10.718Z</time></trkpt><trkpt lat="41.27542" lon="14.8924833"><ele>283.0</ele><time>2026-03-15T10:42:11.718Z</time></trkpt><trkpt lat="41.2754883" lon="14.8924417"><ele>283.0</ele><time>2026-03-15T10:42:12.718Z</time></trkpt><trkpt lat="41.27555" lon="14.8923867"><ele>283.0</ele><time>2026-03-15T10:42:13.718Z</time></trkpt><trkpt lat="41.2756233" lon="14.8923367"><ele>283.0</ele><time>2026-03-15T10:42:14.718Z</time></trkpt><trkpt lat="41.2756883" lon="14.892265"><ele>283.0</ele><time>2026-03-15T10:42:15.718Z</time></trkpt><trkpt lat="41.27579" lon="14.8922083"><ele>283.0</ele><time>2026-03-15T10:42:16.718Z</time></trkpt><trkpt lat="41.2758917" lon="14.892135"><ele>283.6</ele><time>2026-03-15T10:42:17.718Z</time></trkpt><trkpt lat="41.27603" lon="14.8920733"><ele>284.20000000000005</ele><time>2026-03-15T10:42:18.718Z</time></trkpt><trkpt lat="41.2761467" lon="14.89204"><ele>284.8</ele><time>2026-03-15T10:42:19.718Z</time></trkpt><trkpt lat="41.2762417" lon="14.8920283"><ele>285.40000000000003</ele><time>2026-03-15T10:42:20.718Z</time></trkpt><trkpt lat="41.2763267" lon="14.8919967"><ele>286.0</ele><time>2026-03-15T10:42:21.718Z</time></trkpt><trkpt lat="41.27639" lon="14.8919533"><ele>287.0</ele><time>2026-03-15T10:42:22.718Z</time></trkpt><trkpt lat="41.27645" lon="14.8919083"><ele>288.0</ele><time>2026-03-15T10:42:23.718Z</time></trkpt><trkpt lat="41.2765767" lon="14.8919233"><ele>289.0</ele><time>2026-03-15T10:42:25.718Z</time></trkpt><trkpt lat="41.27666" lon="14.891945"><ele>290.0</ele><time>2026-03-15T10:42:26.717Z</time></trkpt><trkpt lat="41.2767633" lon="14.8919917"><ele>291.0</ele><time>2026-03-15T10:42:27.718Z</time></trkpt><trkpt lat="41.2768617" lon="14.892075"><ele>291.0</ele><time>2026-03-15T10:42:28.718Z</time></trkpt><trkpt lat="41.276965" lon="14.8921633"><ele>291.0</ele><time>2026-03-15T10:42:29.718Z</time></trkpt><trkpt lat="41.27707" lon="14.8922483"><ele>291.0</ele><time>2026-03-15T10:42:30.718Z</time></trkpt><trkpt lat="41.2771767" lon="14.8923467"><ele>291.0</ele><time>2026-03-15T10:42:31.718Z</time></trkpt><trkpt lat="41.277255" lon="14.8923933"><ele>292.1666666666667</ele><time>2026-03-15T10:42:32.718Z</time></trkpt><trkpt lat="41.27733" lon="14.8924117"><ele>293.3333333333333</ele><time>2026-03-15T10:42:33.718Z</time></trkpt><trkpt lat="41.2774233" lon="14.8924283"><ele>294.5</ele><time>2026-03-15T10:42:35.718Z</time></trkpt><trkpt lat="41.2775283" lon="14.8924717"><ele>295.66666666666663</ele><time>2026-03-15T10:42:37.718Z</time></trkpt><trkpt lat="41.2775983" lon="14.8924683"><ele>296.8333333333333</ele><time>2026-03-15T10:42:38.718Z</time></trkpt><trkpt lat="41.2776667" lon="14.892485"><ele>298.0</ele><time>2026-03-15T10:42:39.718Z</time></trkpt><trkpt lat="41.2777333" lon="14.892495"><ele>298.0</ele><time>2026-03-15T10:42:40.718Z</time></trkpt><trkpt lat="41.27781" lon="14.8925"><ele>298.0</ele><time>2026-03-15T10:42:41.718Z</time></trkpt><trkpt lat="41.277895" lon="14.89248"><ele>298.0</ele><time>2026-03-15T10:42:42.718Z</time></trkpt><trkpt lat="41.2779983" lon="14.8924483"><ele>298.0</ele><time>2026-03-15T10:42:43.717Z</time></trkpt><trkpt lat="41.2780833" lon="14.892435"><ele>298.0</ele><time>2026-03-15T10:42:44.718Z</time></trkpt><trkpt lat="41.2781833" lon="14.8924317"><ele>298.8</ele><time>2026-03-15T10:42:45.718Z</time></trkpt><trkpt lat="41.2782817" lon="14.892425"><ele>299.6</ele><time>2026-03-15T10:42:46.718Z</time></trkpt><trkpt lat="41.27838" lon="14.89241"><ele>300.4</ele><time>2026-03-15T10:42:47.718Z</time></trkpt><trkpt lat="41.2784733" lon="14.8923817"><ele>301.2</ele><time>2026-03-15T10:42:48.717Z</time></trkpt><trkpt lat="41.2785467" lon="14.8923633"><ele>302.0</ele><time>2026-03-15T10:42:49.718Z</time></trkpt><trkpt lat="41.2786317" lon="14.8923267"><ele>302.0</ele><time>2026-03-15T10:42:51.718Z</time></trkpt><trkpt lat="41.2786983" lon="14.89227"><ele>302.0</ele><time>2026-03-15T10:42:53.718Z</time></trkpt><trkpt lat="41.2786083" lon="14.8923167"><ele>302.0</ele><time>2026-03-15T10:44:48.718Z</time></trkpt><trkpt lat="41.2784867" lon="14.8923383"><ele>302.0</ele><time>2026-03-15T11:04:29.718Z</time></trkpt><trkpt lat="41.278415" lon="14.8923517"><ele>302.0</ele><time>2026-03-15T11:04:30.718Z</time></trkpt><trkpt lat="41.2783483" lon="14.89236"><ele>302.0</ele><time>2026-03-15T11:04:31.718Z</time></trkpt><trkpt lat="41.278275" lon="14.8923667"><ele>302.0</ele><time>2026-03-15T11:04:32.718Z</time></trkpt><trkpt lat="41.278185" lon="14.8923817"><ele>302.0</ele><time>2026-03-15T11:04:33.718Z</time></trkpt><trkpt lat="41.27808" lon="14.892395"><ele>302.0</ele><time>2026-03-15T11:04:34.717Z</time></trkpt><trkpt lat="41.2779483" lon="14.8924"><ele>302.0</ele><time>2026-03-15T11:04:35.718Z</time></trkpt><trkpt lat="41.2778383" lon="14.892415"><ele>302.0</ele><time>2026-03-15T11:04:36.718Z</time></trkpt><trkpt lat="41.2777517" lon="14.8924317"><ele>301.33333333333337</ele><time>2026-03-15T11:04:37.718Z</time></trkpt><trkpt lat="41.277655" lon="14.8924483"><ele>300.6666666666667</ele><time>2026-03-15T11:04:38.717Z</time></trkpt><trkpt lat="41.2775733" lon="14.8924583"><ele>300.0</ele><time>2026-03-15T11:04:39.718Z</time></trkpt><trkpt lat="41.2775067" lon="14.8924567"><ele>299.3333333333333</ele><time>2026-03-15T11:04:40.717Z</time></trkpt><trkpt lat="41.277435" lon="14.8924367"><ele>298.66666666666663</ele><time>2026-03-15T11:04:41.718Z</time></trkpt><trkpt lat="41.277365" lon="14.8924083"><ele>298.0</ele><time>2026-03-15T11:04:42.718Z</time></trkpt><trkpt lat="41.27728" lon="14.8923717"><ele>296.6</ele><time>2026-03-15T11:04:43.718Z</time></trkpt><trkpt lat="41.2771833" lon="14.892325"><ele>295.20000000000005</ele><time>2026-03-15T11:04:44.717Z</time></trkpt><trkpt lat="41.2770783" lon="14.8922617"><ele>293.8</ele><time>2026-03-15T11:04:45.717Z</time></trkpt><trkpt lat="41.2769767" lon="14.8921883"><ele>292.40000000000003</ele><time>2026-03-15T11:04:46.718Z</time></trkpt><trkpt lat="41.2768833" lon="14.8921"><ele>291.0</ele><time>2026-03-15T11:04:47.718Z</time></trkpt><trkpt lat="41.2767983" lon="14.892015"><ele>291.0</ele><time>2026-03-15T11:04:48.718Z</time></trkpt><trkpt lat="41.276725" lon="14.8919433"><ele>291.0</ele><time>2026-03-15T11:04:49.718Z</time></trkpt><trkpt lat="41.2766533" lon="14.8918867"><ele>291.0</ele><time>2026-03-15T11:04:50.717Z</time></trkpt><trkpt lat="41.2765683" lon="14.8918483"><ele>291.0</ele><time>2026-03-15T11:04:51.718Z</time></trkpt><trkpt lat="41.276465" lon="14.89188"><ele>291.0</ele><time>2026-03-15T11:04:52.718Z</time></trkpt><trkpt lat="41.2763883" lon="14.8919017"><ele>291.0</ele><time>2026-03-15T11:04:53.718Z</time></trkpt><trkpt lat="41.2763217" lon="14.8919283"><ele>289.75</ele><time>2026-03-15T11:04:54.718Z</time></trkpt><trkpt lat="41.2762017" lon="14.892025"><ele>288.5</ele><time>2026-03-15T11:04:56.718Z</time></trkpt><trkpt lat="41.2761067" lon="14.8920583"><ele>287.25</ele><time>2026-03-15T11:04:57.717Z</time></trkpt><trkpt lat="41.2759917" lon="14.892105"><ele>286.0</ele><time>2026-03-15T11:04:58.718Z</time></trkpt><trkpt lat="41.27584" lon="14.892165"><ele>286.0</ele><time>2026-03-15T11:04:59.718Z</time></trkpt><trkpt lat="41.2756883" lon="14.892225"><ele>286.0</ele><time>2026-03-15T11:05:00.718Z</time></trkpt><trkpt lat="41.2755683" lon="14.8922833"><ele>286.0</ele><time>2026-03-15T11:05:01.718Z</time></trkpt><trkpt lat="41.2754567" lon="14.8923633"><ele>286.0</ele><time>2026-03-15T11:05:02.718Z</time></trkpt><trkpt lat="41.275365" lon="14.8924483"><ele>285.40000000000003</ele><time>2026-03-15T11:05:03.718Z</time></trkpt><trkpt lat="41.27528" lon="14.892515"><ele>284.8</ele><time>2026-03-15T11:05:04.718Z</time></trkpt><trkpt lat="41.2752" lon="14.892545"><ele>284.20000000000005</ele><time>2026-03-15T11:05:05.718Z</time></trkpt><trkpt lat="41.2751083" lon="14.8925583"><ele>283.6</ele><time>2026-03-15T11:05:06.718Z</time></trkpt><trkpt lat="41.2750033" lon="14.8925567"><ele>283.0</ele><time>2026-03-15T11:05:07.718Z</time></trkpt><trkpt lat="41.274895" lon="14.89254"><ele>283.0</ele><time>2026-03-15T11:05:08.718Z</time></trkpt><trkpt lat="41.274775" lon="14.89251"><ele>283.0</ele><time>2026-03-15T11:05:09.718Z</time></trkpt><trkpt lat="41.2746533" lon="14.8924617"><ele>283.0</ele><time>2026-03-15T11:05:10.718Z</time></trkpt><trkpt lat="41.2745267" lon="14.8923933"><ele>283.0</ele><time>2026-03-15T11:05:11.718Z</time></trkpt><trkpt lat="41.2744133" lon="14.8923217"><ele>282.2</ele><time>2026-03-15T11:05:12.718Z</time></trkpt><trkpt lat="41.2743183" lon="14.8922633"><ele>281.4</ele><time>2026-03-15T11:05:13.718Z</time></trkpt><trkpt lat="41.274235" lon="14.8922283"><ele>280.59999999999997</ele><time>2026-03-15T11:05:14.718Z</time></trkpt><trkpt lat="41.2741567" lon="14.8922183"><ele>279.8</ele><time>2026-03-15T11:05:15.717Z</time></trkpt><trkpt lat="41.27406" lon="14.8922067"><ele>279.0</ele><time>2026-03-15T11:05:16.718Z</time></trkpt><trkpt lat="41.2739717" lon="14.8921617"><ele>278.8</ele><time>2026-03-15T11:05:17.717Z</time></trkpt><trkpt lat="41.27388" lon="14.8920967"><ele>278.59999999999997</ele><time>2026-03-15T11:05:18.718Z</time></trkpt><trkpt lat="41.273795" lon="14.8920483"><ele>278.4</ele><time>2026-03-15T11:05:19.718Z</time></trkpt><trkpt lat="41.2737067" lon="14.8920283"><ele>278.2</ele><time>2026-03-15T11:05:20.718Z</time></trkpt><trkpt lat="41.2736067" lon="14.8920217"><ele>278.0</ele><time>2026-03-15T11:05:21.718Z</time></trkpt><trkpt lat="41.2734783" lon="14.8920233"><ele>278.0</ele><time>2026-03-15T11:05:22.718Z</time></trkpt><trkpt lat="41.2733467" lon="14.89201"><ele>278.0</ele><time>2026-03-15T11:05:23.717Z</time></trkpt><trkpt lat="41.27321" lon="14.892"><ele>278.0</ele><time>2026-03-15T11:05:24.717Z</time></trkpt><trkpt lat="41.2730667" lon="14.89201"><ele>278.0</ele><time>2026-03-15T11:05:25.718Z</time></trkpt><trkpt lat="41.272925" lon="14.892035"><ele>277.6</ele><time>2026-03-15T11:05:26.718Z</time></trkpt><trkpt lat="41.2727983" lon="14.892085"><ele>277.20000000000005</ele><time>2026-03-15T11:05:27.718Z</time></trkpt><trkpt lat="41.2727033" lon="14.8921233"><ele>276.8</ele><time>2026-03-15T11:05:28.718Z</time></trkpt><trkpt lat="41.2726233" lon="14.89212"><ele>276.40000000000003</ele><time>2026-03-15T11:05:29.718Z</time></trkpt><trkpt lat="41.2725533" lon="14.8921167"><ele>276.0</ele><time>2026-03-15T11:05:30.717Z</time></trkpt><trkpt lat="41.2724833" lon="14.89212"><ele>276.0</ele><time>2026-03-15T11:05:31.718Z</time></trkpt><trkpt lat="41.2723817" lon="14.89219"><ele>276.0</ele><time>2026-03-15T11:05:33.717Z</time></trkpt><trkpt lat="41.27233" lon="14.8922467"><ele>276.0</ele><time>2026-03-15T11:05:34.718Z</time></trkpt><trkpt lat="41.2722717" lon="14.8923083"><ele>276.0</ele><time>2026-03-15T11:05:35.718Z</time></trkpt><trkpt lat="41.2722033" lon="14.8923367"><ele>276.0</ele><time>2026-03-15T11:05:36.718Z</time></trkpt><trkpt lat="41.2721283" lon="14.892355"><ele>276.0</ele><time>2026-03-15T11:05:37.718Z</time></trkpt><trkpt lat="41.27203" lon="14.8923017"><ele>275.8333333333333</ele><time>2026-03-15T11:05:38.718Z</time></trkpt><trkpt lat="41.2719617" lon="14.8922267"><ele>275.6666666666667</ele><time>2026-03-15T11:05:39.717Z</time></trkpt><trkpt lat="41.2719017" lon="14.89216"><ele>275.5</ele><time>2026-03-15T11:05:40.718Z</time></trkpt><trkpt lat="41.271845" lon="14.8921083"><ele>275.33333333333337</ele><time>2026-03-15T11:05:41.718Z</time></trkpt><trkpt lat="41.2717483" lon="14.89206"><ele>275.1666666666667</ele><time>2026-03-15T11:05:43.718Z</time></trkpt><trkpt lat="41.271685" lon="14.8920883"><ele>275.0</ele><time>2026-03-15T11:05:45.718Z</time></trkpt><trkpt lat="41.2716567" lon="14.892255"><ele>275.0</ele><time>2026-03-15T11:05:47.717Z</time></trkpt><trkpt lat="41.2716517" lon="14.892395"><ele>275.0</ele><time>2026-03-15T11:05:48.717Z</time></trkpt><trkpt lat="41.271655" lon="14.89256"><ele>275.0</ele><time>2026-03-15T11:05:49.718Z</time></trkpt><trkpt lat="41.27167" lon="14.8927217"><ele>275.0</ele><time>2026-03-15T11:05:50.718Z</time></trkpt><trkpt lat="41.2717" lon="14.8928883"><ele>275.5</ele><time>2026-03-15T11:05:51.718Z</time></trkpt><trkpt lat="41.27173" lon="14.89303"><ele>276.0</ele><time>2026-03-15T11:05:52.718Z</time></trkpt><trkpt lat="41.271775" lon="14.893185"><ele>276.5</ele><time>2026-03-15T11:05:53.718Z</time></trkpt><trkpt lat="41.2718383" lon="14.8933517"><ele>277.0</ele><time>2026-03-15T11:05:54.718Z</time></trkpt><trkpt lat="41.2719017" lon="14.8935517"><ele>277.3333333333333</ele><time>2026-03-15T11:05:55.718Z</time></trkpt><trkpt lat="41.27196" lon="14.89375"><ele>277.6666666666667</ele><time>2026-03-15T11:05:56.718Z</time></trkpt><trkpt lat="41.27202" lon="14.8939383"><ele>278.0</ele><time>2026-03-15T11:05:57.717Z</time></trkpt><trkpt lat="41.2720667" lon="14.89411"><ele>278.6</ele><time>2026-03-15T11:05:58.718Z</time></trkpt><trkpt lat="41.2721" lon="14.8942583"><ele>279.20000000000005</ele><time>2026-03-15T11:05:59.718Z</time></trkpt><trkpt lat="41.2721267" lon="14.8943883"><ele>279.8</ele><time>2026-03-15T11:06:00.718Z</time></trkpt><trkpt lat="41.27214" lon="14.8944883"><ele>280.40000000000003</ele><time>2026-03-15T11:06:01.718Z</time></trkpt><trkpt lat="41.2721533" lon="14.8945983"><ele>281.0</ele><time>2026-03-15T11:06:03.717Z</time></trkpt><trkpt lat="41.27208" lon="14.89463"><ele>281.0</ele><time>2026-03-15T11:06:11.718Z</time></trkpt><trkpt lat="41.2721133" lon="14.8947017"><ele>281.0</ele><time>2026-03-15T11:06:13.718Z</time></trkpt><trkpt lat="41.2721583" lon="14.8948033"><ele>281.0</ele><time>2026-03-15T11:06:16.718Z</time></trkpt><trkpt lat="41.2722283" lon="14.89488"><ele>281.0</ele><time>2026-03-15T11:06:18.717Z</time></trkpt><trkpt lat="41.2723283" lon="14.89498"><ele>281.0</ele><time>2026-03-15T11:06:20.718Z</time></trkpt><trkpt lat="41.2723983" lon="14.8950167"><ele>281.0</ele><time>2026-03-15T11:06:21.718Z</time></trkpt><trkpt lat="41.2725017" lon="14.89504"><ele>281.83333333333337</ele><time>2026-03-15T11:06:23.718Z</time></trkpt><trkpt lat="41.2725867" lon="14.8950517"><ele>282.6666666666667</ele><time>2026-03-15T11:06:24.718Z</time></trkpt><trkpt lat="41.2726533" lon="14.8950583"><ele>283.5</ele><time>2026-03-15T11:06:25.718Z</time></trkpt><trkpt lat="41.2727233" lon="14.8950767"><ele>284.3333333333333</ele><time>2026-03-15T11:06:26.718Z</time></trkpt><trkpt lat="41.2728267" lon="14.895115"><ele>285.16666666666663</ele><time>2026-03-15T11:06:28.718Z</time></trkpt><trkpt lat="41.2729283" lon="14.895145"><ele>286.0</ele><time>2026-03-15T11:06:30.718Z</time></trkpt><trkpt lat="41.2730383" lon="14.8951783"><ele>288.66666666666663</ele><time>2026-03-15T11:06:32.718Z</time></trkpt><trkpt lat="41.2731367" lon="14.89519"><ele>291.3333333333333</ele><time>2026-03-15T11:06:34.718Z</time></trkpt><trkpt lat="41.2732367" lon="14.8952133"><ele>294.0</ele><time>2026-03-15T11:06:36.718Z</time></trkpt><trkpt lat="41.27331" lon="14.8952267"><ele>296.6666666666667</ele><time>2026-03-15T11:06:37.718Z</time></trkpt><trkpt lat="41.2733867" lon="14.89524"><ele>299.33333333333337</ele><time>2026-03-15T11:06:38.717Z</time></trkpt><trkpt lat="41.2734767" lon="14.8952467"><ele>302.0</ele><time>2026-03-15T11:06:40.718Z</time></trkpt><trkpt lat="41.2735833" lon="14.895245"><ele>302.0</ele><time>2026-03-15T11:06:42.718Z</time></trkpt><trkpt lat="41.2737533" lon="14.8952967"><ele>302.0</ele><time>2026-03-15T11:06:53.718Z</time></trkpt><trkpt lat="41.2738567" lon="14.8953333"><ele>302.0</ele><time>2026-03-15T11:06:55.718Z</time></trkpt><trkpt lat="41.27394" lon="14.8953483"><ele>302.0</ele><time>2026-03-15T11:06:56.718Z</time></trkpt><trkpt lat="41.274055" lon="14.8953617"><ele>306.25</ele><time>2026-03-15T11:06:57.718Z</time></trkpt><trkpt lat="41.2741867" lon="14.8953767"><ele>310.5</ele><time>2026-03-15T11:06:58.717Z</time></trkpt><trkpt lat="41.2743267" lon="14.89539"><ele>314.75</ele><time>2026-03-15T11:06:59.718Z</time></trkpt><trkpt lat="41.2744433" lon="14.8954083"><ele>319.0</ele><time>2026-03-15T11:07:00.717Z</time></trkpt><trkpt lat="41.274565" lon="14.89542"><ele>319.0</ele><time>2026-03-15T11:07:01.717Z</time></trkpt><trkpt lat="41.2746633" lon="14.895435"><ele>319.0</ele><time>2026-03-15T11:07:02.718Z</time></trkpt><trkpt lat="41.2747617" lon="14.8954667"><ele>319.0</ele><time>2026-03-15T11:07:03.718Z</time></trkpt><trkpt lat="41.2748283" lon="14.8954933"><ele>319.0</ele><time>2026-03-15T11:07:04.718Z</time></trkpt><trkpt lat="41.2749233" lon="14.8955317"><ele>319.0</ele><time>2026-03-15T11:07:06.718Z</time></trkpt><trkpt lat="41.2749917" lon="14.8955283"><ele>319.0</ele><time>2026-03-15T11:07:07.717Z</time></trkpt><trkpt lat="41.2750533" lon="14.8955067"><ele>321.8333333333333</ele><time>2026-03-15T11:07:08.718Z</time></trkpt><trkpt lat="41.2751167" lon="14.8954867"><ele>324.66666666666663</ele><time>2026-03-15T11:07:09.718Z</time></trkpt><trkpt lat="41.2752" lon="14.895475"><ele>327.5</ele><time>2026-03-15T11:07:11.718Z</time></trkpt><trkpt lat="41.2752433" lon="14.8955683"><ele>330.3333333333333</ele><time>2026-03-15T11:07:14.718Z</time></trkpt><trkpt lat="41.27531" lon="14.8956267"><ele>333.1666666666667</ele><time>2026-03-15T11:07:17.717Z</time></trkpt><trkpt lat="41.275375" lon="14.8957283"><ele>336.0</ele><time>2026-03-15T11:07:19.718Z</time></trkpt><trkpt lat="41.2754217" lon="14.8958817"><ele>336.0</ele><time>2026-03-15T11:07:21.718Z</time></trkpt><trkpt lat="41.2754717" lon="14.8960033"><ele>336.0</ele><time>2026-03-15T11:07:23.718Z</time></trkpt><trkpt lat="41.2755117" lon="14.8960833"><ele>336.0</ele><time>2026-03-15T11:07:25.717Z</time></trkpt><trkpt lat="41.2755333" lon="14.8959983"><ele>336.0</ele><time>2026-03-15T11:07:29.718Z</time></trkpt><trkpt lat="41.2754933" lon="14.8959283"><ele>336.0</ele><time>2026-03-15T11:07:30.718Z</time></trkpt><trkpt lat="41.2754417" lon="14.8958483"><ele>336.0</ele><time>2026-03-15T11:07:31.717Z</time></trkpt><trkpt lat="41.2753933" lon="14.895775"><ele>336.0</ele><time>2026-03-15T11:07:32.717Z</time></trkpt><trkpt lat="41.275355" lon="14.8957083"><ele>336.0</ele><time>2026-03-15T11:07:33.718Z</time></trkpt><trkpt lat="41.275275" lon="14.895605"><ele>336.0</ele><time>2026-03-15T11:07:35.717Z</time></trkpt><trkpt lat="41.2752017" lon="14.8954983"><ele>336.0</ele><time>2026-03-15T11:07:37.718Z</time></trkpt><trkpt lat="41.2751483" lon="14.8954083"><ele>336.0</ele><time>2026-03-15T11:07:39.718Z</time></trkpt><trkpt lat="41.2750717" lon="14.8954117"><ele>336.0</ele><time>2026-03-15T11:07:43.718Z</time></trkpt><trkpt lat="41.275035" lon="14.8955017"><ele>336.0</ele><time>2026-03-15T11:07:46.718Z</time></trkpt><trkpt lat="41.274965" lon="14.8955167"><ele>336.0</ele><time>2026-03-15T11:07:48.718Z</time></trkpt><trkpt lat="41.27489" lon="14.895495"><ele>336.0</ele><time>2026-03-15T11:07:51.717Z</time></trkpt><trkpt lat="41.2748083" lon="14.895435"><ele>336.0</ele><time>2026-03-15T11:07:54.718Z</time></trkpt><trkpt lat="41.27469" lon="14.895425"><ele>336.0</ele><time>2026-03-15T11:07:56.718Z</time></trkpt><trkpt lat="41.2746217" lon="14.895415"><ele>336.0</ele><time>2026-03-15T11:07:57.718Z</time></trkpt><trkpt lat="41.274555" lon="14.8954083"><ele>333.1666666666667</ele><time>2026-03-15T11:07:58.718Z</time></trkpt><trkpt lat="41.2744367" lon="14.895395"><ele>330.3333333333333</ele><time>2026-03-15T11:08:00.718Z</time></trkpt><trkpt lat="41.27433" lon="14.8953933"><ele>327.5</ele><time>2026-03-15T11:08:02.718Z</time></trkpt><trkpt lat="41.2742633" lon="14.89537"><ele>324.66666666666663</ele><time>2026-03-15T11:08:04.718Z</time></trkpt><trkpt lat="41.2741967" lon="14.89534"><ele>321.8333333333333</ele><time>2026-03-15T11:08:07.718Z</time></trkpt><trkpt lat="41.2741483" lon="14.895265"><ele>319.0</ele><time>2026-03-15T11:09:46.718Z</time></trkpt><trkpt lat="41.2740583" lon="14.8952917"><ele>319.0</ele><time>2026-03-15T11:09:49.717Z</time></trkpt><trkpt lat="41.2739833" lon="14.895305"><ele>319.0</ele><time>2026-03-15T11:09:51.718Z</time></trkpt><trkpt lat="41.27391" lon="14.8952933"><ele>319.0</ele><time>2026-03-15T11:10:29.718Z</time></trkpt><trkpt lat="41.2738217" lon="14.89529"><ele>319.0</ele><time>2026-03-15T11:10:31.718Z</time></trkpt><trkpt lat="41.2736817" lon="14.8952933"><ele>319.0</ele><time>2026-03-15T11:10:33.717Z</time></trkpt><trkpt lat="41.2736033" lon="14.89529"><ele>316.16666666666663</ele><time>2026-03-15T11:10:34.718Z</time></trkpt><trkpt lat="41.2735233" lon="14.8952767"><ele>313.3333333333333</ele><time>2026-03-15T11:10:35.717Z</time></trkpt><trkpt lat="41.273455" lon="14.895275"><ele>310.5</ele><time>2026-03-15T11:10:36.718Z</time></trkpt><trkpt lat="41.2733867" lon="14.8952733"><ele>307.6666666666667</ele><time>2026-03-15T11:10:37.718Z</time></trkpt><trkpt lat="41.273295" lon="14.8952533"><ele>304.83333333333337</ele><time>2026-03-15T11:10:38.718Z</time></trkpt><trkpt lat="41.27321" lon="14.895235"><ele>302.0</ele><time>2026-03-15T11:10:39.718Z</time></trkpt><trkpt lat="41.2731033" lon="14.895215"><ele>299.5</ele><time>2026-03-15T11:10:41.718Z</time></trkpt><trkpt lat="41.2730233" lon="14.8952033"><ele>297.0</ele><time>2026-03-15T11:10:43.718Z</time></trkpt><trkpt lat="41.2729433" lon="14.895185"><ele>294.5</ele><time>2026-03-15T11:10:46.718Z</time></trkpt><trkpt lat="41.272865" lon="14.8951583"><ele>292.0</ele><time>2026-03-15T11:10:49.718Z</time></trkpt><trkpt lat="41.2728033" lon="14.8951333"><ele>289.5</ele><time>2026-03-15T11:10:50.718Z</time></trkpt><trkpt lat="41.2726983" lon="14.895065"><ele>287.0</ele><time>2026-03-15T11:10:52.718Z</time></trkpt><trkpt lat="41.27261" lon="14.89501"><ele>287.0</ele><time>2026-03-15T11:10:54.718Z</time></trkpt><trkpt lat="41.272535" lon="14.8949467"><ele>287.0</ele><time>2026-03-15T11:10:56.718Z</time></trkpt><trkpt lat="41.272445" lon="14.894845"><ele>287.0</ele><time>2026-03-15T11:10:58.718Z</time></trkpt><trkpt lat="41.2723983" lon="14.8947783"><ele>287.0</ele><time>2026-03-15T11:10:59.718Z</time></trkpt><trkpt lat="41.27234" lon="14.8947267"><ele>287.0</ele><time>2026-03-15T11:11:00.717Z</time></trkpt><trkpt lat="41.2722733" lon="14.8946783"><ele>287.0</ele><time>2026-03-15T11:11:01.717Z</time></trkpt><trkpt lat="41.2721917" lon="14.8946333"><ele>285.8</ele><time>2026-03-15T11:11:02.718Z</time></trkpt><trkpt lat="41.2721183" lon="14.894605"><ele>284.6</ele><time>2026-03-15T11:11:03.717Z</time></trkpt><trkpt lat="41.27205" lon="14.8945833"><ele>283.40000000000003</ele><time>2026-03-15T11:11:04.718Z</time></trkpt><trkpt lat="41.271965" lon="14.8945833"><ele>282.2</ele><time>2026-03-15T11:11:05.718Z</time></trkpt><trkpt lat="41.2718517" lon="14.8945967"><ele>281.0</ele><time>2026-03-15T11:11:06.717Z</time></trkpt><trkpt lat="41.27174" lon="14.8946233"><ele>281.0</ele><time>2026-03-15T11:11:07.718Z</time></trkpt><trkpt lat="41.2715967" lon="14.8946433"><ele>281.0</ele><time>2026-03-15T11:11:08.717Z</time></trkpt><trkpt lat="41.2714417" lon="14.89467"><ele>281.0</ele><time>2026-03-15T11:11:09.718Z</time></trkpt><trkpt lat="41.2712683" lon="14.8947133"><ele>280.5</ele><time>2026-03-15T11:11:10.718Z</time></trkpt><trkpt lat="41.2711017" lon="14.8947517"><ele>280.0</ele><time>2026-03-15T11:11:11.717Z</time></trkpt><trkpt lat="41.2709733" lon="14.8948"><ele>279.5</ele><time>2026-03-15T11:11:12.718Z</time></trkpt><trkpt lat="41.2708717" lon="14.89483"><ele>279.0</ele><time>2026-03-15T11:11:13.718Z</time></trkpt><trkpt lat="41.2707767" lon="14.894835"><ele>279.0</ele><time>2026-03-15T11:11:14.718Z</time></trkpt><trkpt lat="41.2706933" lon="14.8948033"><ele>279.0</ele><time>2026-03-15T11:11:15.718Z</time></trkpt><trkpt lat="41.2706167" lon="14.89473"><ele>279.0</ele><time>2026-03-15T11:11:16.717Z</time></trkpt><trkpt lat="41.2705317" lon="14.8946233"><ele>279.0</ele><time>2026-03-15T11:11:17.718Z</time></trkpt><trkpt lat="41.270435" lon="14.8944667"><ele>278.3333333333333</ele><time>2026-03-15T11:11:18.718Z</time></trkpt><trkpt lat="41.2703333" lon="14.8942017"><ele>277.66666666666663</ele><time>2026-03-15T11:11:19.718Z</time></trkpt><trkpt lat="41.270255" lon="14.893955"><ele>277.0</ele><time>2026-03-15T11:11:20.718Z</time></trkpt><trkpt lat="41.2702" lon="14.8937333"><ele>277.0</ele><time>2026-03-15T11:11:21.718Z</time></trkpt><trkpt lat="41.27016" lon="14.8935183"><ele>277.0</ele><time>2026-03-15T11:11:22.718Z</time></trkpt><trkpt lat="41.2701233" lon="14.8933083"><ele>277.0</ele><time>2026-03-15T11:11:23.717Z</time></trkpt><trkpt lat="41.2700967" lon="14.8931267"><ele>276.75</ele><time>2026-03-15T11:11:24.718Z</time></trkpt><trkpt lat="41.2700617" lon="14.8929567"><ele>276.5</ele><time>2026-03-15T11:11:25.718Z</time></trkpt><trkpt lat="41.2700183" lon="14.8928033"><ele>276.25</ele><time>2026-03-15T11:11:26.718Z</time></trkpt><trkpt lat="41.26996" lon="14.892685"><ele>276.0</ele><time>2026-03-15T11:11:27.718Z</time></trkpt><trkpt lat="41.2698917" lon="14.8926033"><ele>275.5</ele><time>2026-03-15T11:11:28.717Z</time></trkpt><trkpt lat="41.26982" lon="14.89254"><ele>275.0</ele><time>2026-03-15T11:11:29.717Z</time></trkpt><trkpt lat="41.2697433" lon="14.8924883"><ele>274.5</ele><time>2026-03-15T11:11:30.718Z</time></trkpt><trkpt lat="41.2696867" lon="14.89243"><ele>274.0</ele><time>2026-03-15T11:11:31.718Z</time></trkpt><trkpt lat="41.2696517" lon="14.8923433"><ele>273.5</ele><time>2026-03-15T11:11:32.717Z</time></trkpt><trkpt lat="41.2696317" lon="14.89223"><ele>273.0</ele><time>2026-03-15T11:11:33.718Z</time></trkpt><trkpt lat="41.2696183" lon="14.8920817"><ele>272.6666666666667</ele><time>2026-03-15T11:11:34.718Z</time></trkpt><trkpt lat="41.269595" lon="14.8919"><ele>272.33333333333337</ele><time>2026-03-15T11:11:35.717Z</time></trkpt><trkpt lat="41.2695583" lon="14.8916717"><ele>272.0</ele><time>2026-03-15T11:11:36.717Z</time></trkpt><trkpt lat="41.269515" lon="14.89142"><ele>271.0</ele><time>2026-03-15T11:11:37.718Z</time></trkpt><trkpt lat="41.26947" lon="14.8911867"><ele>270.0</ele><time>2026-03-15T11:11:38.718Z</time></trkpt><trkpt lat="41.269415" lon="14.8909817"><ele>269.0</ele><time>2026-03-15T11:11:39.718Z</time></trkpt><trkpt lat="41.2693483" lon="14.890795"><ele>269.0</ele><time>2026-03-15T11:11:40.718Z</time></trkpt><trkpt lat="41.2692767" lon="14.890625"><ele>269.0</ele><time>2026-03-15T11:11:41.718Z</time></trkpt><trkpt lat="41.26921" lon="14.8904783"><ele>269.0</ele><time>2026-03-15T11:11:42.718Z</time></trkpt><trkpt lat="41.2691633" lon="14.8903583"><ele>269.0</ele><time>2026-03-15T11:11:43.718Z</time></trkpt><trkpt lat="41.2691067" lon="14.8902567"><ele>269.0</ele><time>2026-03-15T11:11:44.718Z</time></trkpt><trkpt lat="41.2690417" lon="14.890165"><ele>269.0</ele><time>2026-03-15T11:11:45.717Z</time></trkpt><trkpt lat="41.26893" lon="14.890085"><ele>269.0</ele><time>2026-03-15T11:11:46.718Z</time></trkpt><trkpt lat="41.268795" lon="14.8899933"><ele>269.0</ele><time>2026-03-15T11:11:47.717Z</time></trkpt><trkpt lat="41.2686517" lon="14.8898983"><ele>268.33333333333337</ele><time>2026-03-15T11:11:48.718Z</time></trkpt><trkpt lat="41.2685033" lon="14.88979"><ele>267.6666666666667</ele><time>2026-03-15T11:11:49.718Z</time></trkpt><trkpt lat="41.268355" lon="14.889675"><ele>267.0</ele><time>2026-03-15T11:11:50.718Z</time></trkpt><trkpt lat="41.2682067" lon="14.8895733"><ele>266.0</ele><time>2026-03-15T11:11:51.718Z</time></trkpt><trkpt lat="41.2680467" lon="14.8894717"><ele>265.0</ele><time>2026-03-15T11:11:52.718Z</time></trkpt><trkpt lat="41.2678833" lon="14.88939"><ele>264.0</ele><time>2026-03-15T11:11:53.718Z</time></trkpt><trkpt lat="41.2677367" lon="14.8893267"><ele>264.0</ele><time>2026-03-15T11:11:54.717Z</time></trkpt><trkpt lat="41.2676017" lon="14.88929"><ele>264.0</ele><time>2026-03-15T11:11:55.718Z</time></trkpt><trkpt lat="41.267445" lon="14.8892783"><ele>264.0</ele><time>2026-03-15T11:11:56.718Z</time></trkpt><trkpt lat="41.2672733" lon="14.8892767"><ele>263.6666666666667</ele><time>2026-03-15T11:11:57.718Z</time></trkpt><trkpt lat="41.267105" lon="14.889275"><ele>263.33333333333337</ele><time>2026-03-15T11:11:58.718Z</time></trkpt><trkpt lat="41.266955" lon="14.8892817"><ele>263.0</ele><time>2026-03-15T11:11:59.718Z</time></trkpt><trkpt lat="41.26682" lon="14.8892933"><ele>263.0</ele><time>2026-03-15T11:12:00.718Z</time></trkpt><trkpt lat="41.2666933" lon="14.8893017"><ele>263.0</ele><time>2026-03-15T11:12:01.718Z</time></trkpt><trkpt lat="41.2665717" lon="14.8893133"><ele>263.0</ele><time>2026-03-15T11:12:02.717Z</time></trkpt><trkpt lat="41.26643" lon="14.8893133"><ele>263.0</ele><time>2026-03-15T11:12:03.717Z</time></trkpt><trkpt lat="41.2662733" lon="14.889275"><ele>262.0</ele><time>2026-03-15T11:12:04.718Z</time></trkpt><trkpt lat="41.266105" lon="14.8892333"><ele>261.0</ele><time>2026-03-15T11:12:05.718Z</time></trkpt><trkpt lat="41.265925" lon="14.8891783"><ele>260.0</ele><time>2026-03-15T11:12:06.718Z</time></trkpt><trkpt lat="41.2657483" lon="14.889145"><ele>260.33333333333337</ele><time>2026-03-15T11:12:07.718Z</time></trkpt><trkpt lat="41.265585" lon="14.8891017"><ele>260.6666666666667</ele><time>2026-03-15T11:12:08.717Z</time></trkpt><trkpt lat="41.2654317" lon="14.8890617"><ele>261.0</ele><time>2026-03-15T11:12:09.718Z</time></trkpt><trkpt lat="41.2652667" lon="14.8890017"><ele>261.0</ele><time>2026-03-15T11:12:10.718Z</time></trkpt><trkpt lat="41.2651083" lon="14.8889533"><ele>261.0</ele><time>2026-03-15T11:12:11.718Z</time></trkpt><trkpt lat="41.2649633" lon="14.8889017"><ele>261.0</ele><time>2026-03-15T11:12:12.718Z</time></trkpt><trkpt lat="41.2648133" lon="14.8888717"><ele>261.0</ele><time>2026-03-15T11:12:13.718Z</time></trkpt><trkpt lat="41.2646667" lon="14.8888567"><ele>261.0</ele><time>2026-03-15T11:12:14.718Z</time></trkpt><trkpt lat="41.2645017" lon="14.88886"><ele>261.0</ele><time>2026-03-15T11:12:15.718Z</time></trkpt><trkpt lat="41.2643417" lon="14.888865"><ele>261.0</ele><time>2026-03-15T11:12:16.717Z</time></trkpt><trkpt lat="41.2641867" lon="14.88887"><ele>261.0</ele><time>2026-03-15T11:12:17.718Z</time></trkpt><trkpt lat="41.2640567" lon="14.8888667"><ele>261.0</ele><time>2026-03-15T11:12:18.718Z</time></trkpt><trkpt lat="41.2639483" lon="14.8888783"><ele>261.0</ele><time>2026-03-15T11:12:19.718Z</time></trkpt><trkpt lat="41.2638583" lon="14.8888933"><ele>260.40000000000003</ele><time>2026-03-15T11:12:20.718Z</time></trkpt><trkpt lat="41.2637883" lon="14.8889317"><ele>259.8</ele><time>2026-03-15T11:12:21.718Z</time></trkpt><trkpt lat="41.2636983" lon="14.88902"><ele>259.20000000000005</ele><time>2026-03-15T11:12:23.718Z</time></trkpt><trkpt lat="41.26366" lon="14.8891383"><ele>258.6</ele><time>2026-03-15T11:12:25.718Z</time></trkpt><trkpt lat="41.2635983" lon="14.8891083"><ele>258.0</ele><time>2026-03-15T11:12:30.717Z</time></trkpt><trkpt lat="41.2635517" lon="14.8889783"><ele>258.0</ele><time>2026-03-15T11:12:32.718Z</time></trkpt><trkpt lat="41.2635267" lon="14.888885"><ele>258.0</ele><time>2026-03-15T11:12:33.718Z</time></trkpt><trkpt lat="41.2635083" lon="14.8887983"><ele>258.0</ele><time>2026-03-15T11:12:34.718Z</time></trkpt><trkpt lat="41.263495" lon="14.8887117"><ele>258.0</ele><time>2026-03-15T11:12:35.718Z</time></trkpt><trkpt lat="41.263475" lon="14.888615"><ele>258.0</ele><time>2026-03-15T11:12:36.718Z</time></trkpt><trkpt lat="41.263455" lon="14.8885033"><ele>258.0</ele><time>2026-03-15T11:12:37.717Z</time></trkpt><trkpt lat="41.2634317" lon="14.8883667"><ele>258.0</ele><time>2026-03-15T11:12:38.718Z</time></trkpt><trkpt lat="41.263395" lon="14.8882183"><ele>258.0</ele><time>2026-03-15T11:12:39.718Z</time></trkpt><trkpt lat="41.2633533" lon="14.8880817"><ele>258.0</ele><time>2026-03-15T11:12:40.718Z</time></trkpt><trkpt lat="41.2633233" lon="14.8879583"><ele>258.0</ele><time>2026-03-15T11:12:41.718Z</time></trkpt><trkpt lat="41.26331" lon="14.8878333"><ele>258.0</ele><time>2026-03-15T11:12:42.718Z</time></trkpt><trkpt lat="41.26329" lon="14.8877067"><ele>257.75</ele><time>2026-03-15T11:12:43.718Z</time></trkpt><trkpt lat="41.2632767" lon="14.887575"><ele>257.5</ele><time>2026-03-15T11:12:44.718Z</time></trkpt><trkpt lat="41.2632767" lon="14.88741"><ele>257.25</ele><time>2026-03-15T11:12:45.718Z</time></trkpt><trkpt lat="41.2632833" lon="14.8872317"><ele>257.0</ele><time>2026-03-15T11:12:46.718Z</time></trkpt><trkpt lat="41.2633017" lon="14.8870583"><ele>257.0</ele><time>2026-03-15T11:12:47.717Z</time></trkpt><trkpt lat="41.2633117" lon="14.88689"><ele>257.0</ele><time>2026-03-15T11:12:48.718Z</time></trkpt><trkpt lat="41.26332" lon="14.886715"><ele>257.0</ele><time>2026-03-15T11:12:49.717Z</time></trkpt><trkpt lat="41.26333" lon="14.8865367"><ele>257.0</ele><time>2026-03-15T11:12:50.717Z</time></trkpt><trkpt lat="41.2633367" lon="14.8863617"><ele>257.25</ele><time>2026-03-15T11:12:51.718Z</time></trkpt><trkpt lat="41.2633433" lon="14.886165"><ele>257.5</ele><time>2026-03-15T11:12:52.717Z</time></trkpt><trkpt lat="41.2633517" lon="14.88598"><ele>257.75</ele><time>2026-03-15T11:12:53.718Z</time></trkpt><trkpt lat="41.26336" lon="14.88578"><ele>258.0</ele><time>2026-03-15T11:12:54.718Z</time></trkpt><trkpt lat="41.2633783" lon="14.88557"><ele>258.3333333333333</ele><time>2026-03-15T11:12:55.718Z</time></trkpt><trkpt lat="41.263405" lon="14.885345"><ele>258.66666666666663</ele><time>2026-03-15T11:12:56.718Z</time></trkpt><trkpt lat="41.2634283" lon="14.88511"><ele>259.0</ele><time>2026-03-15T11:12:57.718Z</time></trkpt><trkpt lat="41.263445" lon="14.88488"><ele>259.3333333333333</ele><time>2026-03-15T11:12:58.718Z</time></trkpt><trkpt lat="41.2634667" lon="14.88466"><ele>259.6666666666667</ele><time>2026-03-15T11:12:59.718Z</time></trkpt><trkpt lat="41.2634967" lon="14.884425"><ele>260.0</ele><time>2026-03-15T11:13:00.718Z</time></trkpt><trkpt lat="41.26353" lon="14.884195"><ele>260.0</ele><time>2026-03-15T11:13:01.718Z</time></trkpt><trkpt lat="41.2635617" lon="14.8839567"><ele>260.0</ele><time>2026-03-15T11:13:02.718Z</time></trkpt><trkpt lat="41.263595" lon="14.8837367"><ele>260.0</ele><time>2026-03-15T11:13:03.718Z</time></trkpt><trkpt lat="41.2636283" lon="14.8835533"><ele>259.8</ele><time>2026-03-15T11:13:04.718Z</time></trkpt><trkpt lat="41.2636667" lon="14.8834067"><ele>259.6</ele><time>2026-03-15T11:13:05.717Z</time></trkpt><trkpt lat="41.26371" lon="14.883295"><ele>259.4</ele><time>2026-03-15T11:13:06.718Z</time></trkpt><trkpt lat="41.2637583" lon="14.8831967"><ele>259.2</ele><time>2026-03-15T11:13:07.718Z</time></trkpt><trkpt lat="41.2638167" lon="14.8830767"><ele>259.0</ele><time>2026-03-15T11:13:08.717Z</time></trkpt><trkpt lat="41.263875" lon="14.882905"><ele>259.0</ele><time>2026-03-15T11:13:09.718Z</time></trkpt><trkpt lat="41.2639233" lon="14.8827033"><ele>259.0</ele><time>2026-03-15T11:13:10.717Z</time></trkpt><trkpt lat="41.26396" lon="14.8824983"><ele>259.0</ele><time>2026-03-15T11:13:11.718Z</time></trkpt><trkpt lat="41.2640017" lon="14.8823133"><ele>260.75</ele><time>2026-03-15T11:13:12.717Z</time></trkpt><trkpt lat="41.2640333" lon="14.8821417"><ele>262.5</ele><time>2026-03-15T11:13:13.717Z</time></trkpt><trkpt lat="41.2640667" lon="14.8819617"><ele>264.25</ele><time>2026-03-15T11:13:14.718Z</time></trkpt><trkpt lat="41.2641133" lon="14.88177"><ele>266.0</ele><time>2026-03-15T11:13:15.718Z</time></trkpt><trkpt lat="41.2641533" lon="14.88159"><ele>266.0</ele><time>2026-03-15T11:13:16.718Z</time></trkpt><trkpt lat="41.26419" lon="14.881435"><ele>266.0</ele><time>2026-03-15T11:13:17.718Z</time></trkpt><trkpt lat="41.2642083" lon="14.88131"><ele>266.0</ele><time>2026-03-15T11:13:18.718Z</time></trkpt><trkpt lat="41.26421" lon="14.8812117"><ele>266.0</ele><time>2026-03-15T11:13:19.718Z</time></trkpt><trkpt lat="41.2641767" lon="14.8810667"><ele>266.0</ele><time>2026-03-15T11:13:21.718Z</time></trkpt><trkpt lat="41.264155" lon="14.8808867"><ele>265.75</ele><time>2026-03-15T11:13:23.718Z</time></trkpt><trkpt lat="41.264155" lon="14.8807533"><ele>265.5</ele><time>2026-03-15T11:13:24.717Z</time></trkpt><trkpt lat="41.264165" lon="14.880595"><ele>265.25</ele><time>2026-03-15T11:13:25.718Z</time></trkpt><trkpt lat="41.26418" lon="14.8803933"><ele>265.0</ele><time>2026-03-15T11:13:26.718Z</time></trkpt><trkpt lat="41.26418" lon="14.880165"><ele>264.3333333333333</ele><time>2026-03-15T11:13:27.718Z</time></trkpt><trkpt lat="41.26418" lon="14.879915"><ele>263.6666666666667</ele><time>2026-03-15T11:13:28.718Z</time></trkpt><trkpt lat="41.2641833" lon="14.879675"><ele>263.0</ele><time>2026-03-15T11:13:29.718Z</time></trkpt><trkpt lat="41.264185" lon="14.8794333"><ele>262.6666666666667</ele><time>2026-03-15T11:13:30.718Z</time></trkpt><trkpt lat="41.2641883" lon="14.8791967"><ele>262.3333333333333</ele><time>2026-03-15T11:13:31.718Z</time></trkpt><trkpt lat="41.2641883" lon="14.8789667"><ele>262.0</ele><time>2026-03-15T11:13:32.717Z</time></trkpt><trkpt lat="41.26419" lon="14.8787167"><ele>262.0</ele><time>2026-03-15T11:13:33.718Z</time></trkpt><trkpt lat="41.2641833" lon="14.878455"><ele>262.0</ele><time>2026-03-15T11:13:34.717Z</time></trkpt><trkpt lat="41.264185" lon="14.8782067"><ele>262.0</ele><time>2026-03-15T11:13:35.718Z</time></trkpt><trkpt lat="41.264175" lon="14.8780033"><ele>262.3333333333333</ele><time>2026-03-15T11:13:36.718Z</time></trkpt><trkpt lat="41.2641567" lon="14.877855"><ele>262.66666666666663</ele><time>2026-03-15T11:13:37.718Z</time></trkpt><trkpt lat="41.264125" lon="14.8777667"><ele>263.0</ele><time>2026-03-15T11:13:39.718Z</time></trkpt><trkpt lat="41.2641367" lon="14.8778867"><ele>263.3333333333333</ele><time>2026-03-15T11:34:41.722Z</time></trkpt><trkpt lat="41.26414" lon="14.8779717"><ele>263.6666666666667</ele><time>2026-03-15T11:35:25.721Z</time></trkpt><trkpt lat="41.2641533" lon="14.8780567"><ele>264.0</ele><time>2026-03-15T11:35:33.721Z</time></trkpt><trkpt lat="41.2641583" lon="14.8781433"><ele>264.0</ele><time>2026-03-15T11:35:45.721Z</time></trkpt><trkpt lat="41.264165" lon="14.8782333"><ele>264.0</ele><time>2026-03-15T11:35:53.721Z</time></trkpt><trkpt lat="41.2641717" lon="14.8783167"><ele>264.0</ele><time>2026-03-15T11:36:00.721Z</time></trkpt><trkpt lat="41.26419" lon="14.878405"><ele>264.0</ele><time>2026-03-15T11:36:14.721Z</time></trkpt><trkpt lat="41.2642483" lon="14.8784367"><ele>264.0</ele><time>2026-03-15T11:36:25.721Z</time></trkpt><trkpt lat="41.2643317" lon="14.878505"><ele>264.0</ele><time>2026-03-15T11:38:37.721Z</time></trkpt><trkpt lat="41.2643333" lon="14.8786067"><ele>264.0</ele><time>2026-03-15T11:38:41.72Z</time></trkpt><trkpt lat="41.2643267" lon="14.8787033"><ele>263.85714285714283</ele><time>2026-03-15T11:38:45.721Z</time></trkpt><trkpt lat="41.264315" lon="14.8788033"><ele>263.7142857142857</ele><time>2026-03-15T11:38:49.721Z</time></trkpt><trkpt lat="41.2643217" lon="14.8789"><ele>263.57142857142856</ele><time>2026-03-15T11:38:53.721Z</time></trkpt><trkpt lat="41.2643233" lon="14.8790017"><ele>263.42857142857144</ele><time>2026-03-15T11:38:58.721Z</time></trkpt><trkpt lat="41.2643217" lon="14.8790917"><ele>263.2857142857143</ele><time>2026-03-15T11:39:10.721Z</time></trkpt><trkpt lat="41.2643233" lon="14.8792083"><ele>263.1428571428571</ele><time>2026-03-15T11:39:13.721Z</time></trkpt><trkpt lat="41.26432" lon="14.8792967"><ele>263.0</ele><time>2026-03-15T11:39:15.721Z</time></trkpt><trkpt lat="41.2643167" lon="14.879425"><ele>263.0</ele><time>2026-03-15T11:39:18.721Z</time></trkpt><trkpt lat="41.2643183" lon="14.8795233"><ele>263.0</ele><time>2026-03-15T11:39:20.721Z</time></trkpt><trkpt lat="41.26432" lon="14.879625"><ele>263.0</ele><time>2026-03-15T11:39:22.72Z</time></trkpt><trkpt lat="41.26432" lon="14.8797267"><ele>263.0</ele><time>2026-03-15T11:39:24.72Z</time></trkpt><trkpt lat="41.26432" lon="14.8798317"><ele>263.0</ele><time>2026-03-15T11:39:26.72Z</time></trkpt><trkpt lat="41.2643233" lon="14.8799367"><ele>263.0</ele><time>2026-03-15T11:39:28.721Z</time></trkpt><trkpt lat="41.264325" lon="14.88004"><ele>263.2857142857143</ele><time>2026-03-15T11:39:30.721Z</time></trkpt><trkpt lat="41.2643283" lon="14.880145"><ele>263.57142857142856</ele><time>2026-03-15T11:39:32.721Z</time></trkpt><trkpt lat="41.2643317" lon="14.88024"><ele>263.85714285714283</ele><time>2026-03-15T11:39:34.721Z</time></trkpt><trkpt lat="41.2643317" lon="14.88034"><ele>264.1428571428571</ele><time>2026-03-15T11:39:36.72Z</time></trkpt><trkpt lat="41.2643267" lon="14.8804333"><ele>264.42857142857144</ele><time>2026-03-15T11:39:38.721Z</time></trkpt><trkpt lat="41.264315" lon="14.8805267"><ele>264.71428571428567</ele><time>2026-03-15T11:39:40.72Z</time></trkpt><trkpt lat="41.264315" lon="14.8806267"><ele>265.0</ele><time>2026-03-15T11:39:42.721Z</time></trkpt><trkpt lat="41.2643183" lon="14.8807217"><ele>265.0</ele><time>2026-03-15T11:39:44.721Z</time></trkpt><trkpt lat="41.2643167" lon="14.8808083"><ele>265.0</ele><time>2026-03-15T11:39:46.721Z</time></trkpt><trkpt lat="41.2643117" lon="14.8808967"><ele>265.0</ele><time>2026-03-15T11:39:48.721Z</time></trkpt><trkpt lat="41.2643033" lon="14.8809983"><ele>265.0</ele><time>2026-03-15T11:39:50.721Z</time></trkpt><trkpt lat="41.2642817" lon="14.8811133"><ele>265.0</ele><time>2026-03-15T11:39:52.721Z</time></trkpt><trkpt lat="41.264255" lon="14.8812267"><ele>265.0</ele><time>2026-03-15T11:39:54.721Z</time></trkpt><trkpt lat="41.264235" lon="14.8813333"><ele>265.16666666666663</ele><time>2026-03-15T11:39:56.721Z</time></trkpt><trkpt lat="41.26421" lon="14.8814217"><ele>265.3333333333333</ele><time>2026-03-15T11:39:58.721Z</time></trkpt><trkpt lat="41.2641767" lon="14.8815133"><ele>265.5</ele><time>2026-03-15T11:40:00.721Z</time></trkpt><trkpt lat="41.2641533" lon="14.881625"><ele>265.6666666666667</ele><time>2026-03-15T11:40:02.721Z</time></trkpt><trkpt lat="41.26413" lon="14.88175"><ele>265.83333333333337</ele><time>2026-03-15T11:40:04.721Z</time></trkpt><trkpt lat="41.2641033" lon="14.8818817"><ele>266.0</ele><time>2026-03-15T11:40:06.721Z</time></trkpt><trkpt lat="41.2640783" lon="14.8820067"><ele>266.40000000000003</ele><time>2026-03-15T11:40:08.721Z</time></trkpt><trkpt lat="41.2640567" lon="14.8821217"><ele>266.8</ele><time>2026-03-15T11:40:10.72Z</time></trkpt><trkpt lat="41.2640283" lon="14.88224"><ele>267.20000000000005</ele><time>2026-03-15T11:40:12.721Z</time></trkpt><trkpt lat="41.2640033" lon="14.8823733"><ele>267.6</ele><time>2026-03-15T11:40:14.721Z</time></trkpt><trkpt lat="41.26398" lon="14.8825233"><ele>268.0</ele><time>2026-03-15T11:40:16.721Z</time></trkpt><trkpt lat="41.26395" lon="14.88267"><ele>266.2</ele><time>2026-03-15T11:40:18.721Z</time></trkpt><trkpt lat="41.2639183" lon="14.8828117"><ele>264.4</ele><time>2026-03-15T11:40:20.721Z</time></trkpt><trkpt lat="41.26389" lon="14.8829383"><ele>262.59999999999997</ele><time>2026-03-15T11:40:22.721Z</time></trkpt><trkpt lat="41.2638633" lon="14.8830633"><ele>260.8</ele><time>2026-03-15T11:40:24.72Z</time></trkpt><trkpt lat="41.2638317" lon="14.883175"><ele>259.0</ele><time>2026-03-15T11:40:26.721Z</time></trkpt><trkpt lat="41.26379" lon="14.88328"><ele>259.0</ele><time>2026-03-15T11:40:28.721Z</time></trkpt><trkpt lat="41.2637233" lon="14.8833933"><ele>259.0</ele><time>2026-03-15T11:40:30.721Z</time></trkpt><trkpt lat="41.26366" lon="14.8835483"><ele>259.0</ele><time>2026-03-15T11:40:32.721Z</time></trkpt><trkpt lat="41.26363" lon="14.8836633"><ele>259.0</ele><time>2026-03-15T11:40:33.721Z</time></trkpt><trkpt lat="41.2636133" lon="14.8837883"><ele>259.0</ele><time>2026-03-15T11:40:34.721Z</time></trkpt><trkpt lat="41.263595" lon="14.8839133"><ele>259.16666666666663</ele><time>2026-03-15T11:40:35.721Z</time></trkpt><trkpt lat="41.2635733" lon="14.8840333"><ele>259.3333333333333</ele><time>2026-03-15T11:40:36.721Z</time></trkpt><trkpt lat="41.2635467" lon="14.8841533"><ele>259.5</ele><time>2026-03-15T11:40:37.721Z</time></trkpt><trkpt lat="41.26352" lon="14.8842717"><ele>259.6666666666667</ele><time>2026-03-15T11:40:38.721Z</time></trkpt><trkpt lat="41.26351" lon="14.8843783"><ele>259.83333333333337</ele><time>2026-03-15T11:40:39.721Z</time></trkpt><trkpt lat="41.2634967" lon="14.8844867"><ele>260.0</ele><time>2026-03-15T11:40:40.721Z</time></trkpt><trkpt lat="41.2634683" lon="14.8846033"><ele>260.0</ele><time>2026-03-15T11:40:41.72Z</time></trkpt><trkpt lat="41.2634483" lon="14.8847133"><ele>260.0</ele><time>2026-03-15T11:40:42.721Z</time></trkpt><trkpt lat="41.2634267" lon="14.88482"><ele>260.0</ele><time>2026-03-15T11:40:43.721Z</time></trkpt><trkpt lat="41.263415" lon="14.8849283"><ele>260.0</ele><time>2026-03-15T11:40:44.721Z</time></trkpt><trkpt lat="41.2634083" lon="14.8850433"><ele>260.0</ele><time>2026-03-15T11:40:45.721Z</time></trkpt><trkpt lat="41.2634067" lon="14.8851567"><ele>260.0</ele><time>2026-03-15T11:40:46.721Z</time></trkpt><trkpt lat="41.2634017" lon="14.885275"><ele>259.8</ele><time>2026-03-15T11:40:47.72Z</time></trkpt><trkpt lat="41.2633967" lon="14.8854"><ele>259.6</ele><time>2026-03-15T11:40:48.721Z</time></trkpt><trkpt lat="41.2633883" lon="14.8855383"><ele>259.4</ele><time>2026-03-15T11:40:49.721Z</time></trkpt><trkpt lat="41.26338" lon="14.8856717"><ele>259.2</ele><time>2026-03-15T11:40:50.721Z</time></trkpt><trkpt lat="41.2633717" lon="14.8858017"><ele>259.0</ele><time>2026-03-15T11:40:51.72Z</time></trkpt><trkpt lat="41.2633633" lon="14.8859383"><ele>258.8</ele><time>2026-03-15T11:40:52.72Z</time></trkpt><trkpt lat="41.263355" lon="14.8860767"><ele>258.59999999999997</ele><time>2026-03-15T11:40:53.721Z</time></trkpt><trkpt lat="41.2633467" lon="14.8862217"><ele>258.4</ele><time>2026-03-15T11:40:54.721Z</time></trkpt><trkpt lat="41.26334" lon="14.8863667"><ele>258.2</ele><time>2026-03-15T11:40:55.721Z</time></trkpt><trkpt lat="41.2633317" lon="14.886505"><ele>258.0</ele><time>2026-03-15T11:40:56.721Z</time></trkpt><trkpt lat="41.2633283" lon="14.8866433"><ele>257.8</ele><time>2026-03-15T11:40:57.721Z</time></trkpt><trkpt lat="41.2633217" lon="14.8867817"><ele>257.6</ele><time>2026-03-15T11:40:58.721Z</time></trkpt><trkpt lat="41.2633117" lon="14.886925"><ele>257.4</ele><time>2026-03-15T11:40:59.721Z</time></trkpt><trkpt lat="41.2633033" lon="14.8870617"><ele>257.2</ele><time>2026-03-15T11:41:00.721Z</time></trkpt><trkpt lat="41.2633" lon="14.8871933"><ele>257.0</ele><time>2026-03-15T11:41:01.72Z</time></trkpt><trkpt lat="41.263295" lon="14.887325"><ele>257.0</ele><time>2026-03-15T11:41:02.721Z</time></trkpt><trkpt lat="41.2632883" lon="14.8874517"><ele>257.0</ele><time>2026-03-15T11:41:03.721Z</time></trkpt><trkpt lat="41.2632767" lon="14.8875817"><ele>257.0</ele><time>2026-03-15T11:41:04.721Z</time></trkpt><trkpt lat="41.2632733" lon="14.887705"><ele>257.0</ele><time>2026-03-15T11:41:05.721Z</time></trkpt><trkpt lat="41.2632783" lon="14.887825"><ele>257.0</ele><time>2026-03-15T11:41:06.721Z</time></trkpt><trkpt lat="41.2632983" lon="14.887945"><ele>257.2</ele><time>2026-03-15T11:41:07.721Z</time></trkpt><trkpt lat="41.2633217" lon="14.8880633"><ele>257.4</ele><time>2026-03-15T11:41:08.721Z</time></trkpt><trkpt lat="41.2633433" lon="14.8881767"><ele>257.6</ele><time>2026-03-15T11:41:09.721Z</time></trkpt><trkpt lat="41.2633717" lon="14.8882933"><ele>257.8</ele><time>2026-03-15T11:41:10.721Z</time></trkpt><trkpt lat="41.2634" lon="14.8884117"><ele>258.0</ele><time>2026-03-15T11:41:11.721Z</time></trkpt><trkpt lat="41.263425" lon="14.8885333"><ele>258.0</ele><time>2026-03-15T11:41:12.721Z</time></trkpt><trkpt lat="41.26345" lon="14.888645"><ele>258.0</ele><time>2026-03-15T11:41:13.721Z</time></trkpt><trkpt lat="41.2634683" lon="14.88876"><ele>258.0</ele><time>2026-03-15T11:41:14.72Z</time></trkpt><trkpt lat="41.2634933" lon="14.8888767"><ele>258.0</ele><time>2026-03-15T11:41:15.72Z</time></trkpt><trkpt lat="41.263525" lon="14.8889917"><ele>258.0</ele><time>2026-03-15T11:41:16.721Z</time></trkpt><trkpt lat="41.2635583" lon="14.889085"><ele>258.0</ele><time>2026-03-15T11:41:17.721Z</time></trkpt><trkpt lat="41.2635917" lon="14.8891667"><ele>258.0</ele><time>2026-03-15T11:41:18.721Z</time></trkpt><trkpt lat="41.2636333" lon="14.8892483"><ele>258.0</ele><time>2026-03-15T11:41:19.721Z</time></trkpt><trkpt lat="41.26368" lon="14.8893183"><ele>258.0</ele><time>2026-03-15T11:41:20.721Z</time></trkpt><trkpt lat="41.263735" lon="14.889405"><ele>258.0</ele><time>2026-03-15T11:41:21.721Z</time></trkpt><trkpt lat="41.2638" lon="14.8894967"><ele>258.0</ele><time>2026-03-15T11:41:22.721Z</time></trkpt><trkpt lat="41.2638783" lon="14.8896133"><ele>258.0</ele><time>2026-03-15T11:41:23.721Z</time></trkpt><trkpt lat="41.263965" lon="14.8897517"><ele>258.0</ele><time>2026-03-15T11:41:24.721Z</time></trkpt><trkpt lat="41.264055" lon="14.8898983"><ele>258.0</ele><time>2026-03-15T11:41:25.721Z</time></trkpt><trkpt lat="41.264145" lon="14.8900617"><ele>258.0</ele><time>2026-03-15T11:41:26.721Z</time></trkpt><trkpt lat="41.2642517" lon="14.8902533"><ele>258.0</ele><time>2026-03-15T11:41:27.721Z</time></trkpt><trkpt lat="41.2643633" lon="14.89046"><ele>258.0</ele><time>2026-03-15T11:41:28.72Z</time></trkpt><trkpt lat="41.2644633" lon="14.8906567"><ele>258.0</ele><time>2026-03-15T11:41:29.721Z</time></trkpt><trkpt lat="41.2645583" lon="14.8908133"><ele>258.5</ele><time>2026-03-15T11:41:30.72Z</time></trkpt><trkpt lat="41.2646483" lon="14.8909583"><ele>259.0</ele><time>2026-03-15T11:41:31.721Z</time></trkpt><trkpt lat="41.26474" lon="14.891095"><ele>259.5</ele><time>2026-03-15T11:41:32.72Z</time></trkpt><trkpt lat="41.2648133" lon="14.8912433"><ele>260.0</ele><time>2026-03-15T11:41:33.721Z</time></trkpt><trkpt lat="41.2648783" lon="14.8914017"><ele>260.25</ele><time>2026-03-15T11:41:34.721Z</time></trkpt><trkpt lat="41.264945" lon="14.8915583"><ele>260.5</ele><time>2026-03-15T11:41:35.72Z</time></trkpt><trkpt lat="41.2650083" lon="14.8916983"><ele>260.75</ele><time>2026-03-15T11:41:36.721Z</time></trkpt><trkpt lat="41.2650667" lon="14.8918367"><ele>261.0</ele><time>2026-03-15T11:41:37.72Z</time></trkpt><trkpt lat="41.2651317" lon="14.89198"><ele>261.0</ele><time>2026-03-15T11:41:38.721Z</time></trkpt><trkpt lat="41.2651917" lon="14.8921133"><ele>261.0</ele><time>2026-03-15T11:41:39.721Z</time></trkpt><trkpt lat="41.265245" lon="14.8922483"><ele>261.0</ele><time>2026-03-15T11:41:40.721Z</time></trkpt><trkpt lat="41.2652917" lon="14.8923867"><ele>261.0</ele><time>2026-03-15T11:41:41.721Z</time></trkpt><trkpt lat="41.2653267" lon="14.8925233"><ele>260.75</ele><time>2026-03-15T11:41:42.721Z</time></trkpt><trkpt lat="41.2653667" lon="14.89266"><ele>260.5</ele><time>2026-03-15T11:41:43.721Z</time></trkpt><trkpt lat="41.265395" lon="14.8928067"><ele>260.25</ele><time>2026-03-15T11:41:44.721Z</time></trkpt><trkpt lat="41.26542" lon="14.8929533"><ele>260.0</ele><time>2026-03-15T11:41:45.721Z</time></trkpt><trkpt lat="41.2654483" lon="14.8930983"><ele>260.0</ele><time>2026-03-15T11:41:46.721Z</time></trkpt><trkpt lat="41.2654817" lon="14.8932433"><ele>260.0</ele><time>2026-03-15T11:41:47.721Z</time></trkpt><trkpt lat="41.2655167" lon="14.8933883"><ele>260.0</ele><time>2026-03-15T11:41:48.721Z</time></trkpt><trkpt lat="41.2655467" lon="14.8935383"><ele>260.0</ele><time>2026-03-15T11:41:49.721Z</time></trkpt><trkpt lat="41.265575" lon="14.893685"><ele>260.8</ele><time>2026-03-15T11:41:50.721Z</time></trkpt><trkpt lat="41.2656083" lon="14.8938383"><ele>261.6</ele><time>2026-03-15T11:41:51.721Z</time></trkpt><trkpt lat="41.2656417" lon="14.89397"><ele>262.4</ele><time>2026-03-15T11:41:52.721Z</time></trkpt><trkpt lat="41.26567" lon="14.8941067"><ele>263.2</ele><time>2026-03-15T11:41:53.721Z</time></trkpt><trkpt lat="41.2656917" lon="14.89423"><ele>264.0</ele><time>2026-03-15T11:41:54.721Z</time></trkpt><trkpt lat="41.2657267" lon="14.8943283"><ele>264.0</ele><time>2026-03-15T11:41:55.72Z</time></trkpt><trkpt lat="41.26577" lon="14.8944083"><ele>264.0</ele><time>2026-03-15T11:41:56.721Z</time></trkpt><trkpt lat="41.2657917" lon="14.8945133"><ele>264.0</ele><time>2026-03-15T11:41:58.72Z</time></trkpt><trkpt lat="41.2657167" lon="14.8945617"><ele>264.0</ele><time>2026-03-15T11:42:01.721Z</time></trkpt><trkpt lat="41.2655883" lon="14.8945517"><ele>264.0</ele><time>2026-03-15T11:42:03.721Z</time></trkpt><trkpt lat="41.2655" lon="14.8945517"><ele>264.0</ele><time>2026-03-15T11:42:04.72Z</time></trkpt><trkpt lat="41.2654017" lon="14.8945683"><ele>264.0</ele><time>2026-03-15T11:42:05.72Z</time></trkpt><trkpt lat="41.2653067" lon="14.8945917"><ele>264.0</ele><time>2026-03-15T11:42:06.721Z</time></trkpt><trkpt lat="41.2652033" lon="14.8946133"><ele>264.0</ele><time>2026-03-15T11:42:07.72Z</time></trkpt><trkpt lat="41.2650867" lon="14.89465"><ele>264.0</ele><time>2026-03-15T11:42:08.721Z</time></trkpt><trkpt lat="41.26497" lon="14.8947033"><ele>264.0</ele><time>2026-03-15T11:42:09.721Z</time></trkpt><trkpt lat="41.2648583" lon="14.8947633"><ele>264.0</ele><time>2026-03-15T11:42:10.721Z</time></trkpt><trkpt lat="41.264745" lon="14.8948217"><ele>264.0</ele><time>2026-03-15T11:42:11.721Z</time></trkpt><trkpt lat="41.26464" lon="14.8948767"><ele>264.0</ele><time>2026-03-15T11:42:12.721Z</time></trkpt><trkpt lat="41.26454" lon="14.8949417"><ele>263.5</ele><time>2026-03-15T11:42:13.721Z</time></trkpt><trkpt lat="41.2644417" lon="14.8950283"><ele>263.0</ele><time>2026-03-15T11:42:14.721Z</time></trkpt><trkpt lat="41.2643483" lon="14.89512"><ele>262.5</ele><time>2026-03-15T11:42:15.72Z</time></trkpt><trkpt lat="41.264255" lon="14.8952267"><ele>262.0</ele><time>2026-03-15T11:42:16.721Z</time></trkpt><trkpt lat="41.2641633" lon="14.8953317"><ele>262.0</ele><time>2026-03-15T11:42:17.721Z</time></trkpt><trkpt lat="41.2640733" lon="14.895445"><ele>262.0</ele><time>2026-03-15T11:42:18.72Z</time></trkpt><trkpt lat="41.2639767" lon="14.895555"><ele>262.0</ele><time>2026-03-15T11:42:19.721Z</time></trkpt><trkpt lat="41.263885" lon="14.89567"><ele>262.0</ele><time>2026-03-15T11:42:20.72Z</time></trkpt><trkpt lat="41.2637883" lon="14.8957883"><ele>262.5</ele><time>2026-03-15T11:42:21.721Z</time></trkpt><trkpt lat="41.2636833" lon="14.8958983"><ele>263.0</ele><time>2026-03-15T11:42:22.72Z</time></trkpt><trkpt lat="41.263585" lon="14.8960083"><ele>263.5</ele><time>2026-03-15T11:42:23.721Z</time></trkpt><trkpt lat="41.2634833" lon="14.8961167"><ele>264.0</ele><time>2026-03-15T11:42:24.721Z</time></trkpt><trkpt lat="41.2633867" lon="14.8962133"><ele>264.0</ele><time>2026-03-15T11:42:25.721Z</time></trkpt><trkpt lat="41.2632933" lon="14.8963017"><ele>264.0</ele><time>2026-03-15T11:42:26.721Z</time></trkpt><trkpt lat="41.2632" lon="14.89639"><ele>264.0</ele><time>2026-03-15T11:42:27.721Z</time></trkpt><trkpt lat="41.2631067" lon="14.89649"><ele>264.0</ele><time>2026-03-15T11:42:28.721Z</time></trkpt><trkpt lat="41.26301" lon="14.8965983"><ele>263.0</ele><time>2026-03-15T11:42:29.721Z</time></trkpt><trkpt lat="41.2629283" lon="14.8967033"><ele>262.0</ele><time>2026-03-15T11:42:30.721Z</time></trkpt><trkpt lat="41.2628433" lon="14.8968133"><ele>261.0</ele><time>2026-03-15T11:42:31.721Z</time></trkpt><trkpt lat="41.2627533" lon="14.8969183"><ele>260.0</ele><time>2026-03-15T11:42:32.72Z</time></trkpt><trkpt lat="41.262665" lon="14.8970183"><ele>260.0</ele><time>2026-03-15T11:42:33.721Z</time></trkpt><trkpt lat="41.262585" lon="14.8971217"><ele>260.0</ele><time>2026-03-15T11:42:34.721Z</time></trkpt><trkpt lat="41.2625067" lon="14.89723"><ele>260.0</ele><time>2026-03-15T11:42:35.721Z</time></trkpt><trkpt lat="41.2624233" lon="14.897345"><ele>260.0</ele><time>2026-03-15T11:42:36.721Z</time></trkpt><trkpt lat="41.2623467" lon="14.8974733"><ele>259.6</ele><time>2026-03-15T11:42:37.721Z</time></trkpt><trkpt lat="41.2622717" lon="14.8975967"><ele>259.2</ele><time>2026-03-15T11:42:38.721Z</time></trkpt><trkpt lat="41.262205" lon="14.8977133"><ele>258.8</ele><time>2026-03-15T11:42:39.721Z</time></trkpt><trkpt lat="41.2621633" lon="14.8978017"><ele>258.4</ele><time>2026-03-15T11:42:40.721Z</time></trkpt><trkpt lat="41.262125" lon="14.897875"><ele>258.0</ele><time>2026-03-15T11:42:42.721Z</time></trkpt><trkpt lat="41.2620383" lon="14.8978733"><ele>258.0</ele><time>2026-03-15T11:42:45.721Z</time></trkpt><trkpt lat="41.2619833" lon="14.8978267"><ele>258.0</ele><time>2026-03-15T11:42:46.721Z</time></trkpt><trkpt lat="41.2619133" lon="14.897755"><ele>258.0</ele><time>2026-03-15T11:42:47.721Z</time></trkpt><trkpt lat="41.2618333" lon="14.897685"><ele>258.0</ele><time>2026-03-15T11:42:48.72Z</time></trkpt><trkpt lat="41.2617233" lon="14.8975883"><ele>258.0</ele><time>2026-03-15T11:42:49.721Z</time></trkpt><trkpt lat="41.261585" lon="14.897485"><ele>256.0</ele><time>2026-03-15T11:42:50.721Z</time></trkpt><trkpt lat="41.2614333" lon="14.8974033"><ele>254.0</ele><time>2026-03-15T11:42:51.721Z</time></trkpt><trkpt lat="41.2612817" lon="14.89735"><ele>252.0</ele><time>2026-03-15T11:42:52.721Z</time></trkpt><trkpt lat="41.2611167" lon="14.89732"><ele>252.0</ele><time>2026-03-15T11:42:53.721Z</time></trkpt><trkpt lat="41.2609283" lon="14.8973467"><ele>252.0</ele><time>2026-03-15T11:42:54.721Z</time></trkpt><trkpt lat="41.26072" lon="14.897395"><ele>252.0</ele><time>2026-03-15T11:42:55.721Z</time></trkpt><trkpt lat="41.260505" lon="14.8974333"><ele>252.0</ele><time>2026-03-15T11:42:56.721Z</time></trkpt><trkpt lat="41.2602983" lon="14.8974733"><ele>252.0</ele><time>2026-03-15T11:42:57.721Z</time></trkpt><trkpt lat="41.2601017" lon="14.8975133"><ele>252.0</ele><time>2026-03-15T11:42:58.72Z</time></trkpt><trkpt lat="41.2599" lon="14.89755"><ele>253.0</ele><time>2026-03-15T11:42:59.721Z</time></trkpt><trkpt lat="41.2596867" lon="14.8975933"><ele>254.0</ele><time>2026-03-15T11:43:00.721Z</time></trkpt><trkpt lat="41.25948" lon="14.89764"><ele>255.0</ele><time>2026-03-15T11:43:01.721Z</time></trkpt><trkpt lat="41.2592867" lon="14.8976883"><ele>255.0</ele><time>2026-03-15T11:43:02.721Z</time></trkpt><trkpt lat="41.2591083" lon="14.8977217"><ele>255.0</ele><time>2026-03-15T11:43:03.721Z</time></trkpt><trkpt lat="41.2589483" lon="14.8977167"><ele>255.0</ele><time>2026-03-15T11:43:04.721Z</time></trkpt><trkpt lat="41.258805" lon="14.89769"><ele>255.0</ele><time>2026-03-15T11:43:05.721Z</time></trkpt><trkpt lat="41.2586683" lon="14.8976283"><ele>255.0</ele><time>2026-03-15T11:43:06.72Z</time></trkpt><trkpt lat="41.2585367" lon="14.89752"><ele>255.0</ele><time>2026-03-15T11:43:07.721Z</time></trkpt><trkpt lat="41.258425" lon="14.8973867"><ele>255.0</ele><time>2026-03-15T11:43:08.721Z</time></trkpt><trkpt lat="41.2583367" lon="14.8972317"><ele>255.0</ele><time>2026-03-15T11:43:09.721Z</time></trkpt><trkpt lat="41.2582817" lon="14.89706"><ele>255.0</ele><time>2026-03-15T11:43:10.721Z</time></trkpt><trkpt lat="41.25827" lon="14.8968483"><ele>255.0</ele><time>2026-03-15T11:43:11.721Z</time></trkpt><trkpt lat="41.258295" lon="14.8966083"><ele>255.0</ele><time>2026-03-15T11:43:12.721Z</time></trkpt><trkpt lat="41.2583367" lon="14.8963633"><ele>255.0</ele><time>2026-03-15T11:43:13.721Z</time></trkpt><trkpt lat="41.25839" lon="14.8961083"><ele>255.0</ele><time>2026-03-15T11:43:14.721Z</time></trkpt><trkpt lat="41.25844" lon="14.8958383"><ele>256.3333333333333</ele><time>2026-03-15T11:43:15.721Z</time></trkpt><trkpt lat="41.2584917" lon="14.8955733"><ele>257.66666666666663</ele><time>2026-03-15T11:43:16.721Z</time></trkpt><trkpt lat="41.2585467" lon="14.8953333"><ele>259.0</ele><time>2026-03-15T11:43:17.721Z</time></trkpt><trkpt lat="41.258595" lon="14.89511"><ele>259.8</ele><time>2026-03-15T11:43:18.721Z</time></trkpt><trkpt lat="41.258635" lon="14.8949467"><ele>260.59999999999997</ele><time>2026-03-15T11:43:19.721Z</time></trkpt><trkpt lat="41.2586667" lon="14.8947967"><ele>261.4</ele><time>2026-03-15T11:43:20.721Z</time></trkpt><trkpt lat="41.2586833" lon="14.8946867"><ele>262.2</ele><time>2026-03-15T11:43:21.721Z</time></trkpt><trkpt lat="41.2586667" lon="14.8945967"><ele>263.0</ele><time>2026-03-15T11:43:22.721Z</time></trkpt><trkpt lat="41.25859" lon="14.89453"><ele>263.0</ele><time>2026-03-15T11:43:24.721Z</time></trkpt><trkpt lat="41.25853" lon="14.89456"><ele>263.0</ele><time>2026-03-15T11:43:25.721Z</time></trkpt><trkpt lat="41.2584667" lon="14.894635"><ele>263.0</ele><time>2026-03-15T11:43:26.721Z</time></trkpt><trkpt lat="41.2584067" lon="14.8947583"><ele>263.0</ele><time>2026-03-15T11:43:27.72Z</time></trkpt><trkpt lat="41.25834" lon="14.8949033"><ele>263.0</ele><time>2026-03-15T11:43:28.721Z</time></trkpt><trkpt lat="41.258265" lon="14.895055"><ele>262.0</ele><time>2026-03-15T11:43:29.721Z</time></trkpt><trkpt lat="41.258185" lon="14.89518"><ele>261.0</ele><time>2026-03-15T11:43:30.721Z</time></trkpt><trkpt lat="41.2580917" lon="14.8953033"><ele>260.0</ele><time>2026-03-15T11:43:31.721Z</time></trkpt><trkpt lat="41.2579817" lon="14.895395"><ele>259.0</ele><time>2026-03-15T11:43:32.72Z</time></trkpt><trkpt lat="41.257845" lon="14.8954917"><ele>262.0</ele><time>2026-03-15T11:43:33.72Z</time></trkpt><trkpt lat="41.2577017" lon="14.8955867"><ele>265.0</ele><time>2026-03-15T11:43:34.721Z</time></trkpt><trkpt lat="41.2575683" lon="14.8956983"><ele>268.0</ele><time>2026-03-15T11:43:35.721Z</time></trkpt><trkpt lat="41.25744" lon="14.8958233"><ele>266.66666666666663</ele><time>2026-03-15T11:43:36.721Z</time></trkpt><trkpt lat="41.2572967" lon="14.8959433"><ele>265.3333333333333</ele><time>2026-03-15T11:43:37.721Z</time></trkpt><trkpt lat="41.2571517" lon="14.896035"><ele>264.0</ele><time>2026-03-15T11:43:38.721Z</time></trkpt><trkpt lat="41.2570117" lon="14.8961017"><ele>266.25</ele><time>2026-03-15T11:43:39.721Z</time></trkpt><trkpt lat="41.2568767" lon="14.8961867"><ele>268.5</ele><time>2026-03-15T11:43:40.721Z</time></trkpt><trkpt lat="41.256775" lon="14.896305"><ele>270.75</ele><time>2026-03-15T11:43:41.721Z</time></trkpt><trkpt lat="41.25671" lon="14.89645"><ele>273.0</ele><time>2026-03-15T11:43:42.721Z</time></trkpt><trkpt lat="41.2566417" lon="14.8965767"><ele>273.0</ele><time>2026-03-15T11:43:43.721Z</time></trkpt><trkpt lat="41.256555" lon="14.8966933"><ele>273.0</ele><time>2026-03-15T11:43:44.721Z</time></trkpt><trkpt lat="41.25646" lon="14.8967783"><ele>273.0</ele><time>2026-03-15T11:43:45.72Z</time></trkpt><trkpt lat="41.2563433" lon="14.89682"><ele>273.0</ele><time>2026-03-15T11:43:46.72Z</time></trkpt><trkpt lat="41.2562317" lon="14.8968167"><ele>272.0</ele><time>2026-03-15T11:43:47.721Z</time></trkpt><trkpt lat="41.2560983" lon="14.8967883"><ele>271.0</ele><time>2026-03-15T11:43:48.721Z</time></trkpt><trkpt lat="41.2559683" lon="14.8967633"><ele>270.0</ele><time>2026-03-15T11:43:49.721Z</time></trkpt><trkpt lat="41.2558317" lon="14.89675"><ele>269.0</ele><time>2026-03-15T11:43:50.72Z</time></trkpt><trkpt lat="41.25569" lon="14.8967533"><ele>272.75</ele><time>2026-03-15T11:43:51.72Z</time></trkpt><trkpt lat="41.2555467" lon="14.8967783"><ele>276.5</ele><time>2026-03-15T11:43:52.721Z</time></trkpt><trkpt lat="41.2554217" lon="14.8968317"><ele>280.25</ele><time>2026-03-15T11:43:53.721Z</time></trkpt><trkpt lat="41.2553117" lon="14.8969017"><ele>284.0</ele><time>2026-03-15T11:43:54.721Z</time></trkpt><trkpt lat="41.2552133" lon="14.8970083"><ele>284.0</ele><time>2026-03-15T11:43:55.721Z</time></trkpt><trkpt lat="41.2551217" lon="14.8971333"><ele>284.0</ele><time>2026-03-15T11:43:56.721Z</time></trkpt><trkpt lat="41.255035" lon="14.897255"><ele>284.0</ele><time>2026-03-15T11:43:57.721Z</time></trkpt><trkpt lat="41.254945" lon="14.897375"><ele>284.0</ele><time>2026-03-15T11:43:58.721Z</time></trkpt><trkpt lat="41.2548417" lon="14.89747"><ele>283.75</ele><time>2026-03-15T11:43:59.721Z</time></trkpt><trkpt lat="41.2547317" lon="14.8975517"><ele>283.5</ele><time>2026-03-15T11:44:00.72Z</time></trkpt><trkpt lat="41.2546217" lon="14.8976383"><ele>283.25</ele><time>2026-03-15T11:44:01.721Z</time></trkpt><trkpt lat="41.2544933" lon="14.8977217"><ele>283.0</ele><time>2026-03-15T11:44:02.72Z</time></trkpt><trkpt lat="41.2543667" lon="14.8978067"><ele>283.0</ele><time>2026-03-15T11:44:03.72Z</time></trkpt><trkpt lat="41.2542483" lon="14.8979"><ele>283.0</ele><time>2026-03-15T11:44:04.721Z</time></trkpt><trkpt lat="41.25413" lon="14.8979933"><ele>283.0</ele><time>2026-03-15T11:44:05.721Z</time></trkpt><trkpt lat="41.25401" lon="14.8980883"><ele>283.0</ele><time>2026-03-15T11:44:06.721Z</time></trkpt><trkpt lat="41.2538833" lon="14.8981833"><ele>284.25</ele><time>2026-03-15T11:44:07.721Z</time></trkpt><trkpt lat="41.2537583" lon="14.898275"><ele>285.5</ele><time>2026-03-15T11:44:08.721Z</time></trkpt><trkpt lat="41.2536267" lon="14.898355"><ele>286.75</ele><time>2026-03-15T11:44:09.721Z</time></trkpt><trkpt lat="41.253495" lon="14.8984383"><ele>288.0</ele><time>2026-03-15T11:44:10.721Z</time></trkpt><trkpt lat="41.2533617" lon="14.898505"><ele>288.0</ele><time>2026-03-15T11:44:11.721Z</time></trkpt><trkpt lat="41.2532367" lon="14.8985567"><ele>288.0</ele><time>2026-03-15T11:44:12.72Z</time></trkpt><trkpt lat="41.2531283" lon="14.8986367"><ele>288.0</ele><time>2026-03-15T11:44:13.72Z</time></trkpt><trkpt lat="41.2530317" lon="14.89874"><ele>288.0</ele><time>2026-03-15T11:44:14.721Z</time></trkpt><trkpt lat="41.2529417" lon="14.898855"><ele>288.4</ele><time>2026-03-15T11:44:15.721Z</time></trkpt><trkpt lat="41.252865" lon="14.8989683"><ele>288.8</ele><time>2026-03-15T11:44:16.721Z</time></trkpt><trkpt lat="41.2527883" lon="14.8990717"><ele>289.2</ele><time>2026-03-15T11:44:17.721Z</time></trkpt><trkpt lat="41.252715" lon="14.899175"><ele>289.6</ele><time>2026-03-15T11:44:18.721Z</time></trkpt><trkpt lat="41.2526417" lon="14.8992683"><ele>290.0</ele><time>2026-03-15T11:44:19.721Z</time></trkpt><trkpt lat="41.25256" lon="14.8993517"><ele>290.0</ele><time>2026-03-15T11:44:20.721Z</time></trkpt><trkpt lat="41.252465" lon="14.8994283"><ele>290.0</ele><time>2026-03-15T11:44:21.721Z</time></trkpt><trkpt lat="41.252365" lon="14.899485"><ele>290.0</ele><time>2026-03-15T11:44:22.721Z</time></trkpt><trkpt lat="41.2522617" lon="14.8995267"><ele>290.0</ele><time>2026-03-15T11:44:23.721Z</time></trkpt><trkpt lat="41.25215" lon="14.8995267"><ele>290.0</ele><time>2026-03-15T11:44:24.721Z</time></trkpt><trkpt lat="41.252045" lon="14.8994917"><ele>290.5</ele><time>2026-03-15T11:44:25.721Z</time></trkpt><trkpt lat="41.2519433" lon="14.899435"><ele>291.0</ele><time>2026-03-15T11:44:26.72Z</time></trkpt><trkpt lat="41.25184" lon="14.8993683"><ele>291.5</ele><time>2026-03-15T11:44:27.72Z</time></trkpt><trkpt lat="41.25173" lon="14.8992867"><ele>292.0</ele><time>2026-03-15T11:44:28.721Z</time></trkpt><trkpt lat="41.25162" lon="14.8992133"><ele>295.25</ele><time>2026-03-15T11:44:29.72Z</time></trkpt><trkpt lat="41.25151" lon="14.8991633"><ele>298.5</ele><time>2026-03-15T11:44:30.721Z</time></trkpt><trkpt lat="41.2513967" lon="14.8991183"><ele>301.75</ele><time>2026-03-15T11:44:31.72Z</time></trkpt><trkpt lat="41.251285" lon="14.899095"><ele>305.0</ele><time>2026-03-15T11:44:32.721Z</time></trkpt><trkpt lat="41.2511733" lon="14.8990783"><ele>305.0</ele><time>2026-03-15T11:44:33.721Z</time></trkpt><trkpt lat="41.25106" lon="14.8990517"><ele>305.0</ele><time>2026-03-15T11:44:34.72Z</time></trkpt><trkpt lat="41.2509583" lon="14.8990233"><ele>305.0</ele><time>2026-03-15T11:44:35.721Z</time></trkpt><trkpt lat="41.2508567" lon="14.898985"><ele>305.0</ele><time>2026-03-15T11:44:36.72Z</time></trkpt><trkpt lat="41.2507667" lon="14.8989367"><ele>305.0</ele><time>2026-03-15T11:44:37.721Z</time></trkpt><trkpt lat="41.25069" lon="14.8988917"><ele>304.2</ele><time>2026-03-15T11:44:38.721Z</time></trkpt><trkpt lat="41.2506183" lon="14.8988217"><ele>303.4</ele><time>2026-03-15T11:44:39.721Z</time></trkpt><trkpt lat="41.2505517" lon="14.898755"><ele>302.6</ele><time>2026-03-15T11:44:40.721Z</time></trkpt><trkpt lat="41.250485" lon="14.898675"><ele>301.8</ele><time>2026-03-15T11:44:41.721Z</time></trkpt><trkpt lat="41.250415" lon="14.89857"><ele>301.0</ele><time>2026-03-15T11:44:42.72Z</time></trkpt><trkpt lat="41.25035" lon="14.8984583"><ele>303.5</ele><time>2026-03-15T11:44:43.721Z</time></trkpt><trkpt lat="41.250295" lon="14.89833"><ele>306.0</ele><time>2026-03-15T11:44:44.721Z</time></trkpt><trkpt lat="41.2502283" lon="14.898205"><ele>308.5</ele><time>2026-03-15T11:44:45.721Z</time></trkpt><trkpt lat="41.2501617" lon="14.8980617"><ele>311.0</ele><time>2026-03-15T11:44:46.721Z</time></trkpt><trkpt lat="41.2501033" lon="14.8979133"><ele>311.0</ele><time>2026-03-15T11:44:47.721Z</time></trkpt><trkpt lat="41.250045" lon="14.897765"><ele>311.0</ele><time>2026-03-15T11:44:48.721Z</time></trkpt><trkpt lat="41.2500083" lon="14.8975933"><ele>311.0</ele><time>2026-03-15T11:44:49.721Z</time></trkpt><trkpt lat="41.2499767" lon="14.897425"><ele>311.0</ele><time>2026-03-15T11:44:50.721Z</time></trkpt><trkpt lat="41.249925" lon="14.89728"><ele>311.2</ele><time>2026-03-15T11:44:51.721Z</time></trkpt><trkpt lat="41.2498717" lon="14.8971317"><ele>311.40000000000003</ele><time>2026-03-15T11:44:52.72Z</time></trkpt><trkpt lat="41.2497983" lon="14.89702"><ele>311.6</ele><time>2026-03-15T11:44:53.721Z</time></trkpt><trkpt lat="41.249715" lon="14.8969317"><ele>311.8</ele><time>2026-03-15T11:44:54.721Z</time></trkpt><trkpt lat="41.2496283" lon="14.89685"><ele>312.0</ele><time>2026-03-15T11:44:55.721Z</time></trkpt><trkpt lat="41.2495533" lon="14.8967617"><ele>313.0</ele><time>2026-03-15T11:44:56.721Z</time></trkpt><trkpt lat="41.24949" lon="14.896665"><ele>314.0</ele><time>2026-03-15T11:44:57.721Z</time></trkpt><trkpt lat="41.2494567" lon="14.8965683"><ele>315.0</ele><time>2026-03-15T11:44:58.721Z</time></trkpt><trkpt lat="41.249455" lon="14.8964733"><ele>316.0</ele><time>2026-03-15T11:44:59.72Z</time></trkpt><trkpt lat="41.249495" lon="14.8963917"><ele>317.0</ele><time>2026-03-15T11:45:00.721Z</time></trkpt><trkpt lat="41.24957" lon="14.8963533"><ele>318.0</ele><time>2026-03-15T11:45:01.72Z</time></trkpt><trkpt lat="41.2496567" lon="14.8963433"><ele>318.0</ele><time>2026-03-15T11:45:02.721Z</time></trkpt><trkpt lat="41.2497817" lon="14.8963733"><ele>318.0</ele><time>2026-03-15T11:45:03.72Z</time></trkpt><trkpt lat="41.24993" lon="14.896435"><ele>318.0</ele><time>2026-03-15T11:45:04.721Z</time></trkpt><trkpt lat="41.2500933" lon="14.8965183"><ele>317.3333333333333</ele><time>2026-03-15T11:45:05.721Z</time></trkpt><trkpt lat="41.2502517" lon="14.896605"><ele>316.66666666666663</ele><time>2026-03-15T11:45:06.721Z</time></trkpt><trkpt lat="41.2503767" lon="14.8967167"><ele>316.0</ele><time>2026-03-15T11:45:07.721Z</time></trkpt><trkpt lat="41.2504833" lon="14.896845"><ele>316.0</ele><time>2026-03-15T11:45:08.721Z</time></trkpt><trkpt lat="41.2505783" lon="14.8969733"><ele>316.0</ele><time>2026-03-15T11:45:09.721Z</time></trkpt><trkpt lat="41.250675" lon="14.8970983"><ele>316.0</ele><time>2026-03-15T11:45:10.72Z</time></trkpt><trkpt lat="41.250775" lon="14.8972"><ele>316.0</ele><time>2026-03-15T11:45:11.721Z</time></trkpt><trkpt lat="41.2508867" lon="14.8972683"><ele>317.75</ele><time>2026-03-15T11:45:12.721Z</time></trkpt><trkpt lat="41.2509983" lon="14.8973083"><ele>319.5</ele><time>2026-03-15T11:45:13.721Z</time></trkpt><trkpt lat="41.2511183" lon="14.8973167"><ele>321.25</ele><time>2026-03-15T11:45:14.721Z</time></trkpt><trkpt lat="41.25124" lon="14.8972767"><ele>323.0</ele><time>2026-03-15T11:45:15.721Z</time></trkpt><trkpt lat="41.25136" lon="14.8972017"><ele>323.0</ele><time>2026-03-15T11:45:16.721Z</time></trkpt><trkpt lat="41.2514767" lon="14.8970983"><ele>323.0</ele><time>2026-03-15T11:45:17.72Z</time></trkpt><trkpt lat="41.2515783" lon="14.89697"><ele>323.0</ele><time>2026-03-15T11:45:18.72Z</time></trkpt><trkpt lat="41.2516833" lon="14.89682"><ele>323.0</ele><time>2026-03-15T11:45:19.721Z</time></trkpt><trkpt lat="41.25178" lon="14.896665"><ele>325.5</ele><time>2026-03-15T11:45:20.72Z</time></trkpt><trkpt lat="41.251855" lon="14.8965233"><ele>328.0</ele><time>2026-03-15T11:45:21.721Z</time></trkpt><trkpt lat="41.2519117" lon="14.8963683"><ele>330.5</ele><time>2026-03-15T11:45:22.721Z</time></trkpt><trkpt lat="41.2519433" lon="14.8962067"><ele>333.0</ele><time>2026-03-15T11:45:23.721Z</time></trkpt><trkpt lat="41.2519567" lon="14.896055"><ele>334.0</ele><time>2026-03-15T11:45:24.721Z</time></trkpt><trkpt lat="41.2519467" lon="14.8958983"><ele>335.0</ele><time>2026-03-15T11:45:25.72Z</time></trkpt><trkpt lat="41.2519" lon="14.8957417"><ele>336.0</ele><time>2026-03-15T11:45:26.721Z</time></trkpt><trkpt lat="41.2518417" lon="14.8956033"><ele>337.0</ele><time>2026-03-15T11:45:27.721Z</time></trkpt><trkpt lat="41.251775" lon="14.8954583"><ele>337.0</ele><time>2026-03-15T11:45:28.721Z</time></trkpt><trkpt lat="41.2517283" lon="14.8952933"><ele>337.0</ele><time>2026-03-15T11:45:29.721Z</time></trkpt><trkpt lat="41.2517" lon="14.895115"><ele>337.0</ele><time>2026-03-15T11:45:30.72Z</time></trkpt><trkpt lat="41.2517083" lon="14.8949317"><ele>337.0</ele><time>2026-03-15T11:45:31.721Z</time></trkpt><trkpt lat="41.2517067" lon="14.8947583"><ele>337.75</ele><time>2026-03-15T11:45:32.72Z</time></trkpt><trkpt lat="41.2516933" lon="14.8945933"><ele>338.5</ele><time>2026-03-15T11:45:33.721Z</time></trkpt><trkpt lat="41.2516567" lon="14.8944467"><ele>339.25</ele><time>2026-03-15T11:45:34.721Z</time></trkpt><trkpt lat="41.251595" lon="14.89431"><ele>340.0</ele><time>2026-03-15T11:45:35.721Z</time></trkpt><trkpt lat="41.2515017" lon="14.89417"><ele>343.0</ele><time>2026-03-15T11:45:36.721Z</time></trkpt><trkpt lat="41.2514083" lon="14.894025"><ele>346.0</ele><time>2026-03-15T11:45:37.721Z</time></trkpt><trkpt lat="41.251305" lon="14.893875"><ele>349.0</ele><time>2026-03-15T11:45:38.72Z</time></trkpt><trkpt lat="41.2512033" lon="14.8937133"><ele>349.0</ele><time>2026-03-15T11:45:39.72Z</time></trkpt><trkpt lat="41.2510867" lon="14.8935583"><ele>349.0</ele><time>2026-03-15T11:45:40.721Z</time></trkpt><trkpt lat="41.250985" lon="14.8933867"><ele>349.0</ele><time>2026-03-15T11:45:41.72Z</time></trkpt><trkpt lat="41.2508783" lon="14.8932167"><ele>349.0</ele><time>2026-03-15T11:45:42.72Z</time></trkpt><trkpt lat="41.25077" lon="14.89306"><ele>349.0</ele><time>2026-03-15T11:45:43.72Z</time></trkpt><trkpt lat="41.25066" lon="14.8929117"><ele>349.0</ele><time>2026-03-15T11:45:44.721Z</time></trkpt><trkpt lat="41.2505667" lon="14.8927683"><ele>350.75</ele><time>2026-03-15T11:45:45.721Z</time></trkpt><trkpt lat="41.2504967" lon="14.8926283"><ele>352.5</ele><time>2026-03-15T11:45:46.72Z</time></trkpt><trkpt lat="41.2504383" lon="14.892495"><ele>354.25</ele><time>2026-03-15T11:45:47.721Z</time></trkpt><trkpt lat="41.250405" lon="14.8923533"><ele>356.0</ele><time>2026-03-15T11:45:48.72Z</time></trkpt><trkpt lat="41.250405" lon="14.8922"><ele>355.5</ele><time>2026-03-15T11:45:49.721Z</time></trkpt><trkpt lat="41.2504433" lon="14.8920383"><ele>355.0</ele><time>2026-03-15T11:45:50.72Z</time></trkpt><trkpt lat="41.2505267" lon="14.891885"><ele>354.5</ele><time>2026-03-15T11:45:51.721Z</time></trkpt><trkpt lat="41.250625" lon="14.89174"><ele>354.0</ele><time>2026-03-15T11:45:52.721Z</time></trkpt><trkpt lat="41.25072" lon="14.8915817"><ele>354.0</ele><time>2026-03-15T11:45:53.721Z</time></trkpt><trkpt lat="41.2508033" lon="14.89141"><ele>354.0</ele><time>2026-03-15T11:45:54.721Z</time></trkpt><trkpt lat="41.250875" lon="14.89123"><ele>354.0</ele><time>2026-03-15T11:45:55.721Z</time></trkpt><trkpt lat="41.2509467" lon="14.891045"><ele>355.25</ele><time>2026-03-15T11:45:56.721Z</time></trkpt><trkpt lat="41.2509783" lon="14.8908633"><ele>356.5</ele><time>2026-03-15T11:45:57.721Z</time></trkpt><trkpt lat="41.25099" lon="14.8906783"><ele>357.75</ele><time>2026-03-15T11:45:58.721Z</time></trkpt><trkpt lat="41.250975" lon="14.890505"><ele>359.0</ele><time>2026-03-15T11:45:59.721Z</time></trkpt><trkpt lat="41.2509333" lon="14.8903483"><ele>359.0</ele><time>2026-03-15T11:46:00.721Z</time></trkpt><trkpt lat="41.2509017" lon="14.89018"><ele>359.0</ele><time>2026-03-15T11:46:01.721Z</time></trkpt><trkpt lat="41.250895" lon="14.89004"><ele>359.0</ele><time>2026-03-15T11:46:02.72Z</time></trkpt><trkpt lat="41.2509217" lon="14.8899167"><ele>359.0</ele><time>2026-03-15T11:46:03.721Z</time></trkpt><trkpt lat="41.2509833" lon="14.88981"><ele>359.0</ele><time>2026-03-15T11:46:04.721Z</time></trkpt><trkpt lat="41.25106" lon="14.8897267"><ele>359.0</ele><time>2026-03-15T11:46:05.721Z</time></trkpt><trkpt lat="41.2511567" lon="14.8896633"><ele>359.0</ele><time>2026-03-15T11:46:06.721Z</time></trkpt><trkpt lat="41.251265" lon="14.8895983"><ele>359.0</ele><time>2026-03-15T11:46:07.721Z</time></trkpt><trkpt lat="41.2513767" lon="14.88953"><ele>359.0</ele><time>2026-03-15T11:46:08.721Z</time></trkpt><trkpt lat="41.2514967" lon="14.88945"><ele>359.0</ele><time>2026-03-15T11:46:09.721Z</time></trkpt><trkpt lat="41.251605" lon="14.8893367"><ele>359.0</ele><time>2026-03-15T11:46:10.721Z</time></trkpt><trkpt lat="41.2517067" lon="14.8892083"><ele>359.0</ele><time>2026-03-15T11:46:11.721Z</time></trkpt><trkpt lat="41.2518183" lon="14.8890733"><ele>359.0</ele><time>2026-03-15T11:46:12.721Z</time></trkpt><trkpt lat="41.25192" lon="14.888915"><ele>361.25</ele><time>2026-03-15T11:46:13.72Z</time></trkpt><trkpt lat="41.2520367" lon="14.8887767"><ele>363.5</ele><time>2026-03-15T11:46:14.721Z</time></trkpt><trkpt lat="41.25215" lon="14.8886617"><ele>365.75</ele><time>2026-03-15T11:46:15.72Z</time></trkpt><trkpt lat="41.2522567" lon="14.8885567"><ele>368.0</ele><time>2026-03-15T11:46:16.72Z</time></trkpt><trkpt lat="41.2523517" lon="14.8884183"><ele>368.5</ele><time>2026-03-15T11:46:17.721Z</time></trkpt><trkpt lat="41.2524133" lon="14.8882583"><ele>369.0</ele><time>2026-03-15T11:46:18.721Z</time></trkpt><trkpt lat="41.2524533" lon="14.888075"><ele>369.5</ele><time>2026-03-15T11:46:19.721Z</time></trkpt><trkpt lat="41.2524817" lon="14.88788"><ele>370.0</ele><time>2026-03-15T11:46:20.72Z</time></trkpt><trkpt lat="41.252515" lon="14.8876617"><ele>372.3333333333333</ele><time>2026-03-15T11:46:21.72Z</time></trkpt><trkpt lat="41.2525433" lon="14.8874333"><ele>374.6666666666667</ele><time>2026-03-15T11:46:22.721Z</time></trkpt><trkpt lat="41.2525717" lon="14.8871933"><ele>377.0</ele><time>2026-03-15T11:46:23.721Z</time></trkpt><trkpt lat="41.252605" lon="14.8869567"><ele>378.6666666666667</ele><time>2026-03-15T11:46:24.721Z</time></trkpt><trkpt lat="41.25263" lon="14.886735"><ele>380.3333333333333</ele><time>2026-03-15T11:46:25.721Z</time></trkpt><trkpt lat="41.2526683" lon="14.8865167"><ele>382.0</ele><time>2026-03-15T11:46:26.721Z</time></trkpt><trkpt lat="41.2527083" lon="14.8863133"><ele>382.0</ele><time>2026-03-15T11:46:27.721Z</time></trkpt><trkpt lat="41.2527683" lon="14.88613"><ele>382.0</ele><time>2026-03-15T11:46:28.721Z</time></trkpt><trkpt lat="41.2528333" lon="14.885955"><ele>382.0</ele><time>2026-03-15T11:46:29.72Z</time></trkpt><trkpt lat="41.2529183" lon="14.8858083"><ele>382.0</ele><time>2026-03-15T11:46:30.72Z</time></trkpt><trkpt lat="41.2529917" lon="14.885675"><ele>383.0</ele><time>2026-03-15T11:46:31.721Z</time></trkpt><trkpt lat="41.2530367" lon="14.88554"><ele>384.0</ele><time>2026-03-15T11:46:32.72Z</time></trkpt><trkpt lat="41.2530567" lon="14.8854033"><ele>385.0</ele><time>2026-03-15T11:46:33.721Z</time></trkpt><trkpt lat="41.25306" lon="14.8852517"><ele>386.0</ele><time>2026-03-15T11:46:34.721Z</time></trkpt><trkpt lat="41.2530483" lon="14.8851083"><ele>387.0</ele><time>2026-03-15T11:46:35.721Z</time></trkpt><trkpt lat="41.2530233" lon="14.88496"><ele>388.25</ele><time>2026-03-15T11:46:36.721Z</time></trkpt><trkpt lat="41.253" lon="14.88482"><ele>389.5</ele><time>2026-03-15T11:46:37.721Z</time></trkpt><trkpt lat="41.2529417" lon="14.8846767"><ele>390.75</ele><time>2026-03-15T11:46:38.721Z</time></trkpt><trkpt lat="41.2528667" lon="14.8845383"><ele>392.0</ele><time>2026-03-15T11:46:39.72Z</time></trkpt><trkpt lat="41.2527783" lon="14.88441"><ele>392.0</ele><time>2026-03-15T11:46:40.72Z</time></trkpt><trkpt lat="41.2527067" lon="14.884265"><ele>392.0</ele><time>2026-03-15T11:46:41.721Z</time></trkpt><trkpt lat="41.252655" lon="14.8841133"><ele>392.0</ele><time>2026-03-15T11:46:42.72Z</time></trkpt><trkpt lat="41.252615" lon="14.8839417"><ele>392.0</ele><time>2026-03-15T11:46:43.72Z</time></trkpt><trkpt lat="41.252585" lon="14.8837683"><ele>392.25</ele><time>2026-03-15T11:46:44.721Z</time></trkpt><trkpt lat="41.2525617" lon="14.8835833"><ele>392.5</ele><time>2026-03-15T11:46:45.721Z</time></trkpt><trkpt lat="41.25254" lon="14.8834033"><ele>392.75</ele><time>2026-03-15T11:46:46.721Z</time></trkpt><trkpt lat="41.2525283" lon="14.8832183"><ele>393.0</ele><time>2026-03-15T11:46:47.721Z</time></trkpt><trkpt lat="41.2525317" lon="14.8830283"><ele>393.33333333333337</ele><time>2026-03-15T11:46:48.72Z</time></trkpt><trkpt lat="41.2525533" lon="14.8828267"><ele>393.6666666666667</ele><time>2026-03-15T11:46:49.721Z</time></trkpt><trkpt lat="41.2525867" lon="14.88261"><ele>394.0</ele><time>2026-03-15T11:46:50.721Z</time></trkpt><trkpt lat="41.25261" lon="14.8823983"><ele>395.6666666666667</ele><time>2026-03-15T11:46:51.721Z</time></trkpt><trkpt lat="41.25264" lon="14.8821767"><ele>397.33333333333337</ele><time>2026-03-15T11:46:52.721Z</time></trkpt><trkpt lat="41.252675" lon="14.8819483"><ele>399.0</ele><time>2026-03-15T11:46:53.721Z</time></trkpt><trkpt lat="41.2527233" lon="14.8817417"><ele>399.66666666666663</ele><time>2026-03-15T11:46:54.721Z</time></trkpt><trkpt lat="41.2527917" lon="14.881545"><ele>400.3333333333333</ele><time>2026-03-15T11:46:55.72Z</time></trkpt><trkpt lat="41.2528533" lon="14.8813433"><ele>401.0</ele><time>2026-03-15T11:46:56.72Z</time></trkpt><trkpt lat="41.2529083" lon="14.8811483"><ele>401.0</ele><time>2026-03-15T11:46:57.721Z</time></trkpt><trkpt lat="41.2529417" lon="14.8809383"><ele>401.0</ele><time>2026-03-15T11:46:58.721Z</time></trkpt><trkpt lat="41.2529617" lon="14.8807183"><ele>401.0</ele><time>2026-03-15T11:46:59.721Z</time></trkpt><trkpt lat="41.2529683" lon="14.8804883"><ele>403.3333333333333</ele><time>2026-03-15T11:47:00.721Z</time></trkpt><trkpt lat="41.2529683" lon="14.8802683"><ele>405.66666666666663</ele><time>2026-03-15T11:47:01.72Z</time></trkpt><trkpt lat="41.2529717" lon="14.8800517"><ele>408.0</ele><time>2026-03-15T11:47:02.721Z</time></trkpt><trkpt lat="41.253005" lon="14.879865"><ele>409.0</ele><time>2026-03-15T11:47:03.721Z</time></trkpt><trkpt lat="41.2530517" lon="14.8796883"><ele>410.0</ele><time>2026-03-15T11:47:04.721Z</time></trkpt><trkpt lat="41.2531283" lon="14.8795367"><ele>411.0</ele><time>2026-03-15T11:47:05.721Z</time></trkpt><trkpt lat="41.253225" lon="14.879415"><ele>412.0</ele><time>2026-03-15T11:47:06.721Z</time></trkpt><trkpt lat="41.2533367" lon="14.8792933"><ele>411.40000000000003</ele><time>2026-03-15T11:47:07.721Z</time></trkpt><trkpt lat="41.25343" lon="14.8792"><ele>410.8</ele><time>2026-03-15T11:47:08.721Z</time></trkpt><trkpt lat="41.25351" lon="14.8791033"><ele>410.2</ele><time>2026-03-15T11:47:09.721Z</time></trkpt><trkpt lat="41.2535617" lon="14.879005"><ele>409.6</ele><time>2026-03-15T11:47:10.72Z</time></trkpt><trkpt lat="41.2535833" lon="14.878895"><ele>409.0</ele><time>2026-03-15T11:47:11.72Z</time></trkpt><trkpt lat="41.253575" lon="14.8787933"><ele>409.00000000000006</ele><time>2026-03-15T11:47:12.721Z</time></trkpt><trkpt lat="41.2535383" lon="14.8786983"><ele>409.0</ele><time>2026-03-15T11:47:13.721Z</time></trkpt><trkpt lat="41.2534817" lon="14.8786467"><ele>409.0</ele><time>2026-03-15T11:47:14.721Z</time></trkpt><trkpt lat="41.25341" lon="14.8786317"><ele>409.0</ele><time>2026-03-15T11:47:15.721Z</time></trkpt><trkpt lat="41.2533317" lon="14.8786683"><ele>409.00000000000006</ele><time>2026-03-15T11:47:16.721Z</time></trkpt><trkpt lat="41.2532517" lon="14.8787617"><ele>409.0</ele><time>2026-03-15T11:47:17.721Z</time></trkpt><trkpt lat="41.2531917" lon="14.8788817"><ele>409.6</ele><time>2026-03-15T11:47:18.721Z</time></trkpt><trkpt lat="41.2531167" lon="14.87899"><ele>410.2</ele><time>2026-03-15T11:47:19.721Z</time></trkpt><trkpt lat="41.2530367" lon="14.8790883"><ele>410.8</ele><time>2026-03-15T11:47:20.72Z</time></trkpt><trkpt lat="41.2529517" lon="14.8791817"><ele>411.40000000000003</ele><time>2026-03-15T11:47:21.721Z</time></trkpt><trkpt lat="41.2528483" lon="14.8792583"><ele>412.0</ele><time>2026-03-15T11:47:22.721Z</time></trkpt><trkpt lat="41.2527233" lon="14.87932"><ele>412.0</ele><time>2026-03-15T11:47:23.721Z</time></trkpt><trkpt lat="41.2525967" lon="14.8793767"><ele>412.0</ele><time>2026-03-15T11:47:24.721Z</time></trkpt><trkpt lat="41.25246" lon="14.879415"><ele>412.0</ele><time>2026-03-15T11:47:25.721Z</time></trkpt><trkpt lat="41.25232" lon="14.879465"><ele>412.0</ele><time>2026-03-15T11:47:26.72Z</time></trkpt><trkpt lat="41.252165" lon="14.8795383"><ele>414.33333333333337</ele><time>2026-03-15T11:47:27.72Z</time></trkpt><trkpt lat="41.2520133" lon="14.87963"><ele>416.66666666666663</ele><time>2026-03-15T11:47:28.721Z</time></trkpt><trkpt lat="41.2518733" lon="14.879705"><ele>419.0</ele><time>2026-03-15T11:47:29.721Z</time></trkpt><trkpt lat="41.251735" lon="14.8797917"><ele>419.0</ele><time>2026-03-15T11:47:30.72Z</time></trkpt><trkpt lat="41.2515883" lon="14.8798933"><ele>419.0</ele><time>2026-03-15T11:47:31.721Z</time></trkpt><trkpt lat="41.2514483" lon="14.879995"><ele>419.0</ele><time>2026-03-15T11:47:32.721Z</time></trkpt><trkpt lat="41.2513133" lon="14.880085"><ele>420.66666666666663</ele><time>2026-03-15T11:47:33.721Z</time></trkpt><trkpt lat="41.251185" lon="14.8801867"><ele>422.33333333333337</ele><time>2026-03-15T11:47:34.721Z</time></trkpt><trkpt lat="41.2510567" lon="14.8803"><ele>424.0</ele><time>2026-03-15T11:47:35.721Z</time></trkpt><trkpt lat="41.2509383" lon="14.880415"><ele>424.0</ele><time>2026-03-15T11:47:36.721Z</time></trkpt><trkpt lat="41.2508383" lon="14.8805517"><ele>424.0</ele><time>2026-03-15T11:47:37.721Z</time></trkpt><trkpt lat="41.250745" lon="14.8806767"><ele>424.0</ele><time>2026-03-15T11:47:38.721Z</time></trkpt><trkpt lat="41.25066" lon="14.880795"><ele>424.0</ele><time>2026-03-15T11:47:39.721Z</time></trkpt><trkpt lat="41.2505767" lon="14.88091"><ele>424.5</ele><time>2026-03-15T11:47:40.721Z</time></trkpt><trkpt lat="41.2504817" lon="14.8809983"><ele>425.0</ele><time>2026-03-15T11:47:41.721Z</time></trkpt><trkpt lat="41.25037" lon="14.88105"><ele>425.5</ele><time>2026-03-15T11:47:42.721Z</time></trkpt><trkpt lat="41.2502367" lon="14.881065"><ele>426.0</ele><time>2026-03-15T11:47:43.721Z</time></trkpt><trkpt lat="41.2501" lon="14.8810817"><ele>426.0</ele><time>2026-03-15T11:47:44.721Z</time></trkpt><trkpt lat="41.2499583" lon="14.881105"><ele>426.0</ele><time>2026-03-15T11:47:45.721Z</time></trkpt><trkpt lat="41.2498183" lon="14.8811333"><ele>426.0</ele><time>2026-03-15T11:47:46.72Z</time></trkpt><trkpt lat="41.2496783" lon="14.88116"><ele>426.0</ele><time>2026-03-15T11:47:47.721Z</time></trkpt><trkpt lat="41.2495333" lon="14.8811833"><ele>428.25</ele><time>2026-03-15T11:47:48.721Z</time></trkpt><trkpt lat="41.2493967" lon="14.8812217"><ele>430.5</ele><time>2026-03-15T11:47:49.721Z</time></trkpt><trkpt lat="41.24927" lon="14.8812667"><ele>432.75</ele><time>2026-03-15T11:47:50.721Z</time></trkpt><trkpt lat="41.2491517" lon="14.8813383"><ele>435.0</ele><time>2026-03-15T11:47:51.721Z</time></trkpt><trkpt lat="41.2490433" lon="14.881425"><ele>436.5</ele><time>2026-03-15T11:47:52.721Z</time></trkpt><trkpt lat="41.24893" lon="14.8815183"><ele>438.0</ele><time>2026-03-15T11:47:53.721Z</time></trkpt><trkpt lat="41.2488333" lon="14.8816367"><ele>439.5</ele><time>2026-03-15T11:47:54.721Z</time></trkpt><trkpt lat="41.2487483" lon="14.88177"><ele>441.0</ele><time>2026-03-15T11:47:55.721Z</time></trkpt><trkpt lat="41.2486567" lon="14.88191"><ele>441.0</ele><time>2026-03-15T11:47:56.721Z</time></trkpt><trkpt lat="41.2485933" lon="14.8820717"><ele>441.0</ele><time>2026-03-15T11:47:57.721Z</time></trkpt><trkpt lat="41.2485417" lon="14.8822367"><ele>441.0</ele><time>2026-03-15T11:47:58.721Z</time></trkpt><trkpt lat="41.2485033" lon="14.882405"><ele>441.0</ele><time>2026-03-15T11:47:59.721Z</time></trkpt><trkpt lat="41.24847" lon="14.8825567"><ele>440.8</ele><time>2026-03-15T11:48:00.72Z</time></trkpt><trkpt lat="41.2484333" lon="14.88271"><ele>440.6</ele><time>2026-03-15T11:48:01.721Z</time></trkpt><trkpt lat="41.248405" lon="14.8828383"><ele>440.4</ele><time>2026-03-15T11:48:02.721Z</time></trkpt><trkpt lat="41.2483783" lon="14.8829517"><ele>440.2</ele><time>2026-03-15T11:48:03.721Z</time></trkpt><trkpt lat="41.2483367" lon="14.8830383"><ele>440.0</ele><time>2026-03-15T11:48:04.721Z</time></trkpt><trkpt lat="41.24828" lon="14.8831033"><ele>439.99999999999994</ele><time>2026-03-15T11:48:05.721Z</time></trkpt><trkpt lat="41.24821" lon="14.8831117"><ele>440.0</ele><time>2026-03-15T11:48:06.721Z</time></trkpt><trkpt lat="41.2481383" lon="14.8830817"><ele>440.0</ele><time>2026-03-15T11:48:07.721Z</time></trkpt><trkpt lat="41.2480783" lon="14.88301"><ele>440.0</ele><time>2026-03-15T11:48:08.721Z</time></trkpt><trkpt lat="41.24804" lon="14.8829017"><ele>439.99999999999994</ele><time>2026-03-15T11:48:09.72Z</time></trkpt><trkpt lat="41.248025" lon="14.8827583"><ele>440.0</ele><time>2026-03-15T11:48:10.721Z</time></trkpt><trkpt lat="41.2480233" lon="14.8826083"><ele>443.25</ele><time>2026-03-15T11:48:11.721Z</time></trkpt><trkpt lat="41.24801" lon="14.8824633"><ele>446.5</ele><time>2026-03-15T11:48:12.721Z</time></trkpt><trkpt lat="41.2479983" lon="14.88231"><ele>449.75</ele><time>2026-03-15T11:48:13.721Z</time></trkpt><trkpt lat="41.2479767" lon="14.8821567"><ele>453.0</ele><time>2026-03-15T11:48:14.721Z</time></trkpt><trkpt lat="41.2479617" lon="14.882"><ele>453.0</ele><time>2026-03-15T11:48:15.721Z</time></trkpt><trkpt lat="41.2479417" lon="14.881835"><ele>453.0</ele><time>2026-03-15T11:48:16.721Z</time></trkpt><trkpt lat="41.2479233" lon="14.8816783"><ele>453.0</ele><time>2026-03-15T11:48:17.721Z</time></trkpt><trkpt lat="41.2479183" lon="14.88152"><ele>453.0</ele><time>2026-03-15T11:48:18.721Z</time></trkpt><trkpt lat="41.2479317" lon="14.8813717"><ele>453.0</ele><time>2026-03-15T11:48:19.721Z</time></trkpt><trkpt lat="41.2479767" lon="14.8812383"><ele>453.0</ele><time>2026-03-15T11:48:20.721Z</time></trkpt><trkpt lat="41.2480517" lon="14.8811267"><ele>453.0</ele><time>2026-03-15T11:48:21.721Z</time></trkpt><trkpt lat="41.2481567" lon="14.8810417"><ele>453.0</ele><time>2026-03-15T11:48:22.721Z</time></trkpt><trkpt lat="41.2482683" lon="14.8809817"><ele>453.0</ele><time>2026-03-15T11:48:23.721Z</time></trkpt><trkpt lat="41.24838" lon="14.880905"><ele>453.0</ele><time>2026-03-15T11:48:24.721Z</time></trkpt><trkpt lat="41.248495" lon="14.880825"><ele>453.0</ele><time>2026-03-15T11:48:25.721Z</time></trkpt><trkpt lat="41.2486083" lon="14.8807333"><ele>453.0</ele><time>2026-03-15T11:48:26.721Z</time></trkpt><trkpt lat="41.2487317" lon="14.8806467"><ele>453.0</ele><time>2026-03-15T11:48:27.72Z</time></trkpt><trkpt lat="41.2488517" lon="14.88056"><ele>453.0</ele><time>2026-03-15T11:48:28.721Z</time></trkpt><trkpt lat="41.2489733" lon="14.8804683"><ele>453.0</ele><time>2026-03-15T11:48:29.72Z</time></trkpt><trkpt lat="41.2490983" lon="14.8803783"><ele>453.0</ele><time>2026-03-15T11:48:30.72Z</time></trkpt><trkpt lat="41.249215" lon="14.8802717"><ele>454.5</ele><time>2026-03-15T11:48:31.72Z</time></trkpt><trkpt lat="41.249315" lon="14.8801383"><ele>456.0</ele><time>2026-03-15T11:48:32.721Z</time></trkpt><trkpt lat="41.2493867" lon="14.8799883"><ele>457.5</ele><time>2026-03-15T11:48:33.721Z</time></trkpt><trkpt lat="41.249435" lon="14.8798383"><ele>459.0</ele><time>2026-03-15T11:48:34.72Z</time></trkpt><trkpt lat="41.2494483" lon="14.8796583"><ele>459.0</ele><time>2026-03-15T11:48:35.721Z</time></trkpt><trkpt lat="41.2494467" lon="14.87946"><ele>459.0</ele><time>2026-03-15T11:48:36.721Z</time></trkpt><trkpt lat="41.249445" lon="14.8792583"><ele>459.0</ele><time>2026-03-15T11:48:37.721Z</time></trkpt><trkpt lat="41.2494417" lon="14.879045"><ele>460.33333333333337</ele><time>2026-03-15T11:48:38.721Z</time></trkpt><trkpt lat="41.2494383" lon="14.87884"><ele>461.6666666666667</ele><time>2026-03-15T11:48:39.721Z</time></trkpt><trkpt lat="41.2494467" lon="14.87862"><ele>463.0</ele><time>2026-03-15T11:48:40.721Z</time></trkpt><trkpt lat="41.2494467" lon="14.8783917"><ele>464.33333333333337</ele><time>2026-03-15T11:48:41.721Z</time></trkpt><trkpt lat="41.2494367" lon="14.878145"><ele>465.66666666666663</ele><time>2026-03-15T11:48:42.721Z</time></trkpt><trkpt lat="41.24942" lon="14.877895"><ele>467.0</ele><time>2026-03-15T11:48:43.721Z</time></trkpt><trkpt lat="41.2494033" lon="14.8776517"><ele>468.3333333333333</ele><time>2026-03-15T11:48:44.721Z</time></trkpt><trkpt lat="41.2493617" lon="14.8774267"><ele>469.66666666666663</ele><time>2026-03-15T11:48:45.721Z</time></trkpt><trkpt lat="41.2492833" lon="14.877195"><ele>471.0</ele><time>2026-03-15T11:48:46.721Z</time></trkpt><trkpt lat="41.249185" lon="14.876965"><ele>468.0</ele><time>2026-03-15T11:48:47.72Z</time></trkpt><trkpt lat="41.249065" lon="14.876745"><ele>465.0</ele><time>2026-03-15T11:48:48.721Z</time></trkpt><trkpt lat="41.2489317" lon="14.8765183"><ele>462.0</ele><time>2026-03-15T11:48:49.721Z</time></trkpt><trkpt lat="41.2488033" lon="14.8762967"><ele>465.66666666666663</ele><time>2026-03-15T11:48:50.72Z</time></trkpt><trkpt lat="41.2486683" lon="14.8760817"><ele>469.3333333333333</ele><time>2026-03-15T11:48:51.72Z</time></trkpt><trkpt lat="41.2485283" lon="14.8758883"><ele>473.0</ele><time>2026-03-15T11:48:52.721Z</time></trkpt><trkpt lat="41.2483983" lon="14.8757083"><ele>473.0</ele><time>2026-03-15T11:48:53.721Z</time></trkpt><trkpt lat="41.2482933" lon="14.875555"><ele>473.0</ele><time>2026-03-15T11:48:54.721Z</time></trkpt><trkpt lat="41.2482183" lon="14.8754083"><ele>473.0</ele><time>2026-03-15T11:48:55.72Z</time></trkpt><trkpt lat="41.2481767" lon="14.875275"><ele>473.0</ele><time>2026-03-15T11:48:56.721Z</time></trkpt><trkpt lat="41.2481683" lon="14.8751217"><ele>472.5</ele><time>2026-03-15T11:48:57.721Z</time></trkpt><trkpt lat="41.2481867" lon="14.8749567"><ele>472.0</ele><time>2026-03-15T11:48:58.721Z</time></trkpt><trkpt lat="41.2482233" lon="14.8748117"><ele>471.5</ele><time>2026-03-15T11:48:59.72Z</time></trkpt><trkpt lat="41.24824" lon="14.87466"><ele>471.0</ele><time>2026-03-15T11:49:00.72Z</time></trkpt><trkpt lat="41.2482383" lon="14.8745217"><ele>471.0</ele><time>2026-03-15T11:49:01.721Z</time></trkpt><trkpt lat="41.2481883" lon="14.8743933"><ele>471.0</ele><time>2026-03-15T11:49:02.721Z</time></trkpt><trkpt lat="41.2480967" lon="14.8742833"><ele>471.0</ele><time>2026-03-15T11:49:03.721Z</time></trkpt><trkpt lat="41.2479867" lon="14.8741683"><ele>471.0</ele><time>2026-03-15T11:49:04.721Z</time></trkpt><trkpt lat="41.2478633" lon="14.87405"><ele>474.25</ele><time>2026-03-15T11:49:05.721Z</time></trkpt><trkpt lat="41.247755" lon="14.8739183"><ele>477.5</ele><time>2026-03-15T11:49:06.721Z</time></trkpt><trkpt lat="41.24768" lon="14.8737667"><ele>480.75</ele><time>2026-03-15T11:49:07.721Z</time></trkpt><trkpt lat="41.2476067" lon="14.8736133"><ele>484.0</ele><time>2026-03-15T11:49:08.72Z</time></trkpt><trkpt lat="41.24755" lon="14.8734517"><ele>483.75</ele><time>2026-03-15T11:49:09.721Z</time></trkpt><trkpt lat="41.247515" lon="14.8732933"><ele>483.5</ele><time>2026-03-15T11:49:10.72Z</time></trkpt><trkpt lat="41.2475083" lon="14.8731133"><ele>483.25</ele><time>2026-03-15T11:49:11.72Z</time></trkpt><trkpt lat="41.2475117" lon="14.872935"><ele>483.0</ele><time>2026-03-15T11:49:12.721Z</time></trkpt><trkpt lat="41.247555" lon="14.87277"><ele>483.0</ele><time>2026-03-15T11:49:13.721Z</time></trkpt><trkpt lat="41.2476133" lon="14.8726083"><ele>483.0</ele><time>2026-03-15T11:49:14.721Z</time></trkpt><trkpt lat="41.2476717" lon="14.872445"><ele>483.0</ele><time>2026-03-15T11:49:15.721Z</time></trkpt><trkpt lat="41.24773" lon="14.87228"><ele>483.0</ele><time>2026-03-15T11:49:16.721Z</time></trkpt><trkpt lat="41.24778" lon="14.87212"><ele>483.79999999999995</ele><time>2026-03-15T11:49:17.721Z</time></trkpt><trkpt lat="41.247825" lon="14.8719667"><ele>484.59999999999997</ele><time>2026-03-15T11:49:18.721Z</time></trkpt><trkpt lat="41.2478733" lon="14.8718217"><ele>485.40000000000003</ele><time>2026-03-15T11:49:19.721Z</time></trkpt><trkpt lat="41.2479283" lon="14.87169"><ele>486.20000000000005</ele><time>2026-03-15T11:49:20.721Z</time></trkpt><trkpt lat="41.2479633" lon="14.8715867"><ele>487.0</ele><time>2026-03-15T11:49:21.721Z</time></trkpt><trkpt lat="41.2479867" lon="14.871505"><ele>487.33333333333337</ele><time>2026-03-15T11:49:22.721Z</time></trkpt><trkpt lat="41.2480417" lon="14.8713917"><ele>487.6666666666667</ele><time>2026-03-15T11:49:24.721Z</time></trkpt><trkpt lat="41.2480483" lon="14.8712983"><ele>488.0</ele><time>2026-03-15T11:49:26.721Z</time></trkpt><trkpt lat="41.2479917" lon="14.8711967"><ele>488.33333333333337</ele><time>2026-03-15T11:49:28.72Z</time></trkpt><trkpt lat="41.24792" lon="14.8711417"><ele>488.6666666666667</ele><time>2026-03-15T11:49:29.721Z</time></trkpt><trkpt lat="41.2478467" lon="14.8710967"><ele>489.0</ele><time>2026-03-15T11:49:30.721Z</time></trkpt><trkpt lat="41.24779" lon="14.8710317"><ele>489.0</ele><time>2026-03-15T11:49:31.72Z</time></trkpt><trkpt lat="41.2477483" lon="14.870945"><ele>489.0</ele><time>2026-03-15T11:49:32.721Z</time></trkpt><trkpt lat="41.247695" lon="14.870855"><ele>489.0</ele><time>2026-03-15T11:49:33.721Z</time></trkpt><trkpt lat="41.2476417" lon="14.870745"><ele>489.0</ele><time>2026-03-15T11:49:34.721Z</time></trkpt><trkpt lat="41.247575" lon="14.8706283"><ele>489.0</ele><time>2026-03-15T11:49:35.72Z</time></trkpt><trkpt lat="41.2475183" lon="14.8705"><ele>488.5</ele><time>2026-03-15T11:49:36.72Z</time></trkpt><trkpt lat="41.247455" lon="14.87035"><ele>488.0</ele><time>2026-03-15T11:49:37.721Z</time></trkpt><trkpt lat="41.24738" lon="14.870215"><ele>487.5</ele><time>2026-03-15T11:49:38.72Z</time></trkpt><trkpt lat="41.247315" lon="14.87009"><ele>487.0</ele><time>2026-03-15T11:49:39.721Z</time></trkpt><trkpt lat="41.24727" lon="14.86998"><ele>488.50000000000006</ele><time>2026-03-15T11:49:40.72Z</time></trkpt><trkpt lat="41.2472267" lon="14.86989"><ele>490.0</ele><time>2026-03-15T11:49:41.72Z</time></trkpt><trkpt lat="41.24719" lon="14.8698067"><ele>491.5</ele><time>2026-03-15T11:49:42.721Z</time></trkpt><trkpt lat="41.247155" lon="14.8697183"><ele>493.0</ele><time>2026-03-15T11:49:43.721Z</time></trkpt><trkpt lat="41.2471183" lon="14.8696167"><ele>494.50000000000006</ele><time>2026-03-15T11:49:44.721Z</time></trkpt><trkpt lat="41.2470833" lon="14.8695067"><ele>496.0</ele><time>2026-03-15T11:49:45.721Z</time></trkpt><trkpt lat="41.2470417" lon="14.8693733"><ele>493.25</ele><time>2026-03-15T11:49:46.72Z</time></trkpt><trkpt lat="41.2469983" lon="14.8692367"><ele>490.5</ele><time>2026-03-15T11:49:47.721Z</time></trkpt><trkpt lat="41.24695" lon="14.869095"><ele>487.75</ele><time>2026-03-15T11:49:48.721Z</time></trkpt><trkpt lat="41.2468983" lon="14.86896"><ele>485.0</ele><time>2026-03-15T11:49:49.721Z</time></trkpt><trkpt lat="41.24684" lon="14.868825"><ele>485.0</ele><time>2026-03-15T11:49:50.72Z</time></trkpt><trkpt lat="41.246745" lon="14.8687133"><ele>485.0</ele><time>2026-03-15T11:49:51.721Z</time></trkpt><trkpt lat="41.246645" lon="14.8685967"><ele>485.0</ele><time>2026-03-15T11:49:52.721Z</time></trkpt><trkpt lat="41.246545" lon="14.8684667"><ele>485.0</ele><time>2026-03-15T11:49:53.721Z</time></trkpt><trkpt lat="41.246455" lon="14.8683233"><ele>485.5</ele><time>2026-03-15T11:49:54.721Z</time></trkpt><trkpt lat="41.2463633" lon="14.8681867"><ele>486.0</ele><time>2026-03-15T11:49:55.72Z</time></trkpt><trkpt lat="41.24627" lon="14.8680617"><ele>486.5</ele><time>2026-03-15T11:49:56.721Z</time></trkpt><trkpt lat="41.2461717" lon="14.8679583"><ele>487.0</ele><time>2026-03-15T11:49:57.721Z</time></trkpt><trkpt lat="41.2460733" lon="14.8678733"><ele>487.0</ele><time>2026-03-15T11:49:58.721Z</time></trkpt><trkpt lat="41.245955" lon="14.8678083"><ele>487.0</ele><time>2026-03-15T11:49:59.721Z</time></trkpt><trkpt lat="41.245865" lon="14.86771"><ele>487.0</ele><time>2026-03-15T11:50:00.721Z</time></trkpt><trkpt lat="41.2458" lon="14.8675817"><ele>487.0</ele><time>2026-03-15T11:50:01.72Z</time></trkpt><trkpt lat="41.24574" lon="14.8674483"><ele>487.25</ele><time>2026-03-15T11:50:02.721Z</time></trkpt><trkpt lat="41.2456867" lon="14.8673083"><ele>487.5</ele><time>2026-03-15T11:50:03.721Z</time></trkpt><trkpt lat="41.245635" lon="14.8671733"><ele>487.75</ele><time>2026-03-15T11:50:04.721Z</time></trkpt><trkpt lat="41.245565" lon="14.8670467"><ele>488.0</ele><time>2026-03-15T11:50:05.721Z</time></trkpt><trkpt lat="41.2454967" lon="14.866935"><ele>488.0</ele><time>2026-03-15T11:50:06.721Z</time></trkpt><trkpt lat="41.24541" lon="14.86686"><ele>487.99999999999994</ele><time>2026-03-15T11:50:07.721Z</time></trkpt><trkpt lat="41.2453117" lon="14.86682"><ele>487.99999999999994</ele><time>2026-03-15T11:50:08.721Z</time></trkpt><trkpt lat="41.2452083" lon="14.866795"><ele>488.0</ele><time>2026-03-15T11:50:09.721Z</time></trkpt><trkpt lat="41.2450967" lon="14.8667617"><ele>488.0</ele><time>2026-03-15T11:50:10.721Z</time></trkpt><trkpt lat="41.2450033" lon="14.86674"><ele>486.8333333333333</ele><time>2026-03-15T11:50:11.721Z</time></trkpt><trkpt lat="41.24491" lon="14.86672"><ele>485.66666666666663</ele><time>2026-03-15T11:50:12.72Z</time></trkpt><trkpt lat="41.24483" lon="14.866695"><ele>484.5</ele><time>2026-03-15T11:50:13.72Z</time></trkpt><trkpt lat="41.2447467" lon="14.8666733"><ele>483.33333333333337</ele><time>2026-03-15T11:50:14.721Z</time></trkpt><trkpt lat="41.2446817" lon="14.8666583"><ele>482.1666666666667</ele><time>2026-03-15T11:50:15.721Z</time></trkpt><trkpt lat="41.2446" lon="14.8666517"><ele>481.0</ele><time>2026-03-15T11:50:17.721Z</time></trkpt><trkpt lat="41.2445033" lon="14.8666333"><ele>481.00000000000006</ele><time>2026-03-15T11:51:13.72Z</time></trkpt><trkpt lat="41.244445" lon="14.866595"><ele>481.0</ele><time>2026-03-15T11:51:14.721Z</time></trkpt><trkpt lat="41.2443783" lon="14.8665433"><ele>481.0</ele><time>2026-03-15T11:51:15.72Z</time></trkpt><trkpt lat="41.244305" lon="14.8664783"><ele>481.0</ele><time>2026-03-15T11:51:16.72Z</time></trkpt><trkpt lat="41.2442233" lon="14.8663817"><ele>481.00000000000006</ele><time>2026-03-15T11:51:17.721Z</time></trkpt><trkpt lat="41.2441483" lon="14.866295"><ele>481.0</ele><time>2026-03-15T11:51:18.721Z</time></trkpt><trkpt lat="41.2440867" lon="14.86619"><ele>481.0</ele><time>2026-03-15T11:51:19.721Z</time></trkpt><trkpt lat="41.24402" lon="14.8660933"><ele>481.0</ele><time>2026-03-15T11:51:20.721Z</time></trkpt><trkpt lat="41.243955" lon="14.8659867"><ele>481.0</ele><time>2026-03-15T11:51:21.72Z</time></trkpt><trkpt lat="41.2438867" lon="14.8658717"><ele>481.0</ele><time>2026-03-15T11:51:22.721Z</time></trkpt><trkpt lat="41.24382" lon="14.865755"><ele>481.0</ele><time>2026-03-15T11:51:23.721Z</time></trkpt><trkpt lat="41.24375" lon="14.8656317"><ele>483.25</ele><time>2026-03-15T11:51:24.721Z</time></trkpt><trkpt lat="41.2436867" lon="14.865505"><ele>485.5</ele><time>2026-03-15T11:51:25.721Z</time></trkpt><trkpt lat="41.2436183" lon="14.865375"><ele>487.75</ele><time>2026-03-15T11:51:26.721Z</time></trkpt><trkpt lat="41.2435483" lon="14.8652517"><ele>490.0</ele><time>2026-03-15T11:51:27.721Z</time></trkpt><trkpt lat="41.24347" lon="14.8651317"><ele>487.25</ele><time>2026-03-15T11:51:28.72Z</time></trkpt><trkpt lat="41.2433967" lon="14.8650117"><ele>484.5</ele><time>2026-03-15T11:51:29.721Z</time></trkpt><trkpt lat="41.2433283" lon="14.86489"><ele>481.75</ele><time>2026-03-15T11:51:30.721Z</time></trkpt><trkpt lat="41.2432683" lon="14.8647583"><ele>479.0</ele><time>2026-03-15T11:51:31.721Z</time></trkpt><trkpt lat="41.2432033" lon="14.8646333"><ele>480.75</ele><time>2026-03-15T11:51:32.721Z</time></trkpt><trkpt lat="41.24313" lon="14.864515"><ele>482.5</ele><time>2026-03-15T11:51:33.721Z</time></trkpt><trkpt lat="41.243065" lon="14.8643867"><ele>484.25</ele><time>2026-03-15T11:51:34.72Z</time></trkpt><trkpt lat="41.2429883" lon="14.8642667"><ele>486.0</ele><time>2026-03-15T11:51:35.721Z</time></trkpt><trkpt lat="41.2429133" lon="14.86415"><ele>486.0</ele><time>2026-03-15T11:51:36.721Z</time></trkpt><trkpt lat="41.24285" lon="14.864025"><ele>486.0</ele><time>2026-03-15T11:51:37.72Z</time></trkpt><trkpt lat="41.24278" lon="14.8639067"><ele>486.0</ele><time>2026-03-15T11:51:38.721Z</time></trkpt><trkpt lat="41.2427033" lon="14.8638033"><ele>486.0</ele><time>2026-03-15T11:51:39.72Z</time></trkpt><trkpt lat="41.24264" lon="14.863695"><ele>486.0</ele><time>2026-03-15T11:51:40.721Z</time></trkpt><trkpt lat="41.242565" lon="14.8635867"><ele>486.0</ele><time>2026-03-15T11:51:41.72Z</time></trkpt><trkpt lat="41.2424967" lon="14.8634833"><ele>486.0</ele><time>2026-03-15T11:51:42.72Z</time></trkpt><trkpt lat="41.2424217" lon="14.863405"><ele>486.0</ele><time>2026-03-15T11:51:43.721Z</time></trkpt><trkpt lat="41.24234" lon="14.8633417"><ele>486.0</ele><time>2026-03-15T11:51:44.721Z</time></trkpt><trkpt lat="41.24226" lon="14.863285"><ele>486.0</ele><time>2026-03-15T11:51:45.721Z</time></trkpt><trkpt lat="41.2421717" lon="14.8632367"><ele>487.4</ele><time>2026-03-15T11:51:46.72Z</time></trkpt><trkpt lat="41.2420867" lon="14.8631833"><ele>488.8</ele><time>2026-03-15T11:51:47.721Z</time></trkpt><trkpt lat="41.242005" lon="14.8631317"><ele>490.19999999999993</ele><time>2026-03-15T11:51:48.721Z</time></trkpt><trkpt lat="41.241925" lon="14.8630733"><ele>491.59999999999997</ele><time>2026-03-15T11:51:49.721Z</time></trkpt><trkpt lat="41.2418417" lon="14.8630017"><ele>493.0</ele><time>2026-03-15T11:51:50.721Z</time></trkpt><trkpt lat="41.241785" lon="14.8629233"><ele>493.0</ele><time>2026-03-15T11:51:51.721Z</time></trkpt><trkpt lat="41.241725" lon="14.86283"><ele>492.99999999999994</ele><time>2026-03-15T11:51:52.721Z</time></trkpt><trkpt lat="41.2416633" lon="14.8627233"><ele>492.99999999999994</ele><time>2026-03-15T11:51:53.721Z</time></trkpt><trkpt lat="41.2416117" lon="14.8626067"><ele>493.0</ele><time>2026-03-15T11:51:54.721Z</time></trkpt><trkpt lat="41.2415667" lon="14.86249"><ele>493.0</ele><time>2026-03-15T11:51:55.721Z</time></trkpt><trkpt lat="41.241515" lon="14.8623717"><ele>493.0</ele><time>2026-03-15T11:51:56.721Z</time></trkpt><trkpt lat="41.2414633" lon="14.8622683"><ele>492.99999999999994</ele><time>2026-03-15T11:51:57.721Z</time></trkpt><trkpt lat="41.241405" lon="14.8621583"><ele>492.99999999999994</ele><time>2026-03-15T11:51:58.721Z</time></trkpt><trkpt lat="41.2413467" lon="14.8620533"><ele>493.0</ele><time>2026-03-15T11:51:59.721Z</time></trkpt><trkpt lat="41.2412783" lon="14.8619533"><ele>493.0</ele><time>2026-03-15T11:52:00.721Z</time></trkpt><trkpt lat="41.2411983" lon="14.8618833"><ele>493.0</ele><time>2026-03-15T11:52:01.721Z</time></trkpt><trkpt lat="41.24111" lon="14.86184"><ele>492.99999999999994</ele><time>2026-03-15T11:52:02.721Z</time></trkpt><trkpt lat="41.2410183" lon="14.8618167"><ele>492.99999999999994</ele><time>2026-03-15T11:52:03.721Z</time></trkpt><trkpt lat="41.2409133" lon="14.86182"><ele>493.0</ele><time>2026-03-15T11:52:04.721Z</time></trkpt><trkpt lat="41.2408083" lon="14.8618317"><ele>493.0</ele><time>2026-03-15T11:52:05.721Z</time></trkpt><trkpt lat="41.2406967" lon="14.86185"><ele>493.0</ele><time>2026-03-15T11:52:06.721Z</time></trkpt><trkpt lat="41.24058" lon="14.8618783"><ele>493.0</ele><time>2026-03-15T11:52:07.721Z</time></trkpt><trkpt lat="41.24046" lon="14.8619183"><ele>493.0</ele><time>2026-03-15T11:52:08.72Z</time></trkpt><trkpt lat="41.24034" lon="14.8619567"><ele>493.0</ele><time>2026-03-15T11:52:09.721Z</time></trkpt><trkpt lat="41.2402083" lon="14.8619967"><ele>493.0</ele><time>2026-03-15T11:52:10.721Z</time></trkpt><trkpt lat="41.2400783" lon="14.8620283"><ele>493.0</ele><time>2026-03-15T11:52:11.721Z</time></trkpt><trkpt lat="41.2399483" lon="14.8620617"><ele>493.0</ele><time>2026-03-15T11:52:12.72Z</time></trkpt><trkpt lat="41.239835" lon="14.8620933"><ele>493.0</ele><time>2026-03-15T11:52:13.721Z</time></trkpt><trkpt lat="41.23973" lon="14.86212"><ele>492.4</ele><time>2026-03-15T11:52:14.721Z</time></trkpt><trkpt lat="41.2396267" lon="14.86214"><ele>491.79999999999995</ele><time>2026-03-15T11:52:15.72Z</time></trkpt><trkpt lat="41.2395333" lon="14.8621583"><ele>491.2</ele><time>2026-03-15T11:52:16.721Z</time></trkpt><trkpt lat="41.2394433" lon="14.8621783"><ele>490.6</ele><time>2026-03-15T11:52:17.721Z</time></trkpt><trkpt lat="41.2393517" lon="14.8621933"><ele>490.0</ele><time>2026-03-15T11:52:18.721Z</time></trkpt><trkpt lat="41.2392533" lon="14.862215"><ele>490.0</ele><time>2026-03-15T11:52:19.721Z</time></trkpt><trkpt lat="41.2391467" lon="14.8622317"><ele>490.0</ele><time>2026-03-15T11:52:20.72Z</time></trkpt><trkpt lat="41.2390367" lon="14.8622533"><ele>490.0</ele><time>2026-03-15T11:52:21.721Z</time></trkpt><trkpt lat="41.2389333" lon="14.8622833"><ele>490.0</ele><time>2026-03-15T11:52:22.721Z</time></trkpt><trkpt lat="41.2388283" lon="14.862315"><ele>490.0</ele><time>2026-03-15T11:52:23.721Z</time></trkpt><trkpt lat="41.23874" lon="14.8623517"><ele>489.5</ele><time>2026-03-15T11:52:24.721Z</time></trkpt><trkpt lat="41.23863" lon="14.86238"><ele>489.0</ele><time>2026-03-15T11:52:25.72Z</time></trkpt><trkpt lat="41.238515" lon="14.8624"><ele>488.5</ele><time>2026-03-15T11:52:26.721Z</time></trkpt><trkpt lat="41.2383983" lon="14.8624233"><ele>488.0</ele><time>2026-03-15T11:52:27.721Z</time></trkpt><trkpt lat="41.2382783" lon="14.8624517"><ele>488.0</ele><time>2026-03-15T11:52:28.72Z</time></trkpt><trkpt lat="41.23817" lon="14.862475"><ele>488.0</ele><time>2026-03-15T11:52:29.721Z</time></trkpt><trkpt lat="41.2380617" lon="14.8624967"><ele>488.0</ele><time>2026-03-15T11:52:30.721Z</time></trkpt><trkpt lat="41.2379483" lon="14.8625333"><ele>488.0</ele><time>2026-03-15T11:52:31.721Z</time></trkpt><trkpt lat="41.2378317" lon="14.8625667"><ele>487.5</ele><time>2026-03-15T11:52:32.72Z</time></trkpt><trkpt lat="41.2377183" lon="14.8625883"><ele>487.0</ele><time>2026-03-15T11:52:33.721Z</time></trkpt><trkpt lat="41.2376083" lon="14.8626217"><ele>486.5</ele><time>2026-03-15T11:52:34.72Z</time></trkpt><trkpt lat="41.2374967" lon="14.8626583"><ele>486.0</ele><time>2026-03-15T11:52:35.72Z</time></trkpt><trkpt lat="41.2373733" lon="14.86269"><ele>486.0</ele><time>2026-03-15T11:52:36.721Z</time></trkpt><trkpt lat="41.2372367" lon="14.8627367"><ele>486.0</ele><time>2026-03-15T11:52:37.721Z</time></trkpt><trkpt lat="41.2370783" lon="14.86277"><ele>486.0</ele><time>2026-03-15T11:52:38.72Z</time></trkpt><trkpt lat="41.2369083" lon="14.86281"><ele>486.0</ele><time>2026-03-15T11:52:39.721Z</time></trkpt><trkpt lat="41.236735" lon="14.8628517"><ele>486.0</ele><time>2026-03-15T11:52:40.721Z</time></trkpt><trkpt lat="41.236555" lon="14.8628917"><ele>486.0</ele><time>2026-03-15T11:52:41.721Z</time></trkpt><trkpt lat="41.2363683" lon="14.8629333"><ele>486.0</ele><time>2026-03-15T11:52:42.721Z</time></trkpt><trkpt lat="41.2361633" lon="14.8629667"><ele>486.0</ele><time>2026-03-15T11:52:43.721Z</time></trkpt><trkpt lat="41.2359583" lon="14.86301"><ele>486.0</ele><time>2026-03-15T11:52:44.721Z</time></trkpt><trkpt lat="41.2357383" lon="14.863065"><ele>486.0</ele><time>2026-03-15T11:52:45.721Z</time></trkpt><trkpt lat="41.2355167" lon="14.8631133"><ele>486.0</ele><time>2026-03-15T11:52:46.721Z</time></trkpt><trkpt lat="41.2352933" lon="14.863165"><ele>486.0</ele><time>2026-03-15T11:52:47.721Z</time></trkpt><trkpt lat="41.2350633" lon="14.8632217"><ele>486.0</ele><time>2026-03-15T11:52:48.721Z</time></trkpt><trkpt lat="41.23483" lon="14.863275"><ele>485.5</ele><time>2026-03-15T11:52:49.721Z</time></trkpt><trkpt lat="41.23459" lon="14.8633317"><ele>485.0</ele><time>2026-03-15T11:52:50.721Z</time></trkpt><trkpt lat="41.234355" lon="14.8633883"><ele>485.0</ele><time>2026-03-15T11:52:51.721Z</time></trkpt><trkpt lat="41.2341167" lon="14.863445"><ele>485.0</ele><time>2026-03-15T11:52:52.721Z</time></trkpt><trkpt lat="41.2338767" lon="14.8634883"><ele>484.0</ele><time>2026-03-15T11:52:53.721Z</time></trkpt><trkpt lat="41.2336367" lon="14.8635483"><ele>483.0</ele><time>2026-03-15T11:52:54.72Z</time></trkpt><trkpt lat="41.2333917" lon="14.8636067"><ele>483.0</ele><time>2026-03-15T11:52:55.721Z</time></trkpt><trkpt lat="41.2331467" lon="14.8636717"><ele>483.0</ele><time>2026-03-15T11:52:56.721Z</time></trkpt><trkpt lat="41.232895" lon="14.8637283"><ele>483.0</ele><time>2026-03-15T11:52:57.72Z</time></trkpt><trkpt lat="41.232645" lon="14.8637933"><ele>483.0</ele><time>2026-03-15T11:52:58.721Z</time></trkpt><trkpt lat="41.2324" lon="14.8638517"><ele>483.0</ele><time>2026-03-15T11:52:59.721Z</time></trkpt><trkpt lat="41.2321583" lon="14.8639083"><ele>483.0</ele><time>2026-03-15T11:53:00.721Z</time></trkpt><trkpt lat="41.23192" lon="14.8639617"><ele>483.0</ele><time>2026-03-15T11:53:01.721Z</time></trkpt><trkpt lat="41.2316767" lon="14.864025"><ele>483.0</ele><time>2026-03-15T11:53:02.721Z</time></trkpt><trkpt lat="41.2314383" lon="14.8640867"><ele>483.0</ele><time>2026-03-15T11:53:03.721Z</time></trkpt><trkpt lat="41.2311983" lon="14.8641467"><ele>483.0</ele><time>2026-03-15T11:53:04.721Z</time></trkpt><trkpt lat="41.230955" lon="14.86421"><ele>483.0</ele><time>2026-03-15T11:53:05.72Z</time></trkpt><trkpt lat="41.2307083" lon="14.8642683"><ele>483.0</ele><time>2026-03-15T11:53:06.721Z</time></trkpt><trkpt lat="41.230465" lon="14.8643183"><ele>484.0</ele><time>2026-03-15T11:53:07.721Z</time></trkpt><trkpt lat="41.2302167" lon="14.86438"><ele>485.0</ele><time>2026-03-15T11:53:08.721Z</time></trkpt><trkpt lat="41.22997" lon="14.8644433"><ele>484.0</ele><time>2026-03-15T11:53:09.72Z</time></trkpt><trkpt lat="41.229715" lon="14.8644983"><ele>483.0</ele><time>2026-03-15T11:53:10.721Z</time></trkpt><trkpt lat="41.229465" lon="14.8645567"><ele>483.0</ele><time>2026-03-15T11:53:11.72Z</time></trkpt><trkpt lat="41.2292133" lon="14.86461"><ele>483.0</ele><time>2026-03-15T11:53:12.721Z</time></trkpt><trkpt lat="41.22896" lon="14.864665"><ele>482.5</ele><time>2026-03-15T11:53:13.721Z</time></trkpt><trkpt lat="41.2287117" lon="14.86471"><ele>482.0</ele><time>2026-03-15T11:53:14.721Z</time></trkpt><trkpt lat="41.2284533" lon="14.864765"><ele>482.0</ele><time>2026-03-15T11:53:15.721Z</time></trkpt><trkpt lat="41.2282033" lon="14.8648217"><ele>482.0</ele><time>2026-03-15T11:53:16.721Z</time></trkpt><trkpt lat="41.227955" lon="14.8648783"><ele>482.5</ele><time>2026-03-15T11:53:17.721Z</time></trkpt><trkpt lat="41.2277017" lon="14.86494"><ele>483.0</ele><time>2026-03-15T11:53:18.721Z</time></trkpt><trkpt lat="41.2274583" lon="14.8649983"><ele>482.0</ele><time>2026-03-15T11:53:19.72Z</time></trkpt><trkpt lat="41.2272133" lon="14.8650567"><ele>481.0</ele><time>2026-03-15T11:53:20.721Z</time></trkpt><trkpt lat="41.22697" lon="14.8651183"><ele>481.0</ele><time>2026-03-15T11:53:21.721Z</time></trkpt><trkpt lat="41.226725" lon="14.8651767"><ele>481.0</ele><time>2026-03-15T11:53:22.72Z</time></trkpt><trkpt lat="41.2264883" lon="14.865235"><ele>481.0</ele><time>2026-03-15T11:53:23.721Z</time></trkpt><trkpt lat="41.226245" lon="14.8652967"><ele>481.0</ele><time>2026-03-15T11:53:24.721Z</time></trkpt><trkpt lat="41.2260067" lon="14.86535"><ele>481.0</ele><time>2026-03-15T11:53:25.721Z</time></trkpt><trkpt lat="41.2257767" lon="14.8654117"><ele>481.0</ele><time>2026-03-15T11:53:26.721Z</time></trkpt><trkpt lat="41.22556" lon="14.8654667"><ele>480.0</ele><time>2026-03-15T11:53:27.721Z</time></trkpt><trkpt lat="41.225365" lon="14.8655233"><ele>479.0</ele><time>2026-03-15T11:53:28.721Z</time></trkpt><trkpt lat="41.2251867" lon="14.8655867"><ele>478.0</ele><time>2026-03-15T11:53:29.721Z</time></trkpt><trkpt lat="41.2250383" lon="14.86563"><ele>478.0</ele><time>2026-03-15T11:53:30.721Z</time></trkpt><trkpt lat="41.224915" lon="14.865665"><ele>477.99999999999994</ele><time>2026-03-15T11:53:31.72Z</time></trkpt><trkpt lat="41.2248" lon="14.8657017"><ele>477.99999999999994</ele><time>2026-03-15T11:53:32.721Z</time></trkpt><trkpt lat="41.2247" lon="14.86573"><ele>478.0</ele><time>2026-03-15T11:53:33.721Z</time></trkpt><trkpt lat="41.22463" lon="14.8657617"><ele>478.0</ele><time>2026-03-15T11:53:34.721Z</time></trkpt><trkpt lat="41.2245383" lon="14.865765"><ele>478.2</ele><time>2026-03-15T11:53:36.721Z</time></trkpt><trkpt lat="41.22452" lon="14.865665"><ele>478.4</ele><time>2026-03-15T11:53:40.72Z</time></trkpt><trkpt lat="41.2245467" lon="14.86556"><ele>478.59999999999997</ele><time>2026-03-15T11:53:42.72Z</time></trkpt><trkpt lat="41.2245833" lon="14.8654317"><ele>478.79999999999995</ele><time>2026-03-15T11:53:44.721Z</time></trkpt><trkpt lat="41.224615" lon="14.8653083"><ele>479.0</ele><time>2026-03-15T11:53:46.721Z</time></trkpt><trkpt lat="41.2246283" lon="14.86519"><ele>480.16666666666663</ele><time>2026-03-15T11:53:48.721Z</time></trkpt><trkpt lat="41.2246417" lon="14.8650867"><ele>481.3333333333333</ele><time>2026-03-15T11:53:50.721Z</time></trkpt><trkpt lat="41.22466" lon="14.8649967"><ele>482.5</ele><time>2026-03-15T11:53:52.721Z</time></trkpt><trkpt lat="41.2246717" lon="14.8648967"><ele>483.66666666666663</ele><time>2026-03-15T11:53:55.72Z</time></trkpt><trkpt lat="41.2246583" lon="14.8647733"><ele>484.8333333333333</ele><time>2026-03-15T11:53:58.721Z</time></trkpt><trkpt lat="41.224635" lon="14.8646783"><ele>486.0</ele><time>2026-03-15T11:54:00.721Z</time></trkpt><trkpt lat="41.2245883" lon="14.8646067"><ele>486.0</ele><time>2026-03-15T11:54:02.721Z</time></trkpt><trkpt lat="41.224495" lon="14.864565"><ele>486.0</ele><time>2026-03-15T11:54:05.72Z</time></trkpt><trkpt lat="41.2244133" lon="14.8645817"><ele>486.0</ele><time>2026-03-15T11:54:08.721Z</time></trkpt><trkpt lat="41.2244733" lon="14.8645467"><ele>486.0</ele><time>2026-03-15T12:11:11.72Z</time></trkpt><trkpt lat="41.22454" lon="14.86449"><ele>486.0</ele><time>2026-03-15T12:11:16.721Z</time></trkpt><trkpt lat="41.2246" lon="14.8644283"><ele>486.0</ele><time>2026-03-15T12:11:20.721Z</time></trkpt><trkpt lat="41.22264" lon="14.8658"><ele>480.0</ele><time>2026-03-15T12:12:17.723Z</time></trkpt><trkpt lat="41.222445" lon="14.8657283"><ele>474.0</ele><time>2026-03-15T12:12:18.723Z</time></trkpt><trkpt lat="41.22229" lon="14.8656783"><ele>468.0</ele><time>2026-03-15T12:12:19.722Z</time></trkpt><trkpt lat="41.222095" lon="14.8655733"><ele>465.66666666666663</ele><time>2026-03-15T12:12:20.723Z</time></trkpt><trkpt lat="41.2219117" lon="14.8654667"><ele>463.3333333333333</ele><time>2026-03-15T12:12:21.722Z</time></trkpt><trkpt lat="41.221725" lon="14.865375"><ele>461.0</ele><time>2026-03-15T12:12:22.723Z</time></trkpt><trkpt lat="41.2215917" lon="14.8653133"><ele>460.66666666666663</ele><time>2026-03-15T12:12:23.722Z</time></trkpt><trkpt lat="41.2214383" lon="14.865245"><ele>460.33333333333337</ele><time>2026-03-15T12:12:24.723Z</time></trkpt><trkpt lat="41.22129" lon="14.8651933"><ele>460.0</ele><time>2026-03-15T12:12:25.723Z</time></trkpt><trkpt lat="41.2211567" lon="14.8651133"><ele>459.0</ele><time>2026-03-15T12:12:26.723Z</time></trkpt><trkpt lat="41.2210167" lon="14.8650317"><ele>458.0</ele><time>2026-03-15T12:12:27.723Z</time></trkpt><trkpt lat="41.220875" lon="14.8649233"><ele>457.0</ele><time>2026-03-15T12:12:28.723Z</time></trkpt><trkpt lat="41.220755" lon="14.86481"><ele>455.6666666666667</ele><time>2026-03-15T12:12:29.722Z</time></trkpt><trkpt lat="41.2206367" lon="14.86467"><ele>454.33333333333337</ele><time>2026-03-15T12:12:30.723Z</time></trkpt><trkpt lat="41.2204967" lon="14.86451"><ele>453.0</ele><time>2026-03-15T12:12:31.722Z</time></trkpt><trkpt lat="41.220375" lon="14.8643417"><ele>452.0</ele><time>2026-03-15T12:12:32.723Z</time></trkpt><trkpt lat="41.2202767" lon="14.86417"><ele>451.0</ele><time>2026-03-15T12:12:33.723Z</time></trkpt><trkpt lat="41.2201417" lon="14.8639883"><ele>450.0</ele><time>2026-03-15T12:12:34.723Z</time></trkpt><trkpt lat="41.22" lon="14.863805"><ele>450.0</ele><time>2026-03-15T12:12:35.723Z</time></trkpt><trkpt lat="41.2198583" lon="14.8636167"><ele>450.0</ele><time>2026-03-15T12:12:36.723Z</time></trkpt><trkpt lat="41.2197183" lon="14.86344"><ele>450.0</ele><time>2026-03-15T12:12:37.723Z</time></trkpt><trkpt lat="41.2195733" lon="14.8632717"><ele>448.33333333333337</ele><time>2026-03-15T12:12:38.723Z</time></trkpt><trkpt lat="41.2194083" lon="14.86308"><ele>446.6666666666667</ele><time>2026-03-15T12:12:39.723Z</time></trkpt><trkpt lat="41.219265" lon="14.86289"><ele>445.0</ele><time>2026-03-15T12:12:40.723Z</time></trkpt><trkpt lat="41.2191317" lon="14.8627"><ele>446.0</ele><time>2026-03-15T12:12:41.723Z</time></trkpt><trkpt lat="41.219025" lon="14.86248"><ele>447.0</ele><time>2026-03-15T12:12:42.723Z</time></trkpt><trkpt lat="41.2189517" lon="14.862245"><ele>448.0</ele><time>2026-03-15T12:12:43.722Z</time></trkpt><trkpt lat="41.2189083" lon="14.8619817"><ele>444.33333333333337</ele><time>2026-03-15T12:12:44.723Z</time></trkpt><trkpt lat="41.218855" lon="14.8617267"><ele>440.66666666666663</ele><time>2026-03-15T12:12:45.723Z</time></trkpt><trkpt lat="41.2188967" lon="14.86141"><ele>437.0</ele><time>2026-03-15T12:12:46.723Z</time></trkpt><trkpt lat="41.2189067" lon="14.8611117"><ele>437.0</ele><time>2026-03-15T12:12:47.723Z</time></trkpt><trkpt lat="41.2189117" lon="14.8608083"><ele>437.0</ele><time>2026-03-15T12:12:48.723Z</time></trkpt><trkpt lat="41.2189067" lon="14.8604983"><ele>437.0</ele><time>2026-03-15T12:12:49.723Z</time></trkpt><trkpt lat="41.2189033" lon="14.8601817"><ele>437.0</ele><time>2026-03-15T12:12:50.723Z</time></trkpt><trkpt lat="41.2188917" lon="14.8598633"><ele>437.0</ele><time>2026-03-15T12:12:51.723Z</time></trkpt><trkpt lat="41.2189" lon="14.8595533"><ele>437.0</ele><time>2026-03-15T12:12:52.723Z</time></trkpt><trkpt lat="41.2189017" lon="14.8592467"><ele>437.0</ele><time>2026-03-15T12:12:53.722Z</time></trkpt><trkpt lat="41.2189383" lon="14.8589167"><ele>437.0</ele><time>2026-03-15T12:12:54.723Z</time></trkpt><trkpt lat="41.2189367" lon="14.8586233"><ele>436.66666666666663</ele><time>2026-03-15T12:12:55.723Z</time></trkpt><trkpt lat="41.2189067" lon="14.8583483"><ele>436.33333333333337</ele><time>2026-03-15T12:12:56.723Z</time></trkpt><trkpt lat="41.2188917" lon="14.858065"><ele>436.0</ele><time>2026-03-15T12:12:57.723Z</time></trkpt><trkpt lat="41.218835" lon="14.8578183"><ele>435.33333333333337</ele><time>2026-03-15T12:12:58.722Z</time></trkpt><trkpt lat="41.2187583" lon="14.8575583"><ele>434.66666666666663</ele><time>2026-03-15T12:12:59.723Z</time></trkpt><trkpt lat="41.2186467" lon="14.857305"><ele>434.0</ele><time>2026-03-15T12:13:00.723Z</time></trkpt><trkpt lat="41.2185367" lon="14.8570383"><ele>433.5</ele><time>2026-03-15T12:13:01.723Z</time></trkpt><trkpt lat="41.2183917" lon="14.8567767"><ele>433.0</ele><time>2026-03-15T12:13:02.723Z</time></trkpt><trkpt lat="41.2181933" lon="14.8565533"><ele>431.0</ele><time>2026-03-15T12:13:03.723Z</time></trkpt><trkpt lat="41.218025" lon="14.8563117"><ele>429.0</ele><time>2026-03-15T12:13:04.722Z</time></trkpt><trkpt lat="41.21785" lon="14.85604"><ele>429.0</ele><time>2026-03-15T12:13:05.723Z</time></trkpt><trkpt lat="41.21767" lon="14.8557567"><ele>429.0</ele><time>2026-03-15T12:13:06.723Z</time></trkpt><trkpt lat="41.217495" lon="14.8554683"><ele>429.0</ele><time>2026-03-15T12:13:07.723Z</time></trkpt><trkpt lat="41.217335" lon="14.85519"><ele>429.0</ele><time>2026-03-15T12:13:08.723Z</time></trkpt><trkpt lat="41.2171767" lon="14.8549133"><ele>427.5</ele><time>2026-03-15T12:13:09.723Z</time></trkpt><trkpt lat="41.2170217" lon="14.8546467"><ele>426.0</ele><time>2026-03-15T12:13:10.723Z</time></trkpt><trkpt lat="41.21688" lon="14.8544033"><ele>426.5</ele><time>2026-03-15T12:13:11.723Z</time></trkpt><trkpt lat="41.2167383" lon="14.8541517"><ele>427.0</ele><time>2026-03-15T12:13:12.723Z</time></trkpt><trkpt lat="41.2166067" lon="14.8539217"><ele>426.6666666666667</ele><time>2026-03-15T12:13:13.723Z</time></trkpt><trkpt lat="41.21648" lon="14.8537017"><ele>426.33333333333337</ele><time>2026-03-15T12:13:14.723Z</time></trkpt><trkpt lat="41.216355" lon="14.8534867"><ele>426.0</ele><time>2026-03-15T12:13:15.723Z</time></trkpt><trkpt lat="41.2162317" lon="14.8532733"><ele>426.0</ele><time>2026-03-15T12:13:16.723Z</time></trkpt><trkpt lat="41.216105" lon="14.8530883"><ele>426.0</ele><time>2026-03-15T12:13:17.723Z</time></trkpt><trkpt lat="41.2159783" lon="14.852895"><ele>426.0</ele><time>2026-03-15T12:13:18.723Z</time></trkpt><trkpt lat="41.2158417" lon="14.8527283"><ele>425.66666666666663</ele><time>2026-03-15T12:13:19.723Z</time></trkpt><trkpt lat="41.2157467" lon="14.8526083"><ele>425.3333333333333</ele><time>2026-03-15T12:13:20.722Z</time></trkpt><trkpt lat="41.2155983" lon="14.85248"><ele>425.0</ele><time>2026-03-15T12:13:21.723Z</time></trkpt><trkpt lat="41.21544" lon="14.852355"><ele>424.3333333333333</ele><time>2026-03-15T12:13:22.723Z</time></trkpt><trkpt lat="41.21528" lon="14.852225"><ele>423.66666666666663</ele><time>2026-03-15T12:13:23.723Z</time></trkpt><trkpt lat="41.2151267" lon="14.8520933"><ele>423.0</ele><time>2026-03-15T12:13:24.723Z</time></trkpt><trkpt lat="41.2149033" lon="14.8519883"><ele>422.0</ele><time>2026-03-15T12:13:25.723Z</time></trkpt><trkpt lat="41.2146933" lon="14.8518617"><ele>421.0</ele><time>2026-03-15T12:13:26.723Z</time></trkpt><trkpt lat="41.2145033" lon="14.85172"><ele>420.0</ele><time>2026-03-15T12:13:27.722Z</time></trkpt><trkpt lat="41.21431" lon="14.851575"><ele>419.0</ele><time>2026-03-15T12:13:28.722Z</time></trkpt><trkpt lat="41.2141333" lon="14.851405"><ele>418.0</ele><time>2026-03-15T12:13:29.723Z</time></trkpt><trkpt lat="41.2139567" lon="14.8512067"><ele>417.0</ele><time>2026-03-15T12:13:30.723Z</time></trkpt><trkpt lat="41.2137733" lon="14.8510333"><ele>415.0</ele><time>2026-03-15T12:13:31.723Z</time></trkpt><trkpt lat="41.2135867" lon="14.8508767"><ele>413.0</ele><time>2026-03-15T12:13:32.723Z</time></trkpt><trkpt lat="41.2134067" lon="14.8506983"><ele>411.0</ele><time>2026-03-15T12:13:33.723Z</time></trkpt><trkpt lat="41.2131667" lon="14.850545"><ele>412.0</ele><time>2026-03-15T12:13:34.723Z</time></trkpt><trkpt lat="41.2129333" lon="14.8503733"><ele>413.0</ele><time>2026-03-15T12:13:35.723Z</time></trkpt><trkpt lat="41.2127117" lon="14.8502683"><ele>413.0</ele><time>2026-03-15T12:13:36.723Z</time></trkpt><trkpt lat="41.212495" lon="14.8501817"><ele>413.0</ele><time>2026-03-15T12:13:37.723Z</time></trkpt><trkpt lat="41.2122883" lon="14.8500833"><ele>413.0</ele><time>2026-03-15T12:13:38.722Z</time></trkpt><trkpt lat="41.21209" lon="14.849975"><ele>416.3333333333333</ele><time>2026-03-15T12:13:39.722Z</time></trkpt><trkpt lat="41.211945" lon="14.849885"><ele>419.66666666666663</ele><time>2026-03-15T12:13:40.723Z</time></trkpt><trkpt lat="41.2118067" lon="14.84978"><ele>423.0</ele><time>2026-03-15T12:13:41.722Z</time></trkpt><trkpt lat="41.2117267" lon="14.849635"><ele>423.0</ele><time>2026-03-15T12:13:42.723Z</time></trkpt><trkpt lat="41.211665" lon="14.8494833"><ele>423.0</ele><time>2026-03-15T12:13:43.723Z</time></trkpt><trkpt lat="41.2116067" lon="14.8492883"><ele>423.0</ele><time>2026-03-15T12:13:44.723Z</time></trkpt><trkpt lat="41.2115517" lon="14.8490567"><ele>425.0</ele><time>2026-03-15T12:13:45.723Z</time></trkpt><trkpt lat="41.21147" lon="14.8488867"><ele>427.0</ele><time>2026-03-15T12:13:46.723Z</time></trkpt><trkpt lat="41.21137" lon="14.8487083"><ele>429.0</ele><time>2026-03-15T12:13:47.723Z</time></trkpt><trkpt lat="41.2112617" lon="14.8485267"><ele>430.0</ele><time>2026-03-15T12:13:48.723Z</time></trkpt><trkpt lat="41.2111433" lon="14.848365"><ele>431.0</ele><time>2026-03-15T12:13:49.723Z</time></trkpt><trkpt lat="41.2110217" lon="14.8482"><ele>432.0</ele><time>2026-03-15T12:13:50.722Z</time></trkpt><trkpt lat="41.2109183" lon="14.8480283"><ele>432.0</ele><time>2026-03-15T12:13:51.722Z</time></trkpt><trkpt lat="41.2107983" lon="14.8478483"><ele>432.0</ele><time>2026-03-15T12:13:52.723Z</time></trkpt><trkpt lat="41.2106767" lon="14.8476567"><ele>432.0</ele><time>2026-03-15T12:13:53.723Z</time></trkpt><trkpt lat="41.210585" lon="14.8475233"><ele>433.0</ele><time>2026-03-15T12:13:54.723Z</time></trkpt><trkpt lat="41.2104633" lon="14.8473733"><ele>434.0</ele><time>2026-03-15T12:13:55.723Z</time></trkpt><trkpt lat="41.2103433" lon="14.84723"><ele>435.0</ele><time>2026-03-15T12:13:56.722Z</time></trkpt><trkpt lat="41.21022" lon="14.8470733"><ele>435.0</ele><time>2026-03-15T12:13:57.722Z</time></trkpt><trkpt lat="41.21009" lon="14.846895"><ele>435.0</ele><time>2026-03-15T12:13:58.723Z</time></trkpt><trkpt lat="41.2099617" lon="14.8467167"><ele>435.0</ele><time>2026-03-15T12:13:59.723Z</time></trkpt><trkpt lat="41.20983" lon="14.8465317"><ele>433.0</ele><time>2026-03-15T12:14:00.723Z</time></trkpt><trkpt lat="41.2096933" lon="14.8463467"><ele>431.0</ele><time>2026-03-15T12:14:01.723Z</time></trkpt><trkpt lat="41.2095483" lon="14.846155"><ele>429.0</ele><time>2026-03-15T12:14:02.723Z</time></trkpt><trkpt lat="41.2093933" lon="14.8459783"><ele>428.5</ele><time>2026-03-15T12:14:03.723Z</time></trkpt><trkpt lat="41.2091733" lon="14.8458233"><ele>428.0</ele><time>2026-03-15T12:14:04.723Z</time></trkpt><trkpt lat="41.2089633" lon="14.8456483"><ele>426.66666666666663</ele><time>2026-03-15T12:14:05.723Z</time></trkpt><trkpt lat="41.2087867" lon="14.8455017"><ele>425.33333333333337</ele><time>2026-03-15T12:14:06.723Z</time></trkpt><trkpt lat="41.2086133" lon="14.8453533"><ele>424.0</ele><time>2026-03-15T12:14:07.723Z</time></trkpt><trkpt lat="41.2084433" lon="14.84521"><ele>425.0</ele><time>2026-03-15T12:14:08.723Z</time></trkpt><trkpt lat="41.20828" lon="14.8450617"><ele>426.0</ele><time>2026-03-15T12:14:09.723Z</time></trkpt><trkpt lat="41.20811" lon="14.8449117"><ele>427.0</ele><time>2026-03-15T12:14:10.723Z</time></trkpt><trkpt lat="41.2079333" lon="14.8447833"><ele>425.0</ele><time>2026-03-15T12:14:11.723Z</time></trkpt><trkpt lat="41.20776" lon="14.8446683"><ele>423.0</ele><time>2026-03-15T12:14:12.723Z</time></trkpt><trkpt lat="41.2075767" lon="14.84455"><ele>421.0</ele><time>2026-03-15T12:14:13.723Z</time></trkpt><trkpt lat="41.2073933" lon="14.8444133"><ele>420.6666666666667</ele><time>2026-03-15T12:14:14.723Z</time></trkpt><trkpt lat="41.2072117" lon="14.84428"><ele>420.33333333333337</ele><time>2026-03-15T12:14:15.723Z</time></trkpt><trkpt lat="41.2070383" lon="14.844175"><ele>420.0</ele><time>2026-03-15T12:14:16.723Z</time></trkpt><trkpt lat="41.206855" lon="14.8440333"><ele>420.0</ele><time>2026-03-15T12:14:17.722Z</time></trkpt><trkpt lat="41.2066917" lon="14.843925"><ele>420.0</ele><time>2026-03-15T12:14:18.723Z</time></trkpt><trkpt lat="41.2066167" lon="14.84375"><ele>420.0</ele><time>2026-03-15T12:14:19.723Z</time></trkpt><trkpt lat="41.2064717" lon="14.8436333"><ele>418.75</ele><time>2026-03-15T12:14:20.722Z</time></trkpt><trkpt lat="41.2063383" lon="14.8435333"><ele>417.5</ele><time>2026-03-15T12:14:21.722Z</time></trkpt><trkpt lat="41.2062083" lon="14.8434483"><ele>416.25</ele><time>2026-03-15T12:14:22.722Z</time></trkpt><trkpt lat="41.20609" lon="14.843375"><ele>415.0</ele><time>2026-03-15T12:14:23.723Z</time></trkpt><trkpt lat="41.2059767" lon="14.843305"><ele>415.0</ele><time>2026-03-15T12:14:24.723Z</time></trkpt><trkpt lat="41.205885" lon="14.8432217"><ele>415.0</ele><time>2026-03-15T12:14:25.723Z</time></trkpt><trkpt lat="41.2058" lon="14.8431033"><ele>415.0</ele><time>2026-03-15T12:14:26.723Z</time></trkpt><trkpt lat="41.20574" lon="14.8429683"><ele>415.0</ele><time>2026-03-15T12:14:27.723Z</time></trkpt><trkpt lat="41.2056967" lon="14.8428367"><ele>415.0</ele><time>2026-03-15T12:14:28.723Z</time></trkpt><trkpt lat="41.205705" lon="14.8426833"><ele>415.0</ele><time>2026-03-15T12:14:29.723Z</time></trkpt><trkpt lat="41.2057033" lon="14.842555"><ele>415.0</ele><time>2026-03-15T12:14:30.723Z</time></trkpt><trkpt lat="41.2057067" lon="14.842425"><ele>415.0</ele><time>2026-03-15T12:14:31.723Z</time></trkpt><trkpt lat="41.2057083" lon="14.84233"><ele>415.0</ele><time>2026-03-15T12:14:32.723Z</time></trkpt><trkpt lat="41.205695" lon="14.8422017"><ele>413.0</ele><time>2026-03-15T12:14:34.723Z</time></trkpt><trkpt lat="41.2056417" lon="14.8421467"><ele>411.0</ele><time>2026-03-15T12:14:38.723Z</time></trkpt><trkpt lat="41.2055617" lon="14.842135"><ele>409.0</ele><time>2026-03-15T12:14:40.723Z</time></trkpt><trkpt lat="41.2054767" lon="14.8421883"><ele>407.0</ele><time>2026-03-15T12:14:42.722Z</time></trkpt><trkpt lat="41.2054117" lon="14.842255"><ele>405.0</ele><time>2026-03-15T12:14:44.723Z</time></trkpt><trkpt lat="41.2052833" lon="14.8423383"><ele>405.0</ele><time>2026-03-15T12:14:46.723Z</time></trkpt><trkpt lat="41.205175" lon="14.842385"><ele>405.0</ele><time>2026-03-15T12:14:47.723Z</time></trkpt><trkpt lat="41.2050283" lon="14.842405"><ele>405.0</ele><time>2026-03-15T12:14:48.723Z</time></trkpt><trkpt lat="41.2048967" lon="14.8424617"><ele>405.0</ele><time>2026-03-15T12:14:49.723Z</time></trkpt><trkpt lat="41.2047283" lon="14.842515"><ele>403.0</ele><time>2026-03-15T12:14:50.723Z</time></trkpt><trkpt lat="41.20458" lon="14.8425483"><ele>401.0</ele><time>2026-03-15T12:14:51.723Z</time></trkpt><trkpt lat="41.204445" lon="14.8425717"><ele>399.0</ele><time>2026-03-15T12:14:52.722Z</time></trkpt><trkpt lat="41.2042767" lon="14.8425533"><ele>399.0</ele><time>2026-03-15T12:14:53.723Z</time></trkpt><trkpt lat="41.2040767" lon="14.84253"><ele>399.0</ele><time>2026-03-15T12:14:54.722Z</time></trkpt><trkpt lat="41.2038683" lon="14.8424817"><ele>399.0</ele><time>2026-03-15T12:14:55.722Z</time></trkpt><trkpt lat="41.20368" lon="14.842435"><ele>397.33333333333337</ele><time>2026-03-15T12:14:56.723Z</time></trkpt><trkpt lat="41.203505" lon="14.8423817"><ele>395.6666666666667</ele><time>2026-03-15T12:14:57.722Z</time></trkpt><trkpt lat="41.2033267" lon="14.8423583"><ele>394.0</ele><time>2026-03-15T12:14:58.723Z</time></trkpt><trkpt lat="41.2031283" lon="14.8423033"><ele>392.33333333333337</ele><time>2026-03-15T12:14:59.722Z</time></trkpt><trkpt lat="41.2029333" lon="14.8422583"><ele>390.66666666666663</ele><time>2026-03-15T12:15:00.723Z</time></trkpt><trkpt lat="41.2027433" lon="14.84226"><ele>389.0</ele><time>2026-03-15T12:15:01.723Z</time></trkpt><trkpt lat="41.2025767" lon="14.8422767"><ele>389.0</ele><time>2026-03-15T12:15:02.722Z</time></trkpt><trkpt lat="41.2024333" lon="14.842305"><ele>389.0</ele><time>2026-03-15T12:15:03.723Z</time></trkpt><trkpt lat="41.2023067" lon="14.8423517"><ele>389.0</ele><time>2026-03-15T12:15:04.723Z</time></trkpt><trkpt lat="41.20221" lon="14.84245"><ele>389.0</ele><time>2026-03-15T12:15:05.722Z</time></trkpt><trkpt lat="41.2021433" lon="14.8426233"><ele>387.3333333333333</ele><time>2026-03-15T12:15:06.723Z</time></trkpt><trkpt lat="41.2021333" lon="14.8428583"><ele>385.66666666666663</ele><time>2026-03-15T12:15:07.723Z</time></trkpt><trkpt lat="41.2020567" lon="14.84304"><ele>384.0</ele><time>2026-03-15T12:15:08.723Z</time></trkpt><trkpt lat="41.2019733" lon="14.8431783"><ele>384.0</ele><time>2026-03-15T12:15:09.723Z</time></trkpt><trkpt lat="41.2019017" lon="14.8432967"><ele>384.0</ele><time>2026-03-15T12:15:10.723Z</time></trkpt><trkpt lat="41.2018217" lon="14.8433917"><ele>384.0</ele><time>2026-03-15T12:15:11.723Z</time></trkpt><trkpt lat="41.2017267" lon="14.8434333"><ele>384.0</ele><time>2026-03-15T12:15:12.723Z</time></trkpt><trkpt lat="41.2016317" lon="14.843485"><ele>384.0</ele><time>2026-03-15T12:15:13.723Z</time></trkpt><trkpt lat="41.2015283" lon="14.8434383"><ele>384.0</ele><time>2026-03-15T12:15:14.723Z</time></trkpt><trkpt lat="41.2014467" lon="14.8433183"><ele>384.0</ele><time>2026-03-15T12:15:15.722Z</time></trkpt><trkpt lat="41.2013683" lon="14.8431817"><ele>384.0</ele><time>2026-03-15T12:15:16.723Z</time></trkpt><trkpt lat="41.201285" lon="14.84299"><ele>384.0</ele><time>2026-03-15T12:15:17.723Z</time></trkpt><trkpt lat="41.2011783" lon="14.84279"><ele>382.0</ele><time>2026-03-15T12:15:18.723Z</time></trkpt><trkpt lat="41.2010717" lon="14.84258"><ele>380.0</ele><time>2026-03-15T12:15:19.722Z</time></trkpt><trkpt lat="41.20096" lon="14.84235"><ele>378.0</ele><time>2026-03-15T12:15:20.723Z</time></trkpt><trkpt lat="41.2008533" lon="14.8421167"><ele>378.0</ele><time>2026-03-15T12:15:21.722Z</time></trkpt><trkpt lat="41.2007267" lon="14.8419217"><ele>378.0</ele><time>2026-03-15T12:15:22.722Z</time></trkpt><trkpt lat="41.200605" lon="14.8417417"><ele>378.0</ele><time>2026-03-15T12:15:23.723Z</time></trkpt><trkpt lat="41.2004783" lon="14.8415817"><ele>376.0</ele><time>2026-03-15T12:15:24.723Z</time></trkpt><trkpt lat="41.2003617" lon="14.8414183"><ele>374.0</ele><time>2026-03-15T12:15:25.723Z</time></trkpt><trkpt lat="41.20024" lon="14.8412667"><ele>372.0</ele><time>2026-03-15T12:15:26.723Z</time></trkpt><trkpt lat="41.200105" lon="14.8411567"><ele>372.0</ele><time>2026-03-15T12:15:27.723Z</time></trkpt><trkpt lat="41.1999517" lon="14.841035"><ele>372.0</ele><time>2026-03-15T12:15:28.723Z</time></trkpt><trkpt lat="41.1998133" lon="14.8409033"><ele>372.0</ele><time>2026-03-15T12:15:29.722Z</time></trkpt><trkpt lat="41.1996767" lon="14.8407817"><ele>370.0</ele><time>2026-03-15T12:15:30.723Z</time></trkpt><trkpt lat="41.19954" lon="14.8406667"><ele>368.0</ele><time>2026-03-15T12:15:31.723Z</time></trkpt><trkpt lat="41.19941" lon="14.8405533"><ele>366.0</ele><time>2026-03-15T12:15:32.723Z</time></trkpt><trkpt lat="41.1992817" lon="14.8404467"><ele>366.0</ele><time>2026-03-15T12:15:33.723Z</time></trkpt><trkpt lat="41.1991533" lon="14.8403367"><ele>366.0</ele><time>2026-03-15T12:15:34.723Z</time></trkpt><trkpt lat="41.1990333" lon="14.84022"><ele>366.0</ele><time>2026-03-15T12:15:35.723Z</time></trkpt><trkpt lat="41.19891" lon="14.840085"><ele>364.3333333333333</ele><time>2026-03-15T12:15:36.723Z</time></trkpt><trkpt lat="41.1987933" lon="14.8399383"><ele>362.66666666666663</ele><time>2026-03-15T12:15:37.723Z</time></trkpt><trkpt lat="41.1986817" lon="14.839775"><ele>361.0</ele><time>2026-03-15T12:15:38.722Z</time></trkpt><trkpt lat="41.19858" lon="14.8395917"><ele>361.0</ele><time>2026-03-15T12:15:39.723Z</time></trkpt><trkpt lat="41.1984883" lon="14.8394067"><ele>361.0</ele><time>2026-03-15T12:15:40.723Z</time></trkpt><trkpt lat="41.1984117" lon="14.8392217"><ele>361.0</ele><time>2026-03-15T12:15:41.723Z</time></trkpt><trkpt lat="41.198355" lon="14.8390217"><ele>360.0</ele><time>2026-03-15T12:15:42.722Z</time></trkpt><trkpt lat="41.1983" lon="14.838815"><ele>359.0</ele><time>2026-03-15T12:15:43.723Z</time></trkpt><trkpt lat="41.1982583" lon="14.8386067"><ele>358.0</ele><time>2026-03-15T12:15:44.723Z</time></trkpt><trkpt lat="41.1982167" lon="14.8383933"><ele>357.3333333333333</ele><time>2026-03-15T12:15:45.723Z</time></trkpt><trkpt lat="41.1981867" lon="14.838175"><ele>356.6666666666667</ele><time>2026-03-15T12:15:46.722Z</time></trkpt><trkpt lat="41.1981633" lon="14.8379717"><ele>356.0</ele><time>2026-03-15T12:15:47.723Z</time></trkpt><trkpt lat="41.1981533" lon="14.8377783"><ele>355.25</ele><time>2026-03-15T12:15:48.723Z</time></trkpt><trkpt lat="41.1981633" lon="14.8375883"><ele>354.5</ele><time>2026-03-15T12:15:49.722Z</time></trkpt><trkpt lat="41.19821" lon="14.8374233"><ele>353.75</ele><time>2026-03-15T12:15:50.722Z</time></trkpt><trkpt lat="41.198285" lon="14.8372717"><ele>353.0</ele><time>2026-03-15T12:15:51.723Z</time></trkpt><trkpt lat="41.1983417" lon="14.83712"><ele>353.0</ele><time>2026-03-15T12:15:52.723Z</time></trkpt><trkpt lat="41.1983767" lon="14.8369683"><ele>353.0</ele><time>2026-03-15T12:15:53.723Z</time></trkpt><trkpt lat="41.198385" lon="14.836825"><ele>353.0</ele><time>2026-03-15T12:15:54.723Z</time></trkpt><trkpt lat="41.198355" lon="14.83667"><ele>353.0</ele><time>2026-03-15T12:15:55.723Z</time></trkpt><trkpt lat="41.1983083" lon="14.8365167"><ele>353.25</ele><time>2026-03-15T12:15:56.723Z</time></trkpt><trkpt lat="41.198245" lon="14.8363533"><ele>353.5</ele><time>2026-03-15T12:15:57.723Z</time></trkpt><trkpt lat="41.1981833" lon="14.836185"><ele>353.75</ele><time>2026-03-15T12:15:58.722Z</time></trkpt><trkpt lat="41.198115" lon="14.8360383"><ele>354.0</ele><time>2026-03-15T12:15:59.722Z</time></trkpt><trkpt lat="41.1980367" lon="14.8358983"><ele>354.0</ele><time>2026-03-15T12:16:00.723Z</time></trkpt><trkpt lat="41.1979333" lon="14.835795"><ele>354.0</ele><time>2026-03-15T12:16:01.723Z</time></trkpt><trkpt lat="41.1978367" lon="14.8357217"><ele>354.0</ele><time>2026-03-15T12:16:02.723Z</time></trkpt><trkpt lat="41.1977417" lon="14.835635"><ele>354.0</ele><time>2026-03-15T12:16:03.723Z</time></trkpt><trkpt lat="41.1975833" lon="14.8356667"><ele>354.0</ele><time>2026-03-15T12:16:04.723Z</time></trkpt><trkpt lat="41.1973983" lon="14.8357433"><ele>354.0</ele><time>2026-03-15T12:16:05.723Z</time></trkpt><trkpt lat="41.1972017" lon="14.8358017"><ele>354.0</ele><time>2026-03-15T12:16:06.723Z</time></trkpt><trkpt lat="41.197" lon="14.8358633"><ele>356.0</ele><time>2026-03-15T12:16:07.723Z</time></trkpt><trkpt lat="41.1968017" lon="14.8359133"><ele>358.0</ele><time>2026-03-15T12:16:08.723Z</time></trkpt><trkpt lat="41.196625" lon="14.8359683"><ele>360.0</ele><time>2026-03-15T12:16:09.723Z</time></trkpt><trkpt lat="41.1964617" lon="14.836045"><ele>361.6666666666667</ele><time>2026-03-15T12:16:10.723Z</time></trkpt><trkpt lat="41.1963133" lon="14.8361317"><ele>363.33333333333337</ele><time>2026-03-15T12:16:11.723Z</time></trkpt><trkpt lat="41.1961817" lon="14.836245"><ele>365.0</ele><time>2026-03-15T12:16:12.723Z</time></trkpt><trkpt lat="41.1960767" lon="14.8363733"><ele>365.0</ele><time>2026-03-15T12:16:13.723Z</time></trkpt><trkpt lat="41.196005" lon="14.8364817"><ele>365.0</ele><time>2026-03-15T12:16:14.722Z</time></trkpt><trkpt lat="41.1959267" lon="14.8366317"><ele>365.0</ele><time>2026-03-15T12:16:15.723Z</time></trkpt><trkpt lat="41.1958633" lon="14.83679"><ele>365.0</ele><time>2026-03-15T12:16:16.723Z</time></trkpt><trkpt lat="41.1957867" lon="14.836925"><ele>365.75</ele><time>2026-03-15T12:16:17.723Z</time></trkpt><trkpt lat="41.1957033" lon="14.8370567"><ele>366.5</ele><time>2026-03-15T12:16:18.722Z</time></trkpt><trkpt lat="41.1956033" lon="14.8371833"><ele>367.25</ele><time>2026-03-15T12:16:19.723Z</time></trkpt><trkpt lat="41.1955" lon="14.8372783"><ele>368.0</ele><time>2026-03-15T12:16:20.723Z</time></trkpt><trkpt lat="41.1953883" lon="14.8372733"><ele>368.0</ele><time>2026-03-15T12:16:21.722Z</time></trkpt><trkpt lat="41.1952917" lon="14.8372717"><ele>368.0</ele><time>2026-03-15T12:16:22.723Z</time></trkpt><trkpt lat="41.1952167" lon="14.837245"><ele>368.0</ele><time>2026-03-15T12:16:23.723Z</time></trkpt><trkpt lat="41.19515" lon="14.8371783"><ele>368.0</ele><time>2026-03-15T12:16:24.723Z</time></trkpt><trkpt lat="41.1950817" lon="14.8370633"><ele>368.0</ele><time>2026-03-15T12:16:25.723Z</time></trkpt><trkpt lat="41.1949867" lon="14.8369267"><ele>368.0</ele><time>2026-03-15T12:16:26.723Z</time></trkpt><trkpt lat="41.1948933" lon="14.8368167"><ele>368.0</ele><time>2026-03-15T12:16:27.723Z</time></trkpt><trkpt lat="41.1947533" lon="14.8366633"><ele>368.0</ele><time>2026-03-15T12:16:28.723Z</time></trkpt><trkpt lat="41.1946067" lon="14.83652"><ele>369.6666666666667</ele><time>2026-03-15T12:16:29.723Z</time></trkpt><trkpt lat="41.194445" lon="14.8363733"><ele>371.3333333333333</ele><time>2026-03-15T12:16:30.722Z</time></trkpt><trkpt lat="41.1942483" lon="14.8361833"><ele>373.0</ele><time>2026-03-15T12:16:31.723Z</time></trkpt><trkpt lat="41.1940417" lon="14.8359917"><ele>375.5</ele><time>2026-03-15T12:16:32.723Z</time></trkpt><trkpt lat="41.1938117" lon="14.835785"><ele>378.0</ele><time>2026-03-15T12:16:33.723Z</time></trkpt><trkpt lat="41.193595" lon="14.83558"><ele>378.0</ele><time>2026-03-15T12:16:34.722Z</time></trkpt><trkpt lat="41.1933983" lon="14.835405"><ele>378.0</ele><time>2026-03-15T12:16:35.722Z</time></trkpt><trkpt lat="41.19318" lon="14.8352183"><ele>380.5</ele><time>2026-03-15T12:16:36.723Z</time></trkpt><trkpt lat="41.19292" lon="14.834965"><ele>383.0</ele><time>2026-03-15T12:16:37.723Z</time></trkpt><trkpt lat="41.1927183" lon="14.8347717"><ele>383.0</ele><time>2026-03-15T12:16:38.723Z</time></trkpt><trkpt lat="41.1925233" lon="14.8346033"><ele>383.0</ele><time>2026-03-15T12:16:39.723Z</time></trkpt><trkpt lat="41.192325" lon="14.8344317"><ele>385.0</ele><time>2026-03-15T12:16:40.722Z</time></trkpt><trkpt lat="41.1921333" lon="14.8342583"><ele>387.0</ele><time>2026-03-15T12:16:41.723Z</time></trkpt><trkpt lat="41.1919017" lon="14.8341067"><ele>387.0</ele><time>2026-03-15T12:16:42.723Z</time></trkpt><trkpt lat="41.19172" lon="14.8339267"><ele>387.0</ele><time>2026-03-15T12:16:43.723Z</time></trkpt><trkpt lat="41.1915383" lon="14.8337683"><ele>387.0</ele><time>2026-03-15T12:16:44.723Z</time></trkpt><trkpt lat="41.19136" lon="14.8336217"><ele>388.33333333333337</ele><time>2026-03-15T12:16:45.723Z</time></trkpt><trkpt lat="41.1911883" lon="14.8334583"><ele>389.6666666666667</ele><time>2026-03-15T12:16:46.723Z</time></trkpt><trkpt lat="41.1910283" lon="14.8332817"><ele>391.0</ele><time>2026-03-15T12:16:47.723Z</time></trkpt><trkpt lat="41.1908883" lon="14.8331017"><ele>391.0</ele><time>2026-03-15T12:16:48.723Z</time></trkpt><trkpt lat="41.190755" lon="14.8329133"><ele>391.0</ele><time>2026-03-15T12:16:49.722Z</time></trkpt><trkpt lat="41.1905833" lon="14.8327083"><ele>391.0</ele><time>2026-03-15T12:16:50.723Z</time></trkpt><trkpt lat="41.1904783" lon="14.8325067"><ele>392.33333333333337</ele><time>2026-03-15T12:16:51.723Z</time></trkpt><trkpt lat="41.1903717" lon="14.832305"><ele>393.66666666666663</ele><time>2026-03-15T12:16:52.722Z</time></trkpt><trkpt lat="41.19026" lon="14.8320967"><ele>395.0</ele><time>2026-03-15T12:16:53.723Z</time></trkpt><trkpt lat="41.1901333" lon="14.83188"><ele>395.0</ele><time>2026-03-15T12:16:54.723Z</time></trkpt><trkpt lat="41.1900133" lon="14.83168"><ele>395.0</ele><time>2026-03-15T12:16:55.723Z</time></trkpt><trkpt lat="41.1899" lon="14.83149"><ele>395.0</ele><time>2026-03-15T12:16:56.723Z</time></trkpt><trkpt lat="41.1897783" lon="14.8313133"><ele>395.0</ele><time>2026-03-15T12:16:57.722Z</time></trkpt><trkpt lat="41.18965" lon="14.83112"><ele>395.0</ele><time>2026-03-15T12:16:58.722Z</time></trkpt><trkpt lat="41.1895417" lon="14.83093"><ele>395.0</ele><time>2026-03-15T12:16:59.723Z</time></trkpt><trkpt lat="41.1894317" lon="14.8307333"><ele>395.3333333333333</ele><time>2026-03-15T12:17:00.722Z</time></trkpt><trkpt lat="41.18933" lon="14.83053"><ele>395.66666666666663</ele><time>2026-03-15T12:17:01.722Z</time></trkpt><trkpt lat="41.1892233" lon="14.83032"><ele>396.0</ele><time>2026-03-15T12:17:02.723Z</time></trkpt><trkpt lat="41.1891183" lon="14.8301033"><ele>396.0</ele><time>2026-03-15T12:17:03.723Z</time></trkpt><trkpt lat="41.1890117" lon="14.8298717"><ele>396.0</ele><time>2026-03-15T12:17:04.723Z</time></trkpt><trkpt lat="41.1889183" lon="14.82964"><ele>396.0</ele><time>2026-03-15T12:17:05.723Z</time></trkpt><trkpt lat="41.1888317" lon="14.8294033"><ele>394.0</ele><time>2026-03-15T12:17:06.723Z</time></trkpt><trkpt lat="41.1887617" lon="14.8291683"><ele>392.0</ele><time>2026-03-15T12:17:07.722Z</time></trkpt><trkpt lat="41.188695" lon="14.828935"><ele>390.0</ele><time>2026-03-15T12:17:08.723Z</time></trkpt><trkpt lat="41.1886417" lon="14.8287017"><ele>389.33333333333337</ele><time>2026-03-15T12:17:09.722Z</time></trkpt><trkpt lat="41.18858" lon="14.82845"><ele>388.6666666666667</ele><time>2026-03-15T12:17:10.723Z</time></trkpt><trkpt lat="41.18854" lon="14.8281967"><ele>388.0</ele><time>2026-03-15T12:17:11.723Z</time></trkpt><trkpt lat="41.1884917" lon="14.8279433"><ele>388.0</ele><time>2026-03-15T12:17:12.723Z</time></trkpt><trkpt lat="41.1884433" lon="14.827685"><ele>388.0</ele><time>2026-03-15T12:17:13.723Z</time></trkpt><trkpt lat="41.1884267" lon="14.827415"><ele>388.0</ele><time>2026-03-15T12:17:14.723Z</time></trkpt><trkpt lat="41.1884417" lon="14.827155"><ele>388.6666666666667</ele><time>2026-03-15T12:17:15.723Z</time></trkpt><trkpt lat="41.188465" lon="14.8269017"><ele>389.33333333333337</ele><time>2026-03-15T12:17:16.723Z</time></trkpt><trkpt lat="41.1884933" lon="14.826655"><ele>390.0</ele><time>2026-03-15T12:17:17.723Z</time></trkpt><trkpt lat="41.188525" lon="14.8264133"><ele>390.0</ele><time>2026-03-15T12:17:18.722Z</time></trkpt><trkpt lat="41.1885583" lon="14.82616"><ele>390.0</ele><time>2026-03-15T12:17:19.723Z</time></trkpt><trkpt lat="41.18861" lon="14.8258983"><ele>390.0</ele><time>2026-03-15T12:17:20.723Z</time></trkpt><trkpt lat="41.18865" lon="14.8256533"><ele>389.66666666666663</ele><time>2026-03-15T12:17:21.723Z</time></trkpt><trkpt lat="41.18868" lon="14.8253917"><ele>389.3333333333333</ele><time>2026-03-15T12:17:22.722Z</time></trkpt><trkpt lat="41.1887033" lon="14.825145"><ele>389.0</ele><time>2026-03-15T12:17:23.723Z</time></trkpt><trkpt lat="41.1887283" lon="14.82491"><ele>389.0</ele><time>2026-03-15T12:17:24.723Z</time></trkpt><trkpt lat="41.1887433" lon="14.8247017"><ele>389.0</ele><time>2026-03-15T12:17:25.723Z</time></trkpt><trkpt lat="41.188745" lon="14.824505"><ele>389.0</ele><time>2026-03-15T12:17:26.722Z</time></trkpt><trkpt lat="41.188695" lon="14.82429"><ele>389.0</ele><time>2026-03-15T12:17:27.723Z</time></trkpt><trkpt lat="41.188645" lon="14.82409"><ele>389.0</ele><time>2026-03-15T12:17:28.723Z</time></trkpt><trkpt lat="41.1885217" lon="14.82394"><ele>389.0</ele><time>2026-03-15T12:17:29.722Z</time></trkpt><trkpt lat="41.1883233" lon="14.8238383"><ele>389.0</ele><time>2026-03-15T12:17:30.723Z</time></trkpt><trkpt lat="41.188225" lon="14.8236717"><ele>389.0</ele><time>2026-03-15T12:17:31.723Z</time></trkpt><trkpt lat="41.1881267" lon="14.8234967"><ele>389.0</ele><time>2026-03-15T12:17:32.723Z</time></trkpt><trkpt lat="41.1880183" lon="14.8233333"><ele>388.3333333333333</ele><time>2026-03-15T12:17:33.723Z</time></trkpt><trkpt lat="41.1879117" lon="14.82316"><ele>387.66666666666663</ele><time>2026-03-15T12:17:34.723Z</time></trkpt><trkpt lat="41.18779" lon="14.82301"><ele>387.0</ele><time>2026-03-15T12:17:35.722Z</time></trkpt><trkpt lat="41.1876683" lon="14.82285"><ele>387.0</ele><time>2026-03-15T12:17:36.723Z</time></trkpt><trkpt lat="41.1875367" lon="14.822695"><ele>387.0</ele><time>2026-03-15T12:17:37.722Z</time></trkpt><trkpt lat="41.1873883" lon="14.8225367"><ele>387.0</ele><time>2026-03-15T12:17:38.723Z</time></trkpt><trkpt lat="41.1872233" lon="14.822385"><ele>386.66666666666663</ele><time>2026-03-15T12:17:39.723Z</time></trkpt><trkpt lat="41.1870517" lon="14.8222483"><ele>386.3333333333333</ele><time>2026-03-15T12:17:40.723Z</time></trkpt><trkpt lat="41.1868733" lon="14.82211"><ele>386.0</ele><time>2026-03-15T12:17:41.723Z</time></trkpt><trkpt lat="41.1867533" lon="14.8219133"><ele>386.3333333333333</ele><time>2026-03-15T12:17:42.723Z</time></trkpt><trkpt lat="41.18661" lon="14.8217417"><ele>386.66666666666663</ele><time>2026-03-15T12:17:43.723Z</time></trkpt><trkpt lat="41.1864717" lon="14.821605"><ele>387.0</ele><time>2026-03-15T12:17:44.723Z</time></trkpt><trkpt lat="41.1863133" lon="14.8214283"><ele>387.0</ele><time>2026-03-15T12:17:45.723Z</time></trkpt><trkpt lat="41.1861517" lon="14.8212717"><ele>387.0</ele><time>2026-03-15T12:17:46.723Z</time></trkpt><trkpt lat="41.1859617" lon="14.8211567"><ele>387.0</ele><time>2026-03-15T12:17:47.723Z</time></trkpt><trkpt lat="41.1857533" lon="14.8210383"><ele>387.0</ele><time>2026-03-15T12:17:48.722Z</time></trkpt><trkpt lat="41.18553" lon="14.8209433"><ele>387.0</ele><time>2026-03-15T12:17:49.723Z</time></trkpt><trkpt lat="41.1852833" lon="14.8208217"><ele>387.0</ele><time>2026-03-15T12:17:50.723Z</time></trkpt><trkpt lat="41.1850417" lon="14.8207033"><ele>387.0</ele><time>2026-03-15T12:17:51.723Z</time></trkpt><trkpt lat="41.1848667" lon="14.82056"><ele>386.33333333333337</ele><time>2026-03-15T12:17:52.723Z</time></trkpt><trkpt lat="41.18469" lon="14.8204033"><ele>385.6666666666667</ele><time>2026-03-15T12:17:53.723Z</time></trkpt><trkpt lat="41.184515" lon="14.8202417"><ele>385.0</ele><time>2026-03-15T12:17:54.722Z</time></trkpt><trkpt lat="41.1843867" lon="14.8200667"><ele>385.0</ele><time>2026-03-15T12:17:55.723Z</time></trkpt><trkpt lat="41.1842517" lon="14.81985"><ele>385.0</ele><time>2026-03-15T12:17:56.722Z</time></trkpt><trkpt lat="41.1841167" lon="14.8196367"><ele>385.0</ele><time>2026-03-15T12:17:57.723Z</time></trkpt><trkpt lat="41.1839667" lon="14.8194267"><ele>383.5</ele><time>2026-03-15T12:17:58.722Z</time></trkpt><trkpt lat="41.1838433" lon="14.8192083"><ele>382.0</ele><time>2026-03-15T12:17:59.723Z</time></trkpt><trkpt lat="41.1836067" lon="14.8185783"><ele>383.0</ele><time>2026-03-15T12:18:00.723Z</time></trkpt><trkpt lat="41.1834667" lon="14.8182417"><ele>384.0</ele><time>2026-03-15T12:18:01.723Z</time></trkpt><trkpt lat="41.18338" lon="14.8179533"><ele>384.0</ele><time>2026-03-15T12:18:02.722Z</time></trkpt><trkpt lat="41.1832817" lon="14.81766"><ele>384.0</ele><time>2026-03-15T12:18:03.723Z</time></trkpt><trkpt lat="41.1832083" lon="14.8174317"><ele>384.0</ele><time>2026-03-15T12:18:04.723Z</time></trkpt><trkpt lat="41.1830833" lon="14.8172217"><ele>384.0</ele><time>2026-03-15T12:18:05.723Z</time></trkpt><trkpt lat="41.182975" lon="14.81703"><ele>384.0</ele><time>2026-03-15T12:18:06.723Z</time></trkpt><trkpt lat="41.1828867" lon="14.816845"><ele>384.0</ele><time>2026-03-15T12:18:07.722Z</time></trkpt><trkpt lat="41.182775" lon="14.8166367"><ele>384.0</ele><time>2026-03-15T12:18:08.723Z</time></trkpt><trkpt lat="41.1826717" lon="14.8164383"><ele>384.0</ele><time>2026-03-15T12:18:09.722Z</time></trkpt><trkpt lat="41.18257" lon="14.8162367"><ele>384.0</ele><time>2026-03-15T12:18:10.723Z</time></trkpt><trkpt lat="41.18247" lon="14.8160367"><ele>384.33333333333337</ele><time>2026-03-15T12:18:11.723Z</time></trkpt><trkpt lat="41.1823717" lon="14.8158383"><ele>384.6666666666667</ele><time>2026-03-15T12:18:12.723Z</time></trkpt><trkpt lat="41.18227" lon="14.81564"><ele>385.0</ele><time>2026-03-15T12:18:13.722Z</time></trkpt><trkpt lat="41.1821667" lon="14.8154417"><ele>384.33333333333337</ele><time>2026-03-15T12:18:14.723Z</time></trkpt><trkpt lat="41.18206" lon="14.8152467"><ele>383.6666666666667</ele><time>2026-03-15T12:18:15.723Z</time></trkpt><trkpt lat="41.1819633" lon="14.815035"><ele>383.0</ele><time>2026-03-15T12:18:16.723Z</time></trkpt><trkpt lat="41.181875" lon="14.8148133"><ele>383.0</ele><time>2026-03-15T12:18:17.723Z</time></trkpt><trkpt lat="41.181785" lon="14.8145933"><ele>383.0</ele><time>2026-03-15T12:18:18.723Z</time></trkpt><trkpt lat="41.1817083" lon="14.8143567"><ele>383.0</ele><time>2026-03-15T12:18:19.723Z</time></trkpt><trkpt lat="41.1816633" lon="14.81416"><ele>382.75</ele><time>2026-03-15T12:18:20.723Z</time></trkpt><trkpt lat="41.181645" lon="14.8140033"><ele>382.5</ele><time>2026-03-15T12:18:21.723Z</time></trkpt><trkpt lat="41.18158" lon="14.8138067"><ele>382.25</ele><time>2026-03-15T12:18:22.723Z</time></trkpt><trkpt lat="41.181625" lon="14.8136217"><ele>382.0</ele><time>2026-03-15T12:18:23.722Z</time></trkpt><trkpt lat="41.18164" lon="14.8134317"><ele>380.66666666666663</ele><time>2026-03-15T12:18:24.723Z</time></trkpt><trkpt lat="41.1816917" lon="14.813245"><ele>379.3333333333333</ele><time>2026-03-15T12:18:25.723Z</time></trkpt><trkpt lat="41.1817683" lon="14.813035"><ele>378.0</ele><time>2026-03-15T12:18:26.723Z</time></trkpt><trkpt lat="41.1819517" lon="14.8128367"><ele>378.0</ele><time>2026-03-15T12:18:27.723Z</time></trkpt><trkpt lat="41.1821917" lon="14.8127083"><ele>378.0</ele><time>2026-03-15T12:18:28.723Z</time></trkpt><trkpt lat="41.1823717" lon="14.812575"><ele>377.3333333333333</ele><time>2026-03-15T12:18:29.723Z</time></trkpt><trkpt lat="41.1825433" lon="14.812435"><ele>376.66666666666663</ele><time>2026-03-15T12:18:30.722Z</time></trkpt><trkpt lat="41.182675" lon="14.812305"><ele>376.0</ele><time>2026-03-15T12:18:31.723Z</time></trkpt><trkpt lat="41.1828033" lon="14.8121283"><ele>376.0</ele><time>2026-03-15T12:18:32.723Z</time></trkpt><trkpt lat="41.182935" lon="14.8119433"><ele>376.0</ele><time>2026-03-15T12:18:33.723Z</time></trkpt><trkpt lat="41.183045" lon="14.8117617"><ele>376.0</ele><time>2026-03-15T12:18:34.722Z</time></trkpt><trkpt lat="41.1831433" lon="14.811585"><ele>376.25</ele><time>2026-03-15T12:18:35.723Z</time></trkpt><trkpt lat="41.18324" lon="14.8114117"><ele>376.5</ele><time>2026-03-15T12:18:36.723Z</time></trkpt><trkpt lat="41.1832183" lon="14.81131"><ele>376.75</ele><time>2026-03-15T12:18:37.723Z</time></trkpt><trkpt lat="41.18329" lon="14.8111683"><ele>377.0</ele><time>2026-03-15T12:18:38.723Z</time></trkpt><trkpt lat="41.18334" lon="14.8110217"><ele>376.25</ele><time>2026-03-15T12:18:39.723Z</time></trkpt><trkpt lat="41.1833917" lon="14.810885"><ele>375.5</ele><time>2026-03-15T12:18:40.723Z</time></trkpt><trkpt lat="41.183435" lon="14.8107317"><ele>374.75</ele><time>2026-03-15T12:18:41.723Z</time></trkpt><trkpt lat="41.183435" lon="14.8105733"><ele>374.0</ele><time>2026-03-15T12:18:42.723Z</time></trkpt><trkpt lat="41.1834467" lon="14.8103783"><ele>374.0</ele><time>2026-03-15T12:18:43.723Z</time></trkpt><trkpt lat="41.183455" lon="14.810215"><ele>374.0</ele><time>2026-03-15T12:18:44.723Z</time></trkpt><trkpt lat="41.18343" lon="14.810055"><ele>374.0</ele><time>2026-03-15T12:18:45.723Z</time></trkpt><trkpt lat="41.1834267" lon="14.8098633"><ele>374.0</ele><time>2026-03-15T12:18:46.723Z</time></trkpt><trkpt lat="41.183425" lon="14.80968"><ele>374.0</ele><time>2026-03-15T12:18:47.723Z</time></trkpt><trkpt lat="41.1833967" lon="14.8095083"><ele>374.0</ele><time>2026-03-15T12:18:48.723Z</time></trkpt><trkpt lat="41.1833233" lon="14.8093667"><ele>374.0</ele><time>2026-03-15T12:18:49.723Z</time></trkpt><trkpt lat="41.1833067" lon="14.809205"><ele>374.0</ele><time>2026-03-15T12:18:50.723Z</time></trkpt><trkpt lat="41.1832333" lon="14.8090633"><ele>374.5</ele><time>2026-03-15T12:18:51.723Z</time></trkpt><trkpt lat="41.1831933" lon="14.80892"><ele>375.0</ele><time>2026-03-15T12:18:52.723Z</time></trkpt><trkpt lat="41.1828617" lon="14.80885"><ele>369.0</ele><time>2026-03-15T12:18:53.723Z</time></trkpt><trkpt lat="41.1827833" lon="14.808705"><ele>363.0</ele><time>2026-03-15T12:18:54.723Z</time></trkpt><trkpt lat="41.1824617" lon="14.80855"><ele>360.5</ele><time>2026-03-15T12:18:55.723Z</time></trkpt><trkpt lat="41.1822383" lon="14.8084183"><ele>358.0</ele><time>2026-03-15T12:18:56.723Z</time></trkpt><trkpt lat="41.18202" lon="14.8082233"><ele>358.0</ele><time>2026-03-15T12:18:57.723Z</time></trkpt><trkpt lat="41.1818117" lon="14.8080667"><ele>358.0</ele><time>2026-03-15T12:18:58.723Z</time></trkpt><trkpt lat="41.18166" lon="14.8078917"><ele>358.0</ele><time>2026-03-15T12:18:59.723Z</time></trkpt><trkpt lat="41.1814767" lon="14.8077417"><ele>355.66666666666663</ele><time>2026-03-15T12:19:00.723Z</time></trkpt><trkpt lat="41.1813517" lon="14.807675"><ele>353.3333333333333</ele><time>2026-03-15T12:19:01.722Z</time></trkpt><trkpt lat="41.181225" lon="14.8075483"><ele>351.0</ele><time>2026-03-15T12:19:02.723Z</time></trkpt><trkpt lat="41.181105" lon="14.8073683"><ele>351.0</ele><time>2026-03-15T12:19:03.723Z</time></trkpt><trkpt lat="41.181015" lon="14.8072183"><ele>351.0</ele><time>2026-03-15T12:19:04.723Z</time></trkpt><trkpt lat="41.1809383" lon="14.8070617"><ele>351.0</ele><time>2026-03-15T12:19:05.723Z</time></trkpt><trkpt lat="41.18086" lon="14.80686"><ele>350.6666666666667</ele><time>2026-03-15T12:19:06.723Z</time></trkpt><trkpt lat="41.1808017" lon="14.80666"><ele>350.33333333333337</ele><time>2026-03-15T12:19:07.723Z</time></trkpt><trkpt lat="41.1807417" lon="14.8064667"><ele>350.0</ele><time>2026-03-15T12:19:08.723Z</time></trkpt><trkpt lat="41.1806783" lon="14.8062733"><ele>349.75</ele><time>2026-03-15T12:19:09.722Z</time></trkpt><trkpt lat="41.1806117" lon="14.8061217"><ele>349.5</ele><time>2026-03-15T12:19:10.723Z</time></trkpt><trkpt lat="41.180545" lon="14.80598"><ele>349.25</ele><time>2026-03-15T12:19:11.723Z</time></trkpt><trkpt lat="41.180505" lon="14.8058483"><ele>349.0</ele><time>2026-03-15T12:19:12.722Z</time></trkpt><trkpt lat="41.18048" lon="14.8057367"><ele>349.0</ele><time>2026-03-15T12:19:13.723Z</time></trkpt><trkpt lat="41.180435" lon="14.8056167"><ele>349.0</ele><time>2026-03-15T12:19:14.723Z</time></trkpt><trkpt lat="41.1804" lon="14.8055167"><ele>349.0</ele><time>2026-03-15T12:19:15.723Z</time></trkpt><trkpt lat="41.1803217" lon="14.805405"><ele>349.0</ele><time>2026-03-15T12:19:17.723Z</time></trkpt><trkpt lat="41.1802267" lon="14.8054183"><ele>349.0</ele><time>2026-03-15T12:19:19.723Z</time></trkpt><trkpt lat="41.1802517" lon="14.805725"><ele>349.0</ele><time>2026-03-15T12:19:20.723Z</time></trkpt><trkpt lat="41.180185" lon="14.8058083"><ele>349.0</ele><time>2026-03-15T12:19:22.723Z</time></trkpt><trkpt lat="41.1801183" lon="14.8058533"><ele>349.0</ele><time>2026-03-15T12:19:24.722Z</time></trkpt><trkpt lat="41.180075" lon="14.8057883"><ele>349.0</ele><time>2026-03-15T12:19:25.722Z</time></trkpt><trkpt lat="41.18002" lon="14.805565"><ele>349.0</ele><time>2026-03-15T12:19:27.723Z</time></trkpt><trkpt lat="41.17997" lon="14.80542"><ele>349.0</ele><time>2026-03-15T12:19:28.723Z</time></trkpt><trkpt lat="41.179935" lon="14.8052717"><ele>349.0</ele><time>2026-03-15T12:19:29.722Z</time></trkpt><trkpt lat="41.1798883" lon="14.805135"><ele>349.0</ele><time>2026-03-15T12:19:30.723Z</time></trkpt><trkpt lat="41.1798367" lon="14.8050167"><ele>349.0</ele><time>2026-03-15T12:19:31.722Z</time></trkpt><trkpt lat="41.1797567" lon="14.804835"><ele>350.75</ele><time>2026-03-15T12:19:32.722Z</time></trkpt><trkpt lat="41.1797067" lon="14.8046267"><ele>352.5</ele><time>2026-03-15T12:19:33.723Z</time></trkpt><trkpt lat="41.17967" lon="14.804435"><ele>354.25</ele><time>2026-03-15T12:19:34.723Z</time></trkpt><trkpt lat="41.179635" lon="14.8042633"><ele>356.0</ele><time>2026-03-15T12:19:35.722Z</time></trkpt><trkpt lat="41.1796417" lon="14.8040883"><ele>356.75</ele><time>2026-03-15T12:19:36.723Z</time></trkpt><trkpt lat="41.1796233" lon="14.8039633"><ele>357.5</ele><time>2026-03-15T12:19:37.723Z</time></trkpt><trkpt lat="41.1797567" lon="14.8038867"><ele>358.25</ele><time>2026-03-15T12:19:39.723Z</time></trkpt><trkpt lat="41.1799133" lon="14.8039167"><ele>359.0</ele><time>2026-03-15T12:19:40.723Z</time></trkpt><trkpt lat="41.1800433" lon="14.8039833"><ele>359.0</ele><time>2026-03-15T12:19:41.723Z</time></trkpt><trkpt lat="41.1801717" lon="14.8040983"><ele>359.0</ele><time>2026-03-15T12:19:42.723Z</time></trkpt><trkpt lat="41.180245" lon="14.8042317"><ele>359.0</ele><time>2026-03-15T12:19:43.723Z</time></trkpt><trkpt lat="41.180285" lon="14.8043783"><ele>359.0</ele><time>2026-03-15T12:19:44.723Z</time></trkpt><trkpt lat="41.1803017" lon="14.8045483"><ele>358.0</ele><time>2026-03-15T12:19:45.723Z</time></trkpt><trkpt lat="41.1802683" lon="14.8047"><ele>357.0</ele><time>2026-03-15T12:19:46.723Z</time></trkpt><trkpt lat="41.1801867" lon="14.8048133"><ele>356.0</ele><time>2026-03-15T12:19:47.723Z</time></trkpt><trkpt lat="41.18009" lon="14.8049267"><ele>355.0</ele><time>2026-03-15T12:19:48.722Z</time></trkpt><trkpt lat="41.1799783" lon="14.8050467"><ele>355.0</ele><time>2026-03-15T12:19:49.723Z</time></trkpt><trkpt lat="41.179895" lon="14.8051533"><ele>355.0</ele><time>2026-03-15T12:19:50.723Z</time></trkpt><trkpt lat="41.179815" lon="14.8052567"><ele>355.0</ele><time>2026-03-15T12:19:51.723Z</time></trkpt><trkpt lat="41.1797083" lon="14.8053583"><ele>355.0</ele><time>2026-03-15T12:19:52.723Z</time></trkpt><trkpt lat="41.17951" lon="14.805465"><ele>353.0</ele><time>2026-03-15T12:19:53.722Z</time></trkpt><trkpt lat="41.1793567" lon="14.8055633"><ele>351.0</ele><time>2026-03-15T12:19:54.723Z</time></trkpt><trkpt lat="41.1791583" lon="14.80567"><ele>349.0</ele><time>2026-03-15T12:19:55.723Z</time></trkpt><trkpt lat="41.17894" lon="14.8057933"><ele>347.3333333333333</ele><time>2026-03-15T12:19:56.722Z</time></trkpt><trkpt lat="41.1787483" lon="14.805905"><ele>345.6666666666667</ele><time>2026-03-15T12:19:57.723Z</time></trkpt><trkpt lat="41.1785883" lon="14.8060067"><ele>344.0</ele><time>2026-03-15T12:19:58.722Z</time></trkpt><trkpt lat="41.17839" lon="14.8061233"><ele>339.5</ele><time>2026-03-15T12:19:59.723Z</time></trkpt><trkpt lat="41.1781183" lon="14.806265"><ele>335.0</ele><time>2026-03-15T12:20:00.723Z</time></trkpt><trkpt lat="41.1779283" lon="14.8063867"><ele>335.0</ele><time>2026-03-15T12:20:01.722Z</time></trkpt><trkpt lat="41.177745" lon="14.8065033"><ele>335.0</ele><time>2026-03-15T12:20:02.723Z</time></trkpt><trkpt lat="41.1775783" lon="14.80661"><ele>335.0</ele><time>2026-03-15T12:20:03.723Z</time></trkpt><trkpt lat="41.1774117" lon="14.80672"><ele>331.0</ele><time>2026-03-15T12:20:04.723Z</time></trkpt><trkpt lat="41.1772383" lon="14.8068283"><ele>327.0</ele><time>2026-03-15T12:20:05.722Z</time></trkpt><trkpt lat="41.1770367" lon="14.806945"><ele>323.0</ele><time>2026-03-15T12:20:06.722Z</time></trkpt><trkpt lat="41.176865" lon="14.8070217"><ele>323.0</ele><time>2026-03-15T12:20:07.723Z</time></trkpt><trkpt lat="41.1766683" lon="14.8070767"><ele>323.0</ele><time>2026-03-15T12:20:08.723Z</time></trkpt><trkpt lat="41.1764633" lon="14.80713"><ele>323.0</ele><time>2026-03-15T12:20:09.723Z</time></trkpt><trkpt lat="41.176265" lon="14.80713"><ele>321.33333333333337</ele><time>2026-03-15T12:20:10.723Z</time></trkpt><trkpt lat="41.1760683" lon="14.8071183"><ele>319.6666666666667</ele><time>2026-03-15T12:20:11.723Z</time></trkpt><trkpt lat="41.175865" lon="14.8070983"><ele>318.0</ele><time>2026-03-15T12:20:12.722Z</time></trkpt><trkpt lat="41.1756467" lon="14.807045"><ele>318.0</ele><time>2026-03-15T12:20:13.723Z</time></trkpt><trkpt lat="41.1754317" lon="14.806955"><ele>318.0</ele><time>2026-03-15T12:20:14.723Z</time></trkpt><trkpt lat="41.1752217" lon="14.80688"><ele>318.0</ele><time>2026-03-15T12:20:15.723Z</time></trkpt><trkpt lat="41.17501" lon="14.8066867"><ele>315.0</ele><time>2026-03-15T12:20:16.723Z</time></trkpt><trkpt lat="41.1747933" lon="14.8064867"><ele>312.0</ele><time>2026-03-15T12:20:17.723Z</time></trkpt><trkpt lat="41.1745917" lon="14.8062833"><ele>312.0</ele><time>2026-03-15T12:20:18.723Z</time></trkpt><trkpt lat="41.1743983" lon="14.806065"><ele>312.0</ele><time>2026-03-15T12:20:19.722Z</time></trkpt><trkpt lat="41.1742333" lon="14.8058317"><ele>314.5</ele><time>2026-03-15T12:20:20.723Z</time></trkpt><trkpt lat="41.174075" lon="14.8055983"><ele>317.0</ele><time>2026-03-15T12:20:21.722Z</time></trkpt><trkpt lat="41.173935" lon="14.8053533"><ele>312.0</ele><time>2026-03-15T12:20:22.723Z</time></trkpt><trkpt lat="41.1738133" lon="14.8050467"><ele>307.0</ele><time>2026-03-15T12:20:23.723Z</time></trkpt><trkpt lat="41.1737233" lon="14.804725"><ele>307.0</ele><time>2026-03-15T12:20:24.723Z</time></trkpt><trkpt lat="41.1737117" lon="14.804335"><ele>307.0</ele><time>2026-03-15T12:20:25.723Z</time></trkpt><trkpt lat="41.17362" lon="14.8040133"><ele>306.5</ele><time>2026-03-15T12:20:26.723Z</time></trkpt><trkpt lat="41.17352" lon="14.803675"><ele>306.0</ele><time>2026-03-15T12:20:27.723Z</time></trkpt><trkpt lat="41.1734217" lon="14.80333"><ele>306.0</ele><time>2026-03-15T12:20:28.723Z</time></trkpt><trkpt lat="41.1733117" lon="14.802985"><ele>306.0</ele><time>2026-03-15T12:20:29.723Z</time></trkpt><trkpt lat="41.17321" lon="14.80264"><ele>298.0</ele><time>2026-03-15T12:20:30.723Z</time></trkpt><trkpt lat="41.1731317" lon="14.8022867"><ele>290.0</ele><time>2026-03-15T12:20:31.722Z</time></trkpt><trkpt lat="41.17307" lon="14.80194"><ele>289.0</ele><time>2026-03-15T12:20:32.723Z</time></trkpt><trkpt lat="41.17304" lon="14.8015867"><ele>288.0</ele><time>2026-03-15T12:20:33.722Z</time></trkpt><trkpt lat="41.1730167" lon="14.80126"><ele>287.0</ele><time>2026-03-15T12:20:34.723Z</time></trkpt><trkpt lat="41.1730083" lon="14.800925"><ele>286.0</ele><time>2026-03-15T12:20:35.723Z</time></trkpt><trkpt lat="41.1730083" lon="14.800565"><ele>286.0</ele><time>2026-03-15T12:20:36.723Z</time></trkpt><trkpt lat="41.173035" lon="14.80019"><ele>286.0</ele><time>2026-03-15T12:20:37.723Z</time></trkpt><trkpt lat="41.1730567" lon="14.7997567"><ele>283.5</ele><time>2026-03-15T12:20:38.723Z</time></trkpt><trkpt lat="41.1730733" lon="14.799325"><ele>281.0</ele><time>2026-03-15T12:20:39.723Z</time></trkpt><trkpt lat="41.1731" lon="14.798885"><ele>280.0</ele><time>2026-03-15T12:20:40.722Z</time></trkpt><trkpt lat="41.17312" lon="14.79842"><ele>279.0</ele><time>2026-03-15T12:20:41.723Z</time></trkpt><trkpt lat="41.1731383" lon="14.797955"><ele>279.5</ele><time>2026-03-15T12:20:42.723Z</time></trkpt><trkpt lat="41.173165" lon="14.7974633"><ele>280.0</ele><time>2026-03-15T12:20:43.723Z</time></trkpt><trkpt lat="41.1731833" lon="14.7970067"><ele>281.5</ele><time>2026-03-15T12:20:44.723Z</time></trkpt><trkpt lat="41.173205" lon="14.79657"><ele>283.0</ele><time>2026-03-15T12:20:45.723Z</time></trkpt><trkpt lat="41.1732383" lon="14.7961417"><ele>281.0</ele><time>2026-03-15T12:20:46.723Z</time></trkpt><trkpt lat="41.1732767" lon="14.7957233"><ele>279.0</ele><time>2026-03-15T12:20:47.723Z</time></trkpt><trkpt lat="41.1733367" lon="14.7953267"><ele>276.5</ele><time>2026-03-15T12:20:48.722Z</time></trkpt><trkpt lat="41.1734967" lon="14.795005"><ele>274.0</ele><time>2026-03-15T12:20:49.723Z</time></trkpt><trkpt lat="41.1735517" lon="14.7946217"><ele>272.5</ele><time>2026-03-15T12:20:50.723Z</time></trkpt><trkpt lat="41.173625" lon="14.794245"><ele>271.0</ele><time>2026-03-15T12:20:51.723Z</time></trkpt><trkpt lat="41.17391" lon="14.79401"><ele>271.0</ele><time>2026-03-15T12:20:52.722Z</time></trkpt><trkpt lat="41.1741317" lon="14.7937617"><ele>271.0</ele><time>2026-03-15T12:20:53.723Z</time></trkpt><trkpt lat="41.1742983" lon="14.79348"><ele>271.0</ele><time>2026-03-15T12:20:54.722Z</time></trkpt><trkpt lat="41.1744633" lon="14.7931933"><ele>271.0</ele><time>2026-03-15T12:20:55.722Z</time></trkpt><trkpt lat="41.1746683" lon="14.7930117"><ele>271.0</ele><time>2026-03-15T12:20:56.723Z</time></trkpt><trkpt lat="41.1748733" lon="14.79278"><ele>271.0</ele><time>2026-03-15T12:20:57.722Z</time></trkpt><trkpt lat="41.17507" lon="14.792535"><ele>271.0</ele><time>2026-03-15T12:20:58.723Z</time></trkpt><trkpt lat="41.1752533" lon="14.7922917"><ele>271.0</ele><time>2026-03-15T12:20:59.722Z</time></trkpt><trkpt lat="41.17543" lon="14.7920367"><ele>270.0</ele><time>2026-03-15T12:21:00.723Z</time></trkpt><trkpt lat="41.1755967" lon="14.79178"><ele>269.0</ele><time>2026-03-15T12:21:01.723Z</time></trkpt><trkpt lat="41.175785" lon="14.791525"><ele>274.0</ele><time>2026-03-15T12:21:02.723Z</time></trkpt><trkpt lat="41.17596" lon="14.79127"><ele>279.0</ele><time>2026-03-15T12:21:03.723Z</time></trkpt><trkpt lat="41.1761267" lon="14.791025"><ele>275.0</ele><time>2026-03-15T12:21:04.723Z</time></trkpt><trkpt lat="41.1762783" lon="14.790765"><ele>271.0</ele><time>2026-03-15T12:21:05.723Z</time></trkpt><trkpt lat="41.176445" lon="14.7905133"><ele>274.5</ele><time>2026-03-15T12:21:06.723Z</time></trkpt><trkpt lat="41.1765983" lon="14.7902617"><ele>278.0</ele><time>2026-03-15T12:21:07.722Z</time></trkpt><trkpt lat="41.1767217" lon="14.7900367"><ele>278.0</ele><time>2026-03-15T12:21:08.723Z</time></trkpt><trkpt lat="41.1768367" lon="14.7897733"><ele>278.0</ele><time>2026-03-15T12:21:09.722Z</time></trkpt><trkpt lat="41.1769383" lon="14.789465"><ele>274.5</ele><time>2026-03-15T12:21:10.723Z</time></trkpt><trkpt lat="41.17702" lon="14.78914"><ele>271.0</ele><time>2026-03-15T12:21:11.723Z</time></trkpt><trkpt lat="41.1760783" lon="14.7876317"><ele>263.5</ele><time>2026-03-15T12:21:13.724Z</time></trkpt><trkpt lat="41.1759467" lon="14.787255"><ele>256.0</ele><time>2026-03-15T12:21:14.724Z</time></trkpt><trkpt lat="41.1758483" lon="14.78684"><ele>254.0</ele><time>2026-03-15T12:21:15.724Z</time></trkpt><trkpt lat="41.1757717" lon="14.7864483"><ele>252.0</ele><time>2026-03-15T12:21:16.724Z</time></trkpt><trkpt lat="41.1756867" lon="14.78608"><ele>246.5</ele><time>2026-03-15T12:21:17.724Z</time></trkpt><trkpt lat="41.17559" lon="14.7857133"><ele>241.0</ele><time>2026-03-15T12:21:18.724Z</time></trkpt><trkpt lat="41.17538" lon="14.7854017"><ele>240.0</ele><time>2026-03-15T12:21:19.724Z</time></trkpt><trkpt lat="41.1752717" lon="14.7850567"><ele>239.0</ele><time>2026-03-15T12:21:20.724Z</time></trkpt><trkpt lat="41.1751617" lon="14.7847017"><ele>237.0</ele><time>2026-03-15T12:21:21.724Z</time></trkpt><trkpt lat="41.1750517" lon="14.7843433"><ele>235.0</ele><time>2026-03-15T12:21:22.724Z</time></trkpt><trkpt lat="41.1749483" lon="14.7838983"><ele>233.0</ele><time>2026-03-15T12:21:23.724Z</time></trkpt><trkpt lat="41.17483" lon="14.7835317"><ele>231.0</ele><time>2026-03-15T12:21:24.724Z</time></trkpt><trkpt lat="41.1747017" lon="14.783175"><ele>230.5</ele><time>2026-03-15T12:21:25.724Z</time></trkpt><trkpt lat="41.17458" lon="14.78285"><ele>230.0</ele><time>2026-03-15T12:21:26.724Z</time></trkpt><trkpt lat="41.1744383" lon="14.7825"><ele>229.0</ele><time>2026-03-15T12:21:27.724Z</time></trkpt><trkpt lat="41.1742583" lon="14.782195"><ele>228.0</ele><time>2026-03-15T12:21:28.724Z</time></trkpt><trkpt lat="41.1741067" lon="14.781895"><ele>225.5</ele><time>2026-03-15T12:21:29.724Z</time></trkpt><trkpt lat="41.1739017" lon="14.7816167"><ele>223.0</ele><time>2026-03-15T12:21:30.724Z</time></trkpt><trkpt lat="41.1737" lon="14.781345"><ele>223.0</ele><time>2026-03-15T12:21:31.724Z</time></trkpt><trkpt lat="41.1734867" lon="14.7810767"><ele>223.0</ele><time>2026-03-15T12:21:32.724Z</time></trkpt><trkpt lat="41.173265" lon="14.7808333"><ele>222.0</ele><time>2026-03-15T12:21:33.724Z</time></trkpt><trkpt lat="41.17304" lon="14.7805567"><ele>221.0</ele><time>2026-03-15T12:21:34.724Z</time></trkpt><trkpt lat="41.1728133" lon="14.7802867"><ele>220.0</ele><time>2026-03-15T12:21:35.723Z</time></trkpt><trkpt lat="41.1725917" lon="14.7800217"><ele>219.0</ele><time>2026-03-15T12:21:36.724Z</time></trkpt><trkpt lat="41.1723533" lon="14.7797683"><ele>217.0</ele><time>2026-03-15T12:21:37.723Z</time></trkpt><trkpt lat="41.1721233" lon="14.7795533"><ele>215.0</ele><time>2026-03-15T12:21:38.723Z</time></trkpt><trkpt lat="41.171885" lon="14.7793517"><ele>215.0</ele><time>2026-03-15T12:21:39.724Z</time></trkpt><trkpt lat="41.1716383" lon="14.7791533"><ele>215.0</ele><time>2026-03-15T12:21:40.724Z</time></trkpt><trkpt lat="41.1713817" lon="14.77897"><ele>215.0</ele><time>2026-03-15T12:21:41.724Z</time></trkpt><trkpt lat="41.171125" lon="14.7787783"><ele>215.0</ele><time>2026-03-15T12:21:42.723Z</time></trkpt><trkpt lat="41.1708583" lon="14.7786067"><ele>213.5</ele><time>2026-03-15T12:21:43.724Z</time></trkpt><trkpt lat="41.1705867" lon="14.77845"><ele>212.0</ele><time>2026-03-15T12:21:44.724Z</time></trkpt><trkpt lat="41.1703083" lon="14.7782817"><ele>212.0</ele><time>2026-03-15T12:21:45.724Z</time></trkpt><trkpt lat="41.17001" lon="14.778115"><ele>212.0</ele><time>2026-03-15T12:21:46.724Z</time></trkpt><trkpt lat="41.1697267" lon="14.7779533"><ele>211.0</ele><time>2026-03-15T12:21:47.724Z</time></trkpt><trkpt lat="41.1694033" lon="14.7778433"><ele>210.0</ele><time>2026-03-15T12:21:48.724Z</time></trkpt><trkpt lat="41.1691083" lon="14.7777233"><ele>210.0</ele><time>2026-03-15T12:21:49.724Z</time></trkpt><trkpt lat="41.16882" lon="14.77761"><ele>210.0</ele><time>2026-03-15T12:21:50.724Z</time></trkpt><trkpt lat="41.1685167" lon="14.7775033"><ele>210.0</ele><time>2026-03-15T12:21:51.724Z</time></trkpt><trkpt lat="41.168225" lon="14.7774317"><ele>210.0</ele><time>2026-03-15T12:21:52.724Z</time></trkpt><trkpt lat="41.1679483" lon="14.7773817"><ele>209.5</ele><time>2026-03-15T12:21:53.724Z</time></trkpt><trkpt lat="41.1676817" lon="14.7773533"><ele>209.0</ele><time>2026-03-15T12:21:54.724Z</time></trkpt><trkpt lat="41.1674133" lon="14.7773333"><ele>208.5</ele><time>2026-03-15T12:21:55.723Z</time></trkpt><trkpt lat="41.1671617" lon="14.7773383"><ele>208.0</ele><time>2026-03-15T12:21:56.724Z</time></trkpt><trkpt lat="41.1669033" lon="14.7773117"><ele>208.0</ele><time>2026-03-15T12:21:57.724Z</time></trkpt><trkpt lat="41.1666433" lon="14.7772867"><ele>208.0</ele><time>2026-03-15T12:21:58.723Z</time></trkpt><trkpt lat="41.1663767" lon="14.77724"><ele>206.5</ele><time>2026-03-15T12:21:59.723Z</time></trkpt><trkpt lat="41.166085" lon="14.7771767"><ele>205.0</ele><time>2026-03-15T12:22:00.724Z</time></trkpt><trkpt lat="41.1657817" lon="14.7771283"><ele>204.5</ele><time>2026-03-15T12:22:01.724Z</time></trkpt><trkpt lat="41.1654833" lon="14.777105"><ele>204.0</ele><time>2026-03-15T12:22:02.724Z</time></trkpt><trkpt lat="41.1652133" lon="14.7770633"><ele>204.0</ele><time>2026-03-15T12:22:03.724Z</time></trkpt><trkpt lat="41.164945" lon="14.77703"><ele>204.0</ele><time>2026-03-15T12:22:04.724Z</time></trkpt><trkpt lat="41.1646933" lon="14.7770183"><ele>203.33333333333331</ele><time>2026-03-15T12:22:05.724Z</time></trkpt><trkpt lat="41.1645383" lon="14.7771183"><ele>202.66666666666666</ele><time>2026-03-15T12:22:06.722Z</time></trkpt><trkpt lat="41.1643833" lon="14.7772667"><ele>202.0</ele><time>2026-03-15T12:22:07.723Z</time></trkpt><trkpt lat="41.16425" lon="14.7774"><ele>202.0</ele><time>2026-03-15T12:22:08.722Z</time></trkpt><trkpt lat="41.1641033" lon="14.7774983"><ele>202.0</ele><time>2026-03-15T12:22:09.723Z</time></trkpt><trkpt lat="41.1639067" lon="14.7775283"><ele>202.0</ele><time>2026-03-15T12:22:10.723Z</time></trkpt><trkpt lat="41.1637683" lon="14.7775883"><ele>202.33333333333331</ele><time>2026-03-15T12:22:11.722Z</time></trkpt><trkpt lat="41.1636267" lon="14.777665"><ele>202.66666666666669</ele><time>2026-03-15T12:22:12.723Z</time></trkpt><trkpt lat="41.1634783" lon="14.7777367"><ele>203.0</ele><time>2026-03-15T12:22:13.722Z</time></trkpt><trkpt lat="41.1633" lon="14.7777683"><ele>204.0</ele><time>2026-03-15T12:22:14.723Z</time></trkpt><trkpt lat="41.1631467" lon="14.77784"><ele>205.0</ele><time>2026-03-15T12:22:15.723Z</time></trkpt><trkpt lat="41.1629933" lon="14.777915"><ele>206.0</ele><time>2026-03-15T12:22:16.723Z</time></trkpt><trkpt lat="41.16284" lon="14.7779767"><ele>206.0</ele><time>2026-03-15T12:22:17.723Z</time></trkpt><trkpt lat="41.1626683" lon="14.7780417"><ele>206.0</ele><time>2026-03-15T12:22:18.723Z</time></trkpt><trkpt lat="41.1624917" lon="14.7781017"><ele>206.0</ele><time>2026-03-15T12:22:19.723Z</time></trkpt><trkpt lat="41.1623117" lon="14.778155"><ele>206.0</ele><time>2026-03-15T12:22:20.723Z</time></trkpt><trkpt lat="41.1621333" lon="14.778195"><ele>206.0</ele><time>2026-03-15T12:22:21.723Z</time></trkpt><trkpt lat="41.1619517" lon="14.778235"><ele>206.0</ele><time>2026-03-15T12:22:22.723Z</time></trkpt><trkpt lat="41.1617717" lon="14.7782717"><ele>206.0</ele><time>2026-03-15T12:22:23.723Z</time></trkpt><trkpt lat="41.1615783" lon="14.7783033"><ele>206.0</ele><time>2026-03-15T12:22:24.723Z</time></trkpt><trkpt lat="41.1613783" lon="14.778335"><ele>206.0</ele><time>2026-03-15T12:22:25.723Z</time></trkpt><trkpt lat="41.1611967" lon="14.7783683"><ele>205.66666666666669</ele><time>2026-03-15T12:22:26.723Z</time></trkpt><trkpt lat="41.1609883" lon="14.7784"><ele>205.33333333333331</ele><time>2026-03-15T12:22:27.723Z</time></trkpt><trkpt lat="41.1607767" lon="14.7784317"><ele>205.0</ele><time>2026-03-15T12:22:28.723Z</time></trkpt><trkpt lat="41.1605633" lon="14.7784683"><ele>205.0</ele><time>2026-03-15T12:22:29.722Z</time></trkpt><trkpt lat="41.1603433" lon="14.7784967"><ele>205.0</ele><time>2026-03-15T12:22:30.723Z</time></trkpt><trkpt lat="41.1601183" lon="14.7785217"><ele>205.0</ele><time>2026-03-15T12:22:31.722Z</time></trkpt><trkpt lat="41.1598867" lon="14.778555"><ele>203.0</ele><time>2026-03-15T12:22:32.723Z</time></trkpt><trkpt lat="41.15966" lon="14.7785917"><ele>201.0</ele><time>2026-03-15T12:22:33.723Z</time></trkpt><trkpt lat="41.1594417" lon="14.7786317"><ele>199.0</ele><time>2026-03-15T12:22:34.723Z</time></trkpt><trkpt lat="41.1592217" lon="14.7786667"><ele>198.0</ele><time>2026-03-15T12:22:35.723Z</time></trkpt><trkpt lat="41.1589983" lon="14.7786933"><ele>197.0</ele><time>2026-03-15T12:22:36.722Z</time></trkpt><trkpt lat="41.158785" lon="14.778725"><ele>196.0</ele><time>2026-03-15T12:22:37.723Z</time></trkpt><trkpt lat="41.1585783" lon="14.778755"><ele>196.0</ele><time>2026-03-15T12:22:38.723Z</time></trkpt><trkpt lat="41.1583833" lon="14.7787933"><ele>196.0</ele><time>2026-03-15T12:22:39.723Z</time></trkpt><trkpt lat="41.1581867" lon="14.7788333"><ele>196.0</ele><time>2026-03-15T12:22:40.723Z</time></trkpt><trkpt lat="41.1579867" lon="14.77887"><ele>195.33333333333331</ele><time>2026-03-15T12:22:41.723Z</time></trkpt><trkpt lat="41.1577983" lon="14.7789367"><ele>194.66666666666669</ele><time>2026-03-15T12:22:42.723Z</time></trkpt><trkpt lat="41.15761" lon="14.77898"><ele>194.0</ele><time>2026-03-15T12:22:43.723Z</time></trkpt><trkpt lat="41.157425" lon="14.7790233"><ele>192.33333333333334</ele><time>2026-03-15T12:22:44.723Z</time></trkpt><trkpt lat="41.1572433" lon="14.7791217"><ele>190.66666666666669</ele><time>2026-03-15T12:22:45.722Z</time></trkpt><trkpt lat="41.157055" lon="14.7791733"><ele>189.0</ele><time>2026-03-15T12:22:46.722Z</time></trkpt><trkpt lat="41.1568717" lon="14.7792283"><ele>189.0</ele><time>2026-03-15T12:22:47.723Z</time></trkpt><trkpt lat="41.1566783" lon="14.7792033"><ele>189.0</ele><time>2026-03-15T12:22:48.723Z</time></trkpt><trkpt lat="41.1565" lon="14.779245"><ele>189.0</ele><time>2026-03-15T12:22:49.722Z</time></trkpt><trkpt lat="41.156335" lon="14.77929"><ele>188.0</ele><time>2026-03-15T12:22:50.723Z</time></trkpt><trkpt lat="41.15616" lon="14.77933"><ele>187.0</ele><time>2026-03-15T12:22:51.723Z</time></trkpt><trkpt lat="41.15598" lon="14.7793183"><ele>186.0</ele><time>2026-03-15T12:22:52.723Z</time></trkpt><trkpt lat="41.1557933" lon="14.7792733"><ele>185.0</ele><time>2026-03-15T12:22:53.723Z</time></trkpt><trkpt lat="41.1556067" lon="14.7792983"><ele>184.0</ele><time>2026-03-15T12:22:54.723Z</time></trkpt><trkpt lat="41.15541" lon="14.7793"><ele>183.0</ele><time>2026-03-15T12:22:55.723Z</time></trkpt><trkpt lat="41.1552183" lon="14.7793033"><ele>183.0</ele><time>2026-03-15T12:22:56.723Z</time></trkpt><trkpt lat="41.1550417" lon="14.779325"><ele>183.0</ele><time>2026-03-15T12:22:57.723Z</time></trkpt><trkpt lat="41.1548483" lon="14.7793217"><ele>183.0</ele><time>2026-03-15T12:22:58.723Z</time></trkpt><trkpt lat="41.154685" lon="14.7793383"><ele>183.0</ele><time>2026-03-15T12:22:59.723Z</time></trkpt><trkpt lat="41.1545217" lon="14.779345"><ele>183.0</ele><time>2026-03-15T12:23:00.723Z</time></trkpt><trkpt lat="41.1543433" lon="14.7793567"><ele>183.0</ele><time>2026-03-15T12:23:01.723Z</time></trkpt><trkpt lat="41.1541633" lon="14.7793967"><ele>182.33333333333334</ele><time>2026-03-15T12:23:02.722Z</time></trkpt><trkpt lat="41.15397" lon="14.7793733"><ele>181.66666666666669</ele><time>2026-03-15T12:23:03.723Z</time></trkpt><trkpt lat="41.1537817" lon="14.779385"><ele>181.0</ele><time>2026-03-15T12:23:04.723Z</time></trkpt><trkpt lat="41.1536133" lon="14.7794333"><ele>181.0</ele><time>2026-03-15T12:23:05.723Z</time></trkpt><trkpt lat="41.1534683" lon="14.7794283"><ele>181.0</ele><time>2026-03-15T12:23:06.723Z</time></trkpt><trkpt lat="41.1533283" lon="14.7794233"><ele>181.0</ele><time>2026-03-15T12:23:07.723Z</time></trkpt><trkpt lat="41.1531633" lon="14.7794"><ele>180.0</ele><time>2026-03-15T12:23:08.723Z</time></trkpt><trkpt lat="41.1529917" lon="14.7793717"><ele>179.0</ele><time>2026-03-15T12:23:09.723Z</time></trkpt><trkpt lat="41.1528433" lon="14.7793583"><ele>178.0</ele><time>2026-03-15T12:23:10.722Z</time></trkpt><trkpt lat="41.15268" lon="14.7793267"><ele>178.0</ele><time>2026-03-15T12:23:11.722Z</time></trkpt><trkpt lat="41.1525283" lon="14.7793067"><ele>178.0</ele><time>2026-03-15T12:23:12.722Z</time></trkpt><trkpt lat="41.1523783" lon="14.7792917"><ele>178.0</ele><time>2026-03-15T12:23:13.723Z</time></trkpt><trkpt lat="41.152215" lon="14.779245"><ele>177.0</ele><time>2026-03-15T12:23:14.723Z</time></trkpt><trkpt lat="41.1520617" lon="14.7792017"><ele>176.0</ele><time>2026-03-15T12:23:15.722Z</time></trkpt><trkpt lat="41.151925" lon="14.779195"><ele>175.0</ele><time>2026-03-15T12:23:16.723Z</time></trkpt><trkpt lat="41.15178" lon="14.779175"><ele>174.0</ele><time>2026-03-15T12:23:17.723Z</time></trkpt><trkpt lat="41.15163" lon="14.7791517"><ele>172.33333333333334</ele><time>2026-03-15T12:23:18.723Z</time></trkpt><trkpt lat="41.1514667" lon="14.779115"><ele>170.66666666666669</ele><time>2026-03-15T12:23:19.722Z</time></trkpt><trkpt lat="41.1513033" lon="14.7790767"><ele>169.0</ele><time>2026-03-15T12:23:20.722Z</time></trkpt><trkpt lat="41.1511667" lon="14.7790783"><ele>169.0</ele><time>2026-03-15T12:23:21.723Z</time></trkpt><trkpt lat="41.1510117" lon="14.77901"><ele>169.0</ele><time>2026-03-15T12:23:22.723Z</time></trkpt><trkpt lat="41.1508567" lon="14.7789283"><ele>169.0</ele><time>2026-03-15T12:23:23.722Z</time></trkpt><trkpt lat="41.1506783" lon="14.7788533"><ele>166.66666666666669</ele><time>2026-03-15T12:23:24.723Z</time></trkpt><trkpt lat="41.1505117" lon="14.7787683"><ele>164.33333333333334</ele><time>2026-03-15T12:23:25.723Z</time></trkpt><trkpt lat="41.15034" lon="14.778695"><ele>162.0</ele><time>2026-03-15T12:23:26.723Z</time></trkpt><trkpt lat="41.150175" lon="14.7785533"><ele>162.33333333333334</ele><time>2026-03-15T12:23:27.723Z</time></trkpt><trkpt lat="41.150035" lon="14.7783867"><ele>162.66666666666669</ele><time>2026-03-15T12:23:28.723Z</time></trkpt><trkpt lat="41.1499083" lon="14.778195"><ele>163.0</ele><time>2026-03-15T12:23:29.723Z</time></trkpt><trkpt lat="41.1497633" lon="14.7780033"><ele>161.0</ele><time>2026-03-15T12:23:30.723Z</time></trkpt><trkpt lat="41.1496567" lon="14.7777783"><ele>159.0</ele><time>2026-03-15T12:23:31.722Z</time></trkpt><trkpt lat="41.149545" lon="14.7775417"><ele>157.0</ele><time>2026-03-15T12:23:32.722Z</time></trkpt><trkpt lat="41.1494333" lon="14.7773133"><ele>157.0</ele><time>2026-03-15T12:23:33.723Z</time></trkpt><trkpt lat="41.14934" lon="14.7771167"><ele>157.0</ele><time>2026-03-15T12:23:34.723Z</time></trkpt><trkpt lat="41.14926" lon="14.77694"><ele>157.0</ele><time>2026-03-15T12:23:35.723Z</time></trkpt><trkpt lat="41.1491883" lon="14.776675"><ele>157.33333333333334</ele><time>2026-03-15T12:23:36.723Z</time></trkpt><trkpt lat="41.1491367" lon="14.7763883"><ele>157.66666666666666</ele><time>2026-03-15T12:23:37.723Z</time></trkpt><trkpt lat="41.14908" lon="14.7761133"><ele>158.0</ele><time>2026-03-15T12:23:38.723Z</time></trkpt><trkpt lat="41.1490083" lon="14.7758683"><ele>156.25</ele><time>2026-03-15T12:23:39.723Z</time></trkpt><trkpt lat="41.1489467" lon="14.7756667"><ele>154.5</ele><time>2026-03-15T12:23:40.723Z</time></trkpt><trkpt lat="41.1489117" lon="14.775525"><ele>152.75</ele><time>2026-03-15T12:23:41.723Z</time></trkpt><trkpt lat="41.1488633" lon="14.7753733"><ele>151.0</ele><time>2026-03-15T12:23:42.722Z</time></trkpt><trkpt lat="41.1487933" lon="14.7751667"><ele>151.0</ele><time>2026-03-15T12:23:43.723Z</time></trkpt><trkpt lat="41.148725" lon="14.7749533"><ele>151.0</ele><time>2026-03-15T12:23:44.723Z</time></trkpt><trkpt lat="41.14866" lon="14.7747483"><ele>151.0</ele><time>2026-03-15T12:23:45.723Z</time></trkpt><trkpt lat="41.1485983" lon="14.7745433"><ele>151.0</ele><time>2026-03-15T12:23:46.723Z</time></trkpt><trkpt lat="41.1485467" lon="14.774345"><ele>151.0</ele><time>2026-03-15T12:23:47.723Z</time></trkpt><trkpt lat="41.1484883" lon="14.77415"><ele>151.0</ele><time>2026-03-15T12:23:48.723Z</time></trkpt><trkpt lat="41.1484283" lon="14.77396"><ele>151.0</ele><time>2026-03-15T12:23:49.722Z</time></trkpt><trkpt lat="41.1483683" lon="14.7737733"><ele>151.0</ele><time>2026-03-15T12:23:50.723Z</time></trkpt><trkpt lat="41.14831" lon="14.7735867"><ele>151.0</ele><time>2026-03-15T12:23:51.723Z</time></trkpt><trkpt lat="41.1482433" lon="14.7733817"><ele>148.75</ele><time>2026-03-15T12:23:52.723Z</time></trkpt><trkpt lat="41.148185" lon="14.7731917"><ele>146.5</ele><time>2026-03-15T12:23:53.723Z</time></trkpt><trkpt lat="41.1481367" lon="14.7730283"><ele>144.25</ele><time>2026-03-15T12:23:54.722Z</time></trkpt><trkpt lat="41.14809" lon="14.7728733"><ele>142.0</ele><time>2026-03-15T12:23:55.723Z</time></trkpt><trkpt lat="41.1480417" lon="14.7727367"><ele>142.0</ele><time>2026-03-15T12:23:56.723Z</time></trkpt><trkpt lat="41.1479933" lon="14.7725983"><ele>142.0</ele><time>2026-03-15T12:23:57.723Z</time></trkpt><trkpt lat="41.1479483" lon="14.7724733"><ele>142.0</ele><time>2026-03-15T12:23:58.723Z</time></trkpt><trkpt lat="41.1479017" lon="14.7723617"><ele>142.0</ele><time>2026-03-15T12:23:59.722Z</time></trkpt><trkpt lat="41.147865" lon="14.7722683"><ele>142.0</ele><time>2026-03-15T12:24:00.723Z</time></trkpt><trkpt lat="41.1478233" lon="14.7721733"><ele>142.0</ele><time>2026-03-15T12:24:01.722Z</time></trkpt><trkpt lat="41.147785" lon="14.7720867"><ele>142.0</ele><time>2026-03-15T12:24:02.723Z</time></trkpt><trkpt lat="41.14774" lon="14.7719633"><ele>142.0</ele><time>2026-03-15T12:24:04.723Z</time></trkpt><trkpt lat="41.1476967" lon="14.771855"><ele>142.0</ele><time>2026-03-15T12:24:06.723Z</time></trkpt><trkpt lat="41.1476217" lon="14.7718067"><ele>142.0</ele><time>2026-03-15T12:24:08.723Z</time></trkpt><trkpt lat="41.14752" lon="14.7717983"><ele>142.0</ele><time>2026-03-15T12:24:10.723Z</time></trkpt><trkpt lat="41.1474583" lon="14.7718667"><ele>142.0</ele><time>2026-03-15T12:24:11.723Z</time></trkpt><trkpt lat="41.1473967" lon="14.7719267"><ele>142.0</ele><time>2026-03-15T12:24:12.723Z</time></trkpt><trkpt lat="41.147325" lon="14.77202"><ele>142.0</ele><time>2026-03-15T12:24:13.723Z</time></trkpt><trkpt lat="41.1472383" lon="14.7720867"><ele>142.0</ele><time>2026-03-15T12:24:14.723Z</time></trkpt><trkpt lat="41.1471467" lon="14.7721667"><ele>141.0</ele><time>2026-03-15T12:24:15.722Z</time></trkpt><trkpt lat="41.14708" lon="14.772285"><ele>140.0</ele><time>2026-03-15T12:24:16.723Z</time></trkpt><trkpt lat="41.1470267" lon="14.7724067"><ele>139.0</ele><time>2026-03-15T12:24:17.723Z</time></trkpt><trkpt lat="41.1469883" lon="14.7725333"><ele>138.0</ele><time>2026-03-15T12:24:18.722Z</time></trkpt><trkpt lat="41.146965" lon="14.7726783"><ele>137.0</ele><time>2026-03-15T12:24:19.723Z</time></trkpt><trkpt lat="41.146925" lon="14.7728467"><ele>137.0</ele><time>2026-03-15T12:24:20.723Z</time></trkpt><trkpt lat="41.1468733" lon="14.773025"><ele>137.0</ele><time>2026-03-15T12:24:21.722Z</time></trkpt><trkpt lat="41.14685" lon="14.7732017"><ele>137.0</ele><time>2026-03-15T12:24:22.723Z</time></trkpt><trkpt lat="41.1468617" lon="14.7734017"><ele>137.0</ele><time>2026-03-15T12:24:23.723Z</time></trkpt><trkpt lat="41.1468417" lon="14.773575"><ele>137.0</ele><time>2026-03-15T12:24:24.722Z</time></trkpt><trkpt lat="41.1468333" lon="14.77376"><ele>137.0</ele><time>2026-03-15T12:24:25.722Z</time></trkpt><trkpt lat="41.1468267" lon="14.7739267"><ele>137.0</ele><time>2026-03-15T12:24:26.723Z</time></trkpt><trkpt lat="41.1468283" lon="14.774105"><ele>137.0</ele><time>2026-03-15T12:24:27.723Z</time></trkpt><trkpt lat="41.1468367" lon="14.7742667"><ele>137.0</ele><time>2026-03-15T12:24:28.723Z</time></trkpt><trkpt lat="41.146855" lon="14.7744083"><ele>137.0</ele><time>2026-03-15T12:24:29.723Z</time></trkpt><trkpt lat="41.1468633" lon="14.7745417"><ele>137.0</ele><time>2026-03-15T12:24:30.723Z</time></trkpt><trkpt lat="41.1468983" lon="14.77467"><ele>137.0</ele><time>2026-03-15T12:24:31.723Z</time></trkpt><trkpt lat="41.1469517" lon="14.774795"><ele>137.0</ele><time>2026-03-15T12:24:32.723Z</time></trkpt><trkpt lat="41.1469967" lon="14.7749233"><ele>137.0</ele><time>2026-03-15T12:24:33.723Z</time></trkpt><trkpt lat="41.1470767" lon="14.77503"><ele>137.0</ele><time>2026-03-15T12:24:34.723Z</time></trkpt><trkpt lat="41.147365" lon="14.77495"><ele>137.0</ele><time>2026-03-15T12:24:35.723Z</time></trkpt><trkpt lat="41.1475417" lon="14.774955"><ele>138.0</ele><time>2026-03-15T12:24:36.723Z</time></trkpt><trkpt lat="41.1476667" lon="14.7749933"><ele>139.0</ele><time>2026-03-15T12:24:37.723Z</time></trkpt><trkpt lat="41.14779" lon="14.7750183"><ele>140.0</ele><time>2026-03-15T12:24:38.723Z</time></trkpt><trkpt lat="41.1478883" lon="14.7750817"><ele>141.0</ele><time>2026-03-15T12:24:39.723Z</time></trkpt><trkpt lat="41.14796" lon="14.77516"><ele>141.2</ele><time>2026-03-15T12:24:40.722Z</time></trkpt><trkpt lat="41.1480033" lon="14.7752583"><ele>141.39999999999998</ele><time>2026-03-15T12:24:41.722Z</time></trkpt><trkpt lat="41.148035" lon="14.7753717"><ele>141.6</ele><time>2026-03-15T12:24:42.723Z</time></trkpt><trkpt lat="41.1480567" lon="14.775495"><ele>141.79999999999998</ele><time>2026-03-15T12:24:43.723Z</time></trkpt><trkpt lat="41.1480583" lon="14.775635"><ele>142.0</ele><time>2026-03-15T12:24:44.723Z</time></trkpt><trkpt lat="41.1480533" lon="14.7758033"><ele>142.0</ele><time>2026-03-15T12:24:45.723Z</time></trkpt><trkpt lat="41.1480417" lon="14.775985"><ele>142.0</ele><time>2026-03-15T12:24:46.722Z</time></trkpt><trkpt lat="41.1480217" lon="14.7762"><ele>142.0</ele><time>2026-03-15T12:24:47.723Z</time></trkpt><trkpt lat="41.1479983" lon="14.7764433"><ele>142.33333333333334</ele><time>2026-03-15T12:24:48.723Z</time></trkpt><trkpt lat="41.1480117" lon="14.7767067"><ele>142.66666666666666</ele><time>2026-03-15T12:24:49.722Z</time></trkpt><trkpt lat="41.1480133" lon="14.7769133"><ele>143.0</ele><time>2026-03-15T12:24:50.723Z</time></trkpt><trkpt lat="41.148065" lon="14.7772333"><ele>142.0</ele><time>2026-03-15T12:24:51.723Z</time></trkpt><trkpt lat="41.148075" lon="14.7775533"><ele>141.0</ele><time>2026-03-15T12:24:52.722Z</time></trkpt><trkpt lat="41.14807" lon="14.7778817"><ele>141.0</ele><time>2026-03-15T12:24:53.723Z</time></trkpt><trkpt lat="41.1480633" lon="14.7782183"><ele>141.0</ele><time>2026-03-15T12:24:54.723Z</time></trkpt><trkpt lat="41.1480267" lon="14.77858"><ele>141.0</ele><time>2026-03-15T12:24:55.723Z</time></trkpt><trkpt lat="41.148" lon="14.7789283"><ele>141.0</ele><time>2026-03-15T12:24:56.723Z</time></trkpt><trkpt lat="41.147965" lon="14.7792967"><ele>141.0</ele><time>2026-03-15T12:24:57.723Z</time></trkpt><trkpt lat="41.147925" lon="14.77964"><ele>141.0</ele><time>2026-03-15T12:24:58.722Z</time></trkpt><trkpt lat="41.1478833" lon="14.7799883"><ele>141.0</ele><time>2026-03-15T12:24:59.723Z</time></trkpt><trkpt lat="41.1478367" lon="14.78033"><ele>141.0</ele><time>2026-03-15T12:25:00.722Z</time></trkpt><trkpt lat="41.1477933" lon="14.7806733"><ele>141.0</ele><time>2026-03-15T12:25:01.723Z</time></trkpt><trkpt lat="41.1477433" lon="14.7810217"><ele>141.0</ele><time>2026-03-15T12:25:02.723Z</time></trkpt><trkpt lat="41.1476867" lon="14.78137"><ele>141.0</ele><time>2026-03-15T12:25:03.723Z</time></trkpt><trkpt lat="41.1475883" lon="14.7817333"><ele>141.0</ele><time>2026-03-15T12:25:04.722Z</time></trkpt><trkpt lat="41.1475283" lon="14.7820767"><ele>137.0</ele><time>2026-03-15T12:25:05.723Z</time></trkpt><trkpt lat="41.147305" lon="14.7824317"><ele>133.0</ele><time>2026-03-15T12:25:06.723Z</time></trkpt><trkpt lat="41.147115" lon="14.7828267"><ele>130.5</ele><time>2026-03-15T12:25:07.723Z</time></trkpt><trkpt lat="41.1469283" lon="14.7832467"><ele>128.0</ele><time>2026-03-15T12:25:08.723Z</time></trkpt><trkpt lat="41.1467533" lon="14.783625"><ele>126.0</ele><time>2026-03-15T12:25:09.723Z</time></trkpt><trkpt lat="41.1465767" lon="14.783995"><ele>124.0</ele><time>2026-03-15T12:25:10.723Z</time></trkpt><trkpt lat="41.1463867" lon="14.7844017"><ele>124.0</ele><time>2026-03-15T12:25:11.723Z</time></trkpt><trkpt lat="41.1462" lon="14.7848133"><ele>124.0</ele><time>2026-03-15T12:25:12.723Z</time></trkpt><trkpt lat="41.1459867" lon="14.78522"><ele>124.5</ele><time>2026-03-15T12:25:13.723Z</time></trkpt><trkpt lat="41.1457467" lon="14.7856167"><ele>125.0</ele><time>2026-03-15T12:25:14.723Z</time></trkpt><trkpt lat="41.1455133" lon="14.78601"><ele>125.5</ele><time>2026-03-15T12:25:15.723Z</time></trkpt><trkpt lat="41.145285" lon="14.7864283"><ele>126.0</ele><time>2026-03-15T12:25:16.723Z</time></trkpt><trkpt lat="41.14505" lon="14.7868533"><ele>126.5</ele><time>2026-03-15T12:25:17.723Z</time></trkpt><trkpt lat="41.14482" lon="14.7872567"><ele>127.0</ele><time>2026-03-15T12:25:18.723Z</time></trkpt><trkpt lat="41.144595" lon="14.7876483"><ele>127.0</ele><time>2026-03-15T12:25:19.723Z</time></trkpt><trkpt lat="41.1443683" lon="14.7880517"><ele>127.0</ele><time>2026-03-15T12:25:20.722Z</time></trkpt><trkpt lat="41.1441417" lon="14.7884717"><ele>128.0</ele><time>2026-03-15T12:25:21.723Z</time></trkpt><trkpt lat="41.143935" lon="14.7888783"><ele>129.0</ele><time>2026-03-15T12:25:22.723Z</time></trkpt><trkpt lat="41.1437217" lon="14.7892917"><ele>130.0</ele><time>2026-03-15T12:25:23.723Z</time></trkpt><trkpt lat="41.14338" lon="14.7897367"><ele>131.0</ele><time>2026-03-15T12:25:24.723Z</time></trkpt><trkpt lat="41.1431667" lon="14.7901317"><ele>132.0</ele><time>2026-03-15T12:25:25.722Z</time></trkpt><trkpt lat="41.1429617" lon="14.79054"><ele>132.0</ele><time>2026-03-15T12:25:26.722Z</time></trkpt><trkpt lat="41.1427517" lon="14.7909467"><ele>132.0</ele><time>2026-03-15T12:25:27.723Z</time></trkpt><trkpt lat="41.1425683" lon="14.7913583"><ele>134.5</ele><time>2026-03-15T12:25:28.722Z</time></trkpt><trkpt lat="41.1423767" lon="14.791775"><ele>137.0</ele><time>2026-03-15T12:25:29.723Z</time></trkpt><trkpt lat="41.1421917" lon="14.79218"><ele>140.5</ele><time>2026-03-15T12:25:30.723Z</time></trkpt><trkpt lat="41.142" lon="14.7925783"><ele>144.0</ele><time>2026-03-15T12:25:31.723Z</time></trkpt><trkpt lat="41.1417783" lon="14.792985"><ele>148.5</ele><time>2026-03-15T12:25:32.723Z</time></trkpt><trkpt lat="41.1415733" lon="14.7933983"><ele>153.0</ele><time>2026-03-15T12:25:33.723Z</time></trkpt><trkpt lat="41.1413717" lon="14.7938017"><ele>155.5</ele><time>2026-03-15T12:25:34.723Z</time></trkpt><trkpt lat="41.141175" lon="14.7942117"><ele>158.0</ele><time>2026-03-15T12:25:35.723Z</time></trkpt><trkpt lat="41.141" lon="14.7946333"><ele>162.5</ele><time>2026-03-15T12:25:36.722Z</time></trkpt><trkpt lat="41.140825" lon="14.7950417"><ele>167.0</ele><time>2026-03-15T12:25:37.723Z</time></trkpt><trkpt lat="41.140655" lon="14.795435"><ele>171.0</ele><time>2026-03-15T12:25:38.722Z</time></trkpt><trkpt lat="41.140475" lon="14.7958383"><ele>175.0</ele><time>2026-03-15T12:25:39.723Z</time></trkpt><trkpt lat="41.1402967" lon="14.796245"><ele>176.5</ele><time>2026-03-15T12:25:40.723Z</time></trkpt><trkpt lat="41.14011" lon="14.7966383"><ele>178.0</ele><time>2026-03-15T12:25:41.723Z</time></trkpt><trkpt lat="41.139935" lon="14.7970333"><ele>181.0</ele><time>2026-03-15T12:25:42.723Z</time></trkpt><trkpt lat="41.1397483" lon="14.7974217"><ele>184.0</ele><time>2026-03-15T12:25:43.723Z</time></trkpt><trkpt lat="41.1395283" lon="14.7977783"><ele>184.5</ele><time>2026-03-15T12:25:44.723Z</time></trkpt><trkpt lat="41.1393467" lon="14.7981633"><ele>185.0</ele><time>2026-03-15T12:25:45.722Z</time></trkpt><trkpt lat="41.1391667" lon="14.79857"><ele>185.5</ele><time>2026-03-15T12:25:46.722Z</time></trkpt><trkpt lat="41.13898" lon="14.7989617"><ele>186.0</ele><time>2026-03-15T12:25:47.723Z</time></trkpt><trkpt lat="41.1388083" lon="14.7993667"><ele>187.0</ele><time>2026-03-15T12:25:48.723Z</time></trkpt><trkpt lat="41.1386317" lon="14.7997367"><ele>188.0</ele><time>2026-03-15T12:25:49.723Z</time></trkpt><trkpt lat="41.1384567" lon="14.8000967"><ele>188.0</ele><time>2026-03-15T12:25:50.723Z</time></trkpt><trkpt lat="41.138295" lon="14.8003967"><ele>188.0</ele><time>2026-03-15T12:25:51.723Z</time></trkpt><trkpt lat="41.13811" lon="14.8007417"><ele>189.5</ele><time>2026-03-15T12:25:52.723Z</time></trkpt><trkpt lat="41.1379317" lon="14.80105"><ele>191.0</ele><time>2026-03-15T12:25:53.723Z</time></trkpt><trkpt lat="41.137755" lon="14.8014067"><ele>191.0</ele><time>2026-03-15T12:25:54.723Z</time></trkpt><trkpt lat="41.137575" lon="14.8017717"><ele>191.0</ele><time>2026-03-15T12:25:55.722Z</time></trkpt><trkpt lat="41.137395" lon="14.8021367"><ele>192.0</ele><time>2026-03-15T12:25:56.723Z</time></trkpt><trkpt lat="41.1343567" lon="14.804375"><ele>174.0</ele><time>2026-03-15T12:26:05.723Z</time></trkpt><trkpt lat="41.1338283" lon="14.804275"><ele>171.5</ele><time>2026-03-15T12:26:06.723Z</time></trkpt><trkpt lat="41.1335217" lon="14.8044417"><ele>169.0</ele><time>2026-03-15T12:26:07.723Z</time></trkpt><trkpt lat="41.1331883" lon="14.80462"><ele>169.0</ele><time>2026-03-15T12:26:08.722Z</time></trkpt><trkpt lat="41.13288" lon="14.804795"><ele>169.0</ele><time>2026-03-15T12:26:09.722Z</time></trkpt><trkpt lat="41.132595" lon="14.8049617"><ele>166.5</ele><time>2026-03-15T12:26:10.723Z</time></trkpt><trkpt lat="41.132295" lon="14.8051233"><ele>164.0</ele><time>2026-03-15T12:26:11.723Z</time></trkpt><trkpt lat="41.13195" lon="14.80517"><ele>164.0</ele><time>2026-03-15T12:26:12.723Z</time></trkpt><trkpt lat="41.1316167" lon="14.8052367"><ele>164.0</ele><time>2026-03-15T12:26:13.723Z</time></trkpt><trkpt lat="41.1312767" lon="14.8053083"><ele>159.0</ele><time>2026-03-15T12:26:14.723Z</time></trkpt><trkpt lat="41.1309333" lon="14.805395"><ele>154.0</ele><time>2026-03-15T12:26:15.723Z</time></trkpt><trkpt lat="41.1305867" lon="14.8054917"><ele>153.5</ele><time>2026-03-15T12:26:16.723Z</time></trkpt><trkpt lat="41.1302167" lon="14.8055567"><ele>153.0</ele><time>2026-03-15T12:26:17.723Z</time></trkpt><trkpt lat="41.12985" lon="14.8056333"><ele>157.5</ele><time>2026-03-15T12:26:18.723Z</time></trkpt><trkpt lat="41.1294717" lon="14.805725"><ele>162.0</ele><time>2026-03-15T12:26:19.723Z</time></trkpt><trkpt lat="41.1291183" lon="14.8057967"><ele>163.5</ele><time>2026-03-15T12:26:20.723Z</time></trkpt><trkpt lat="41.1287817" lon="14.8058683"><ele>165.0</ele><time>2026-03-15T12:26:21.723Z</time></trkpt><trkpt lat="41.1284467" lon="14.805935"><ele>166.0</ele><time>2026-03-15T12:26:22.722Z</time></trkpt><trkpt lat="41.1281133" lon="14.8059683"><ele>167.0</ele><time>2026-03-15T12:26:23.723Z</time></trkpt><trkpt lat="41.1277767" lon="14.8060083"><ele>170.5</ele><time>2026-03-15T12:26:24.723Z</time></trkpt><trkpt lat="41.12744" lon="14.80602"><ele>174.0</ele><time>2026-03-15T12:26:25.723Z</time></trkpt><trkpt lat="41.1271083" lon="14.8060433"><ele>174.0</ele><time>2026-03-15T12:26:26.723Z</time></trkpt><trkpt lat="41.126785" lon="14.8060117"><ele>174.0</ele><time>2026-03-15T12:26:27.723Z</time></trkpt><trkpt lat="41.1264617" lon="14.8059667"><ele>168.5</ele><time>2026-03-15T12:26:28.723Z</time></trkpt><trkpt lat="41.1261433" lon="14.805955"><ele>163.0</ele><time>2026-03-15T12:26:29.723Z</time></trkpt><trkpt lat="41.1258333" lon="14.8059567"><ele>167.0</ele><time>2026-03-15T12:26:30.723Z</time></trkpt><trkpt lat="41.1255583" lon="14.8059667"><ele>171.0</ele><time>2026-03-15T12:26:31.723Z</time></trkpt><trkpt lat="41.1252917" lon="14.80597"><ele>171.0</ele><time>2026-03-15T12:26:32.723Z</time></trkpt><trkpt lat="41.1250217" lon="14.80596"><ele>171.0</ele><time>2026-03-15T12:26:33.723Z</time></trkpt><trkpt lat="41.1248033" lon="14.80597"><ele>174.0</ele><time>2026-03-15T12:26:34.723Z</time></trkpt><trkpt lat="41.1245467" lon="14.8059533"><ele>177.0</ele><time>2026-03-15T12:26:35.723Z</time></trkpt><trkpt lat="41.1243083" lon="14.80592"><ele>178.5</ele><time>2026-03-15T12:26:36.723Z</time></trkpt><trkpt lat="41.1240433" lon="14.8058783"><ele>180.0</ele><time>2026-03-15T12:26:37.723Z</time></trkpt><trkpt lat="41.1238233" lon="14.8058683"><ele>180.0</ele><time>2026-03-15T12:26:38.723Z</time></trkpt><trkpt lat="41.1236133" lon="14.8058667"><ele>180.0</ele><time>2026-03-15T12:26:39.723Z</time></trkpt><trkpt lat="41.12341" lon="14.8058667"><ele>180.0</ele><time>2026-03-15T12:26:40.723Z</time></trkpt><trkpt lat="41.1232017" lon="14.8058767"><ele>181.0</ele><time>2026-03-15T12:26:41.723Z</time></trkpt><trkpt lat="41.1229883" lon="14.8058817"><ele>182.0</ele><time>2026-03-15T12:26:42.723Z</time></trkpt><trkpt lat="41.1227667" lon="14.805865"><ele>183.0</ele><time>2026-03-15T12:26:43.723Z</time></trkpt><trkpt lat="41.1225533" lon="14.8058567"><ele>182.33333333333334</ele><time>2026-03-15T12:26:44.723Z</time></trkpt><trkpt lat="41.1223483" lon="14.805855"><ele>181.66666666666669</ele><time>2026-03-15T12:26:45.723Z</time></trkpt><trkpt lat="41.122135" lon="14.80583"><ele>181.0</ele><time>2026-03-15T12:26:46.723Z</time></trkpt><trkpt lat="41.1219567" lon="14.8058283"><ele>181.0</ele><time>2026-03-15T12:26:47.722Z</time></trkpt><trkpt lat="41.1217817" lon="14.8058117"><ele>181.0</ele><time>2026-03-15T12:26:48.723Z</time></trkpt><trkpt lat="41.121615" lon="14.8058067"><ele>181.0</ele><time>2026-03-15T12:26:49.723Z</time></trkpt><trkpt lat="41.1214717" lon="14.8058117"><ele>180.0</ele><time>2026-03-15T12:26:50.722Z</time></trkpt><trkpt lat="41.12135" lon="14.805855"><ele>179.0</ele><time>2026-03-15T12:26:51.723Z</time></trkpt><trkpt lat="41.1212283" lon="14.8059017"><ele>178.0</ele><time>2026-03-15T12:26:52.723Z</time></trkpt><trkpt lat="41.1211017" lon="14.80593"><ele>177.0</ele><time>2026-03-15T12:26:53.723Z</time></trkpt><trkpt lat="41.120975" lon="14.805945"><ele>177.0</ele><time>2026-03-15T12:26:54.723Z</time></trkpt><trkpt lat="41.1208417" lon="14.8059417"><ele>177.0</ele><time>2026-03-15T12:26:55.723Z</time></trkpt><trkpt lat="41.1206867" lon="14.8059133"><ele>177.0</ele><time>2026-03-15T12:26:56.723Z</time></trkpt><trkpt lat="41.1205333" lon="14.8058817"><ele>177.0</ele><time>2026-03-15T12:26:57.723Z</time></trkpt><trkpt lat="41.12039" lon="14.8058183"><ele>175.66666666666666</ele><time>2026-03-15T12:26:58.722Z</time></trkpt><trkpt lat="41.1202433" lon="14.8057167"><ele>174.33333333333331</ele><time>2026-03-15T12:26:59.723Z</time></trkpt><trkpt lat="41.12011" lon="14.8055867"><ele>173.0</ele><time>2026-03-15T12:27:00.723Z</time></trkpt><trkpt lat="41.12" lon="14.8054267"><ele>173.0</ele><time>2026-03-15T12:27:01.722Z</time></trkpt><trkpt lat="41.1199267" lon="14.8052433"><ele>173.0</ele><time>2026-03-15T12:27:02.723Z</time></trkpt><trkpt lat="41.119815" lon="14.80512"><ele>173.0</ele><time>2026-03-15T12:27:03.723Z</time></trkpt><trkpt lat="41.11973" lon="14.8049583"><ele>172.0</ele><time>2026-03-15T12:27:04.723Z</time></trkpt><trkpt lat="41.1196733" lon="14.80478"><ele>171.0</ele><time>2026-03-15T12:27:05.723Z</time></trkpt><trkpt lat="41.1198767" lon="14.8043167"><ele>170.0</ele><time>2026-03-15T12:27:06.723Z</time></trkpt><trkpt lat="41.1201017" lon="14.80418"><ele>169.0</ele><time>2026-03-15T12:27:07.723Z</time></trkpt><trkpt lat="41.12026" lon="14.8040367"><ele>168.0</ele><time>2026-03-15T12:27:08.723Z</time></trkpt><trkpt lat="41.12038" lon="14.8039133"><ele>168.0</ele><time>2026-03-15T12:27:09.723Z</time></trkpt><trkpt lat="41.1204783" lon="14.80379"><ele>168.0</ele><time>2026-03-15T12:27:10.723Z</time></trkpt><trkpt lat="41.12057" lon="14.8036667"><ele>168.0</ele><time>2026-03-15T12:27:11.723Z</time></trkpt><trkpt lat="41.1206467" lon="14.8035333"><ele>168.0</ele><time>2026-03-15T12:27:12.722Z</time></trkpt><trkpt lat="41.120725" lon="14.8034017"><ele>169.2</ele><time>2026-03-15T12:27:13.723Z</time></trkpt><trkpt lat="41.1207017" lon="14.80328"><ele>170.4</ele><time>2026-03-15T12:27:14.723Z</time></trkpt><trkpt lat="41.1206" lon="14.80314"><ele>171.6</ele><time>2026-03-15T12:27:15.723Z</time></trkpt><trkpt lat="41.1205783" lon="14.80302"><ele>172.79999999999998</ele><time>2026-03-15T12:27:16.723Z</time></trkpt><trkpt lat="41.1205717" lon="14.8029167"><ele>174.0</ele><time>2026-03-15T12:27:17.723Z</time></trkpt><trkpt lat="41.1205833" lon="14.8028317"><ele>174.0</ele><time>2026-03-15T12:27:18.723Z</time></trkpt><trkpt lat="41.120615" lon="14.8027467"><ele>174.0</ele><time>2026-03-15T12:27:19.723Z</time></trkpt><trkpt lat="41.12065" lon="14.802665"><ele>174.0</ele><time>2026-03-15T12:27:20.723Z</time></trkpt><trkpt lat="41.1207067" lon="14.8025833"><ele>174.0</ele><time>2026-03-15T12:27:21.723Z</time></trkpt><trkpt lat="41.1208517" lon="14.8024817"><ele>174.0</ele><time>2026-03-15T12:27:22.722Z</time></trkpt><trkpt lat="41.1209783" lon="14.8023817"><ele>174.33333333333334</ele><time>2026-03-15T12:27:23.723Z</time></trkpt><trkpt lat="41.1211167" lon="14.8022583"><ele>174.66666666666669</ele><time>2026-03-15T12:27:24.723Z</time></trkpt><trkpt lat="41.121235" lon="14.8021617"><ele>175.0</ele><time>2026-03-15T12:27:25.723Z</time></trkpt><trkpt lat="41.1213883" lon="14.80204"><ele>175.0</ele><time>2026-03-15T12:27:26.723Z</time></trkpt><trkpt lat="41.1215267" lon="14.8019033"><ele>175.0</ele><time>2026-03-15T12:27:27.723Z</time></trkpt><trkpt lat="41.1216517" lon="14.8017583"><ele>175.0</ele><time>2026-03-15T12:27:28.723Z</time></trkpt><trkpt lat="41.12177" lon="14.80161"><ele>176.66666666666669</ele><time>2026-03-15T12:27:29.722Z</time></trkpt><trkpt lat="41.1219117" lon="14.801455"><ele>178.33333333333334</ele><time>2026-03-15T12:27:30.722Z</time></trkpt><trkpt lat="41.122055" lon="14.801315"><ele>180.0</ele><time>2026-03-15T12:27:31.723Z</time></trkpt><trkpt lat="41.1221833" lon="14.8011783"><ele>180.0</ele><time>2026-03-15T12:27:32.723Z</time></trkpt><trkpt lat="41.1223283" lon="14.8010667"><ele>180.0</ele><time>2026-03-15T12:27:33.723Z</time></trkpt><trkpt lat="41.1224467" lon="14.8009767"><ele>180.0</ele><time>2026-03-15T12:27:34.722Z</time></trkpt><trkpt lat="41.12257" lon="14.8008933"><ele>180.0</ele><time>2026-03-15T12:27:35.723Z</time></trkpt><trkpt lat="41.1227117" lon="14.8008217"><ele>180.75</ele><time>2026-03-15T12:27:36.722Z</time></trkpt><trkpt lat="41.1228567" lon="14.800775"><ele>181.5</ele><time>2026-03-15T12:27:37.723Z</time></trkpt><trkpt lat="41.1229883" lon="14.800725"><ele>182.25</ele><time>2026-03-15T12:27:38.723Z</time></trkpt><trkpt lat="41.123135" lon="14.8006667"><ele>183.0</ele><time>2026-03-15T12:27:39.723Z</time></trkpt><trkpt lat="41.1232617" lon="14.8005917"><ele>183.0</ele><time>2026-03-15T12:27:40.723Z</time></trkpt><trkpt lat="41.1234383" lon="14.8005533"><ele>183.0</ele><time>2026-03-15T12:27:41.722Z</time></trkpt><trkpt lat="41.1235933" lon="14.8004917"><ele>183.0</ele><time>2026-03-15T12:27:42.723Z</time></trkpt><trkpt lat="41.1237083" lon="14.8004233"><ele>183.0</ele><time>2026-03-15T12:27:43.723Z</time></trkpt><trkpt lat="41.123865" lon="14.8003383"><ele>183.0</ele><time>2026-03-15T12:27:44.723Z</time></trkpt><trkpt lat="41.1239367" lon="14.8002517"><ele>183.0</ele><time>2026-03-15T12:27:46.723Z</time></trkpt><trkpt lat="41.12402" lon="14.8001917"><ele>183.0</ele><time>2026-03-15T12:27:47.723Z</time></trkpt><trkpt lat="41.124135" lon="14.8000967"><ele>184.0</ele><time>2026-03-15T12:27:48.723Z</time></trkpt><trkpt lat="41.1242067" lon="14.8000233"><ele>185.0</ele><time>2026-03-15T12:27:49.723Z</time></trkpt><trkpt lat="41.124265" lon="14.7999433"><ele>186.0</ele><time>2026-03-15T12:27:50.723Z</time></trkpt><trkpt lat="41.1242867" lon="14.7998567"><ele>187.0</ele><time>2026-03-15T12:27:51.723Z</time></trkpt><trkpt lat="41.12417" lon="14.7997717"><ele>188.0</ele><time>2026-03-15T12:27:53.723Z</time></trkpt><trkpt lat="41.124095" lon="14.7997267"><ele>188.60000000000002</ele><time>2026-03-15T12:27:55.722Z</time></trkpt><trkpt lat="41.12401" lon="14.79964"><ele>189.20000000000002</ele><time>2026-03-15T12:27:57.723Z</time></trkpt><trkpt lat="41.123865" lon="14.7996017"><ele>189.8</ele><time>2026-03-15T12:27:59.722Z</time></trkpt><trkpt lat="41.1237867" lon="14.7995983"><ele>190.4</ele><time>2026-03-15T12:28:00.723Z</time></trkpt><trkpt lat="41.1237117" lon="14.7995883"><ele>191.0</ele><time>2026-03-15T12:28:01.723Z</time></trkpt><trkpt lat="41.1235517" lon="14.79962"><ele>191.0</ele><time>2026-03-15T12:28:02.722Z</time></trkpt><trkpt lat="41.123395" lon="14.7996483"><ele>191.0</ele><time>2026-03-15T12:28:03.723Z</time></trkpt><trkpt lat="41.1231833" lon="14.7996983"><ele>191.0</ele><time>2026-03-15T12:28:04.723Z</time></trkpt><trkpt lat="41.12283" lon="14.7996933"><ele>192.66666666666666</ele><time>2026-03-15T12:28:05.722Z</time></trkpt><trkpt lat="41.1226117" lon="14.7996217"><ele>194.33333333333331</ele><time>2026-03-15T12:28:06.723Z</time></trkpt><trkpt lat="41.1223917" lon="14.799615"><ele>196.0</ele><time>2026-03-15T12:28:07.722Z</time></trkpt><trkpt lat="41.1221767" lon="14.7996217"><ele>198.66666666666666</ele><time>2026-03-15T12:28:08.723Z</time></trkpt><trkpt lat="41.12199" lon="14.7996333"><ele>201.33333333333331</ele><time>2026-03-15T12:28:09.723Z</time></trkpt><trkpt lat="41.12179" lon="14.799675"><ele>204.0</ele><time>2026-03-15T12:28:10.723Z</time></trkpt><trkpt lat="41.12162" lon="14.7997133"><ele>204.25</ele><time>2026-03-15T12:28:11.723Z</time></trkpt><trkpt lat="41.1214667" lon="14.7997767"><ele>204.5</ele><time>2026-03-15T12:28:12.723Z</time></trkpt><trkpt lat="41.1213433" lon="14.7998267"><ele>204.75</ele><time>2026-03-15T12:28:13.723Z</time></trkpt><trkpt lat="41.121235" lon="14.7999017"><ele>205.0</ele><time>2026-03-15T12:28:14.723Z</time></trkpt><trkpt lat="41.1211183" lon="14.799945"><ele>205.0</ele><time>2026-03-15T12:28:15.723Z</time></trkpt><trkpt lat="41.1210117" lon="14.799975"><ele>205.0</ele><time>2026-03-15T12:28:16.723Z</time></trkpt><trkpt lat="41.1209267" lon="14.7999883"><ele>205.0</ele><time>2026-03-15T12:28:17.723Z</time></trkpt><trkpt lat="41.1208267" lon="14.7999833"><ele>205.0</ele><time>2026-03-15T12:28:18.723Z</time></trkpt><trkpt lat="41.1207317" lon="14.7999583"><ele>205.0</ele><time>2026-03-15T12:28:19.723Z</time></trkpt><trkpt lat="41.1206083" lon="14.7998817"><ele>207.33333333333331</ele><time>2026-03-15T12:28:20.723Z</time></trkpt><trkpt lat="41.1204683" lon="14.7997417"><ele>209.66666666666669</ele><time>2026-03-15T12:28:21.723Z</time></trkpt><trkpt lat="41.120325" lon="14.7996017"><ele>212.0</ele><time>2026-03-15T12:28:22.723Z</time></trkpt><trkpt lat="41.1202267" lon="14.7994933"><ele>212.0</ele><time>2026-03-15T12:28:23.723Z</time></trkpt><trkpt lat="41.1201567" lon="14.7994117"><ele>212.0</ele><time>2026-03-15T12:28:24.723Z</time></trkpt><trkpt lat="41.1200417" lon="14.7992867"><ele>212.0</ele><time>2026-03-15T12:28:25.723Z</time></trkpt><trkpt lat="41.119945" lon="14.79916"><ele>212.0</ele><time>2026-03-15T12:28:26.723Z</time></trkpt><trkpt lat="41.1199033" lon="14.79899"><ele>211.75</ele><time>2026-03-15T12:28:28.723Z</time></trkpt><trkpt lat="41.1198133" lon="14.798805"><ele>211.5</ele><time>2026-03-15T12:28:29.722Z</time></trkpt><trkpt lat="41.11974" lon="14.7986867"><ele>211.25</ele><time>2026-03-15T12:28:30.722Z</time></trkpt><trkpt lat="41.1196517" lon="14.79852"><ele>211.0</ele><time>2026-03-15T12:28:31.723Z</time></trkpt><trkpt lat="41.1195833" lon="14.7983683"><ele>211.0</ele><time>2026-03-15T12:28:32.723Z</time></trkpt><trkpt lat="41.1195083" lon="14.7982467"><ele>211.0</ele><time>2026-03-15T12:28:33.723Z</time></trkpt><trkpt lat="41.1194067" lon="14.7980783"><ele>211.0</ele><time>2026-03-15T12:28:34.723Z</time></trkpt><trkpt lat="41.1193067" lon="14.7979483"><ele>211.0</ele><time>2026-03-15T12:28:35.723Z</time></trkpt><trkpt lat="41.1192" lon="14.7977717"><ele>210.0</ele><time>2026-03-15T12:28:36.723Z</time></trkpt><trkpt lat="41.11909" lon="14.7975917"><ele>209.0</ele><time>2026-03-15T12:28:37.723Z</time></trkpt><trkpt lat="41.1189783" lon="14.79743"><ele>208.0</ele><time>2026-03-15T12:28:38.723Z</time></trkpt><trkpt lat="41.1188683" lon="14.7973117"><ele>212.66666666666666</ele><time>2026-03-15T12:28:39.723Z</time></trkpt><trkpt lat="41.1187583" lon="14.7971517"><ele>217.33333333333331</ele><time>2026-03-15T12:28:40.723Z</time></trkpt><trkpt lat="41.11865" lon="14.79701"><ele>222.0</ele><time>2026-03-15T12:28:41.722Z</time></trkpt><trkpt lat="41.1185433" lon="14.7968833"><ele>222.5</ele><time>2026-03-15T12:28:42.723Z</time></trkpt><trkpt lat="41.11844" lon="14.7967733"><ele>223.0</ele><time>2026-03-15T12:28:43.723Z</time></trkpt><trkpt lat="41.11835" lon="14.7966417"><ele>223.5</ele><time>2026-03-15T12:28:44.723Z</time></trkpt><trkpt lat="41.11826" lon="14.79648"><ele>224.0</ele><time>2026-03-15T12:28:45.722Z</time></trkpt><trkpt lat="41.118175" lon="14.7963533"><ele>224.0</ele><time>2026-03-15T12:28:46.723Z</time></trkpt><trkpt lat="41.1180967" lon="14.79627"><ele>223.99999999999997</ele><time>2026-03-15T12:28:47.722Z</time></trkpt><trkpt lat="41.1180333" lon="14.7961683"><ele>223.99999999999997</ele><time>2026-03-15T12:28:48.723Z</time></trkpt><trkpt lat="41.1179817" lon="14.7960867"><ele>224.0</ele><time>2026-03-15T12:28:49.723Z</time></trkpt><trkpt lat="41.1179317" lon="14.796035"><ele>224.0</ele><time>2026-03-15T12:28:50.723Z</time></trkpt><trkpt lat="41.117855" lon="14.79593"><ele>222.6</ele><time>2026-03-15T12:28:52.723Z</time></trkpt><trkpt lat="41.1178167" lon="14.79585"><ele>221.2</ele><time>2026-03-15T12:28:54.723Z</time></trkpt><trkpt lat="41.11787" lon="14.7957683"><ele>219.79999999999998</ele><time>2026-03-15T12:28:57.723Z</time></trkpt><trkpt lat="41.1179433" lon="14.795645"><ele>218.39999999999998</ele><time>2026-03-15T12:28:59.723Z</time></trkpt><trkpt lat="41.1179883" lon="14.7955633"><ele>217.0</ele><time>2026-03-15T12:29:00.723Z</time></trkpt><trkpt lat="41.1180767" lon="14.7954883"><ele>217.0</ele><time>2026-03-15T12:29:01.723Z</time></trkpt><trkpt lat="41.1181717" lon="14.7954133"><ele>217.0</ele><time>2026-03-15T12:29:02.722Z</time></trkpt><trkpt lat="41.11827" lon="14.79536"><ele>217.0</ele><time>2026-03-15T12:29:03.723Z</time></trkpt><trkpt lat="41.1183817" lon="14.79527"><ele>217.0</ele><time>2026-03-15T12:29:04.723Z</time></trkpt><trkpt lat="41.1184767" lon="14.79518"><ele>215.25</ele><time>2026-03-15T12:29:05.723Z</time></trkpt><trkpt lat="41.118585" lon="14.7950833"><ele>213.5</ele><time>2026-03-15T12:29:06.722Z</time></trkpt><trkpt lat="41.1186717" lon="14.7949667"><ele>211.75</ele><time>2026-03-15T12:29:07.723Z</time></trkpt><trkpt lat="41.1187483" lon="14.7948667"><ele>210.0</ele><time>2026-03-15T12:29:08.722Z</time></trkpt><trkpt lat="41.11883" lon="14.79477"><ele>210.0</ele><time>2026-03-15T12:29:09.723Z</time></trkpt><trkpt lat="41.1189017" lon="14.7946783"><ele>210.0</ele><time>2026-03-15T12:29:10.723Z</time></trkpt><trkpt lat="41.1189633" lon="14.79457"><ele>210.0</ele><time>2026-03-15T12:29:11.723Z</time></trkpt><trkpt lat="41.1190733" lon="14.79444"><ele>210.0</ele><time>2026-03-15T12:29:12.723Z</time></trkpt><trkpt lat="41.11914" lon="14.7943367"><ele>209.0</ele><time>2026-03-15T12:29:13.722Z</time></trkpt><trkpt lat="41.1192317" lon="14.7942367"><ele>208.0</ele><time>2026-03-15T12:29:14.723Z</time></trkpt><trkpt lat="41.1193117" lon="14.7941133"><ele>207.0</ele><time>2026-03-15T12:29:15.723Z</time></trkpt><trkpt lat="41.1193883" lon="14.7939867"><ele>206.0</ele><time>2026-03-15T12:29:16.723Z</time></trkpt><trkpt lat="41.1194883" lon="14.793825"><ele>206.0</ele><time>2026-03-15T12:29:17.723Z</time></trkpt><trkpt lat="41.1195617" lon="14.7936867"><ele>206.0</ele><time>2026-03-15T12:29:18.723Z</time></trkpt><trkpt lat="41.1196583" lon="14.7935617"><ele>206.0</ele><time>2026-03-15T12:29:19.723Z</time></trkpt><trkpt lat="41.119735" lon="14.7934317"><ele>206.0</ele><time>2026-03-15T12:29:20.723Z</time></trkpt><trkpt lat="41.1197533" lon="14.7932867"><ele>205.4</ele><time>2026-03-15T12:29:21.723Z</time></trkpt><trkpt lat="41.1198483" lon="14.7932183"><ele>204.8</ele><time>2026-03-15T12:29:22.723Z</time></trkpt><trkpt lat="41.1198983" lon="14.7931283"><ele>204.20000000000002</ele><time>2026-03-15T12:29:23.722Z</time></trkpt><trkpt lat="41.1199717" lon="14.7930533"><ele>203.60000000000002</ele><time>2026-03-15T12:29:24.723Z</time></trkpt><trkpt lat="41.1200367" lon="14.792975"><ele>203.0</ele><time>2026-03-15T12:29:25.723Z</time></trkpt><trkpt lat="41.1200983" lon="14.7928983"><ele>203.0</ele><time>2026-03-15T12:29:26.723Z</time></trkpt><trkpt lat="41.1201667" lon="14.7928367"><ele>203.0</ele><time>2026-03-15T12:29:27.723Z</time></trkpt><trkpt lat="41.1201767" lon="14.7929367"><ele>203.0</ele><time>2026-03-15T12:29:28.722Z</time></trkpt><trkpt lat="41.1202567" lon="14.7929567"><ele>203.0</ele><time>2026-03-15T12:29:29.723Z</time></trkpt><trkpt lat="41.1203217" lon="14.79332"><ele>204.0</ele><time>2026-03-15T12:29:32.723Z</time></trkpt><trkpt lat="41.1203333" lon="14.7935367"><ele>205.0</ele><time>2026-03-15T12:29:33.723Z</time></trkpt><trkpt lat="41.1205683" lon="14.7937367"><ele>206.0</ele><time>2026-03-15T12:29:35.723Z</time></trkpt><trkpt lat="41.1207117" lon="14.7937833"><ele>205.8</ele><time>2026-03-15T12:29:36.723Z</time></trkpt><trkpt lat="41.12082" lon="14.7938483"><ele>205.60000000000002</ele><time>2026-03-15T12:29:37.722Z</time></trkpt><trkpt lat="41.1209167" lon="14.79392"><ele>205.4</ele><time>2026-03-15T12:29:38.722Z</time></trkpt><trkpt lat="41.1210083" lon="14.793985"><ele>205.2</ele><time>2026-03-15T12:29:39.723Z</time></trkpt><trkpt lat="41.1210717" lon="14.79404"><ele>205.0</ele><time>2026-03-15T12:29:40.723Z</time></trkpt><trkpt lat="41.12114" lon="14.7940983"><ele>205.0</ele><time>2026-03-15T12:29:41.723Z</time></trkpt><trkpt lat="41.1212" lon="14.7942183"><ele>205.0</ele><time>2026-03-15T12:29:43.723Z</time></trkpt><trkpt lat="41.121175" lon="14.794305"><ele>205.0</ele><time>2026-03-15T12:29:44.722Z</time></trkpt><trkpt lat="41.1211767" lon="14.794435"><ele>205.0</ele><time>2026-03-15T12:29:46.723Z</time></trkpt><trkpt lat="41.1211033" lon="14.79451"><ele>205.0</ele><time>2026-03-15T12:29:48.723Z</time></trkpt><trkpt lat="41.1207967" lon="14.7944833"><ele>205.0</ele><time>2026-03-15T12:29:49.723Z</time></trkpt><trkpt lat="41.12061" lon="14.7946317"><ele>205.0</ele><time>2026-03-15T12:29:51.723Z</time></trkpt><trkpt lat="41.1205083" lon="14.7946983"><ele>205.0</ele><time>2026-03-15T12:29:53.722Z</time></trkpt><trkpt lat="41.1204283" lon="14.794785"><ele>205.0</ele><time>2026-03-15T12:29:55.723Z</time></trkpt><trkpt lat="41.1203317" lon="14.7949833"><ele>204.99999999999997</ele><time>2026-03-15T12:29:56.723Z</time></trkpt><trkpt lat="41.1202333" lon="14.7950333"><ele>205.0</ele><time>2026-03-15T12:29:57.723Z</time></trkpt><trkpt lat="41.12016" lon="14.7950583"><ele>205.0</ele><time>2026-03-15T12:29:58.723Z</time></trkpt><trkpt lat="41.12006" lon="14.7950667"><ele>205.0</ele><time>2026-03-15T12:30:00.723Z</time></trkpt><trkpt lat="41.1199883" lon="14.795065"><ele>204.99999999999997</ele><time>2026-03-15T12:30:02.723Z</time></trkpt><trkpt lat="41.1198933" lon="14.7950717"><ele>205.0</ele><time>2026-03-15T12:30:05.723Z</time></trkpt><trkpt lat="41.119895" lon="14.79519"><ele>209.0</ele><time>2026-03-15T12:30:07.723Z</time></trkpt><trkpt lat="41.119965" lon="14.7952267"><ele>207.0</ele><time>2026-03-15T12:30:10.722Z</time></trkpt><trkpt lat="41.119905" lon="14.7952817"><ele>207.0</ele><time>2026-03-15T12:31:14.723Z</time></trkpt><trkpt lat="41.1199602" lon="14.7954242"><ele>207.0</ele><time>2026-03-15T12:35:21.577Z</time></trkpt></trkseg></trk></gpx>